[[{"header":{"parameterUnit":"m.s-1","parameterCategory":1,"la1":30.6,"la2":29.2853,"lo1":-89.7004,"lo2":-87.6739,"dy":0.0162,"dx":0.0183,"nx":112,"ny":82,"refTime":"2026-04-13T12:00:00:Z","depth":0,"parameterNumber":2,"parameterNumberName":"U-component_of_WINDS"},"data":[0.0,0.0,0.0,0.0,0.0,0.0,0.0,0.0,0.0,0.0,0.0,0.0,0.0,0.0,0.0,0.0,0.0,0.0,0.0,0.0,0.0,0.0,0.0,0.0,0.0,0.0,0.0,0.0,0.0,0.0,0.0,0.0,0.0,0.0,0.0,0.0,0.0,0.0,0.0,0.0,0.0,0.0,0.0,0.0,0.0,0.0,0.0,0.0,0.0,0.0,0.0,0.0,0.0,0.0,0.0,0.0,0.0,0.0,0.0,0.0,0.0,0.0,0.0,0.0,0.0,0.0,0.0,0.0,0.0,0.0,0.0,0.0,0.0,0.0,0.0,0.0,0.0,0.0,0.0,0.0,0.0,0.0,0.0,0.0,0.0,0.0,0.0,0.0,0.0,0.0,0.0,-3.7,-4.1085,-4.272,-4.0862,-3.9277,-3.6526,-3.216,0.0,0.0,0.0,0.0,0.0,0.0,0.0,0.0,0.0,0.0,0.0,0.0,0.0,0.0,0.0,0.0,0.0,0.0,0.0,0.0,0.0,0.0,0.0,0.0,0.0,0.0,0.0,0.0,0.0,0.0,0.0,0.0,0.0,0.0,0.0,0.0,0.0,0.0,0.0,0.0,0.0,0.0,0.0,0.0,0.0,0.0,0.0,0.0,0.0,0.0,0.0,0.0,0.0,0.0,0.0,0.0,0.0,0.0,0.0,0.0,0.0,0.0,0.0,0.0,0.0,0.0,0.0,0.0,0.0,0.0,0.0,0.0,0.0,0.0,0.0,0.0,0.0,0.0,0.0,0.0,0.0,0.0,0.0,0.0,0.0,0.0,0.0,0.0,0.0,0.0,0.0,0.0,0.0,0.0,0.0,0.0,0.0,0.0,0.0,0.0,0.0,0.0,0.0,0.0,-3.4718,-4.0423,-4.3547,-4.4239,-4.1816,-4.0681,-3.7995,-3.3026,0.0,0.0,0.0,0.0,0.0,0.0,0.0,0.0,0.0,0.0,0.0,0.0,0.0,0.0,0.0,0.0,0.0,0.0,0.0,0.0,0.0,0.0,0.0,0.0,0.0,0.0,0.0,0.0,0.0,0.0,0.0,0.0,0.0,0.0,0.0,0.0,0.0,0.0,0.0,0.0,0.0,0.0,0.0,0.0,0.0,0.0,0.0,0.0,0.0,0.0,0.0,0.0,0.0,0.0,0.0,0.0,0.0,0.0,0.0,0.0,0.0,0.0,0.0,0.0,0.0,0.0,0.0,0.0,0.0,0.0,0.0,0.0,0.0,0.0,0.0,0.0,0.0,0.0,0.0,0.0,0.0,0.0,0.0,0.0,0.0,0.0,0.0,0.0,0.0,0.0,0.0,0.0,0.0,0.0,0.0,0.0,0.0,0.0,0.0,0.0,0.0,0.0,0.0,-3.2641,-3.6372,-4.0046,-4.1881,-4.2189,-4.0585,-3.92,-3.6661,-3.2506,-2.8698,0.0,0.0,0.0,0.0,0.0,0.0,0.0,0.0,0.0,0.0,0.0,0.0,0.0,0.0,0.0,0.0,0.0,0.0,0.0,0.0,0.0,0.0,0.0,0.0,0.0,0.0,0.0,0.0,0.0,0.0,0.0,0.0,0.0,0.0,0.0,0.0,0.0,0.0,0.0,0.0,0.0,0.0,0.0,0.0,0.0,0.0,0.0,0.0,0.0,0.0,0.0,0.0,0.0,0.0,0.0,0.0,0.0,0.0,0.0,0.0,0.0,0.0,0.0,0.0,0.0,0.0,0.0,0.0,0.0,0.0,0.0,0.0,0.0,0.0,0.0,0.0,0.0,0.0,0.0,0.0,0.0,0.0,0.0,0.0,0.0,0.0,0.0,0.0,0.0,0.0,0.0,0.0,0.0,0.0,0.0,0.0,0.0,0.0,0.0,0.0,0.0,0.0,-3.5238,-3.7988,-3.97,-4.0631,-4.0631,-3.94,-3.7526,-3.4885,-3.1314,-2.789,0.0,0.0,0.0,0.0,0.0,0.0,0.0,0.0,0.0,0.0,0.0,0.0,0.0,0.0,0.0,0.0,0.0,0.0,0.0,0.0,0.0,0.0,0.0,0.0,0.0,0.0,0.0,0.0,0.0,0.0,0.0,0.0,0.0,0.0,0.0,0.0,0.0,0.0,0.0,0.0,0.0,0.0,0.0,0.0,0.0,0.0,0.0,0.0,0.0,0.0,0.0,0.0,0.0,0.0,0.0,0.0,0.0,0.0,0.0,0.0,0.0,0.0,0.0,0.0,0.0,0.0,0.0,0.0,0.0,0.0,0.0,0.0,0.0,0.0,0.0,0.0,0.0,0.0,0.0,0.0,0.0,0.0,0.0,0.0,0.0,0.0,0.0,0.0,0.0,0.0,0.0,0.0,0.0,0.0,0.0,0.0,0.0,0.0,0.0,0.0,0.0,0.0,-3.7014,-3.9758,-4.145,-4.2393,-4.1931,-3.9515,-3.7026,-3.3769,-2.955,-2.6125,0.0,0.0,0.0,0.0,0.0,0.0,0.0,0.0,0.0,0.0,0.0,0.0,0.0,0.0,0.0,0.0,0.0,0.0,0.0,0.0,0.0,0.0,0.0,0.0,0.0,0.0,0.0,0.0,0.0,0.0,0.0,0.0,0.0,0.0,0.0,0.0,0.0,0.0,0.0,0.0,0.0,0.0,0.0,0.0,0.0,0.0,0.0,0.0,0.0,0.0,0.0,0.0,0.0,0.0,0.0,0.0,0.0,0.0,0.0,0.0,0.0,0.0,0.0,0.0,0.0,0.0,0.0,0.0,0.0,0.0,0.0,0.0,0.0,0.0,0.0,0.0,0.0,0.0,0.0,0.0,0.0,0.0,0.0,0.0,0.0,0.0,0.0,0.0,0.0,0.0,0.0,0.0,0.0,0.0,0.0,0.0,0.0,0.0,0.0,0.0,0.0,0.0,-3.6065,-3.8931,0.0,-4.0969,-4.045,-3.7892,-3.5834,-3.2872,-2.8626,0.0,0.0,0.0,0.0,0.0,0.0,0.0,0.0,0.0,0.0,0.0,0.0,0.0,0.0,0.0,0.0,0.0,0.0,0.0,0.0,0.0,0.0,0.0,0.0,0.0,0.0,0.0,0.0,0.0,0.0,0.0,0.0,0.0,0.0,0.0,0.0,0.0,0.0,0.0,0.0,0.0,0.0,0.0,0.0,0.0,0.0,0.0,0.0,0.0,0.0,0.0,0.0,0.0,0.0,0.0,0.0,0.0,0.0,0.0,0.0,0.0,0.0,0.0,0.0,0.0,0.0,0.0,0.0,0.0,0.0,0.0,0.0,0.0,0.0,0.0,0.0,0.0,0.0,0.0,0.0,0.0,0.0,0.0,0.0,0.0,0.0,0.0,0.0,0.0,0.0,0.0,0.0,0.0,0.0,0.0,0.0,0.0,0.0,0.0,0.0,0.0,0.0,-3.1333,-3.5161,-3.8027,0.0,-3.9785,-3.9084,-3.6538,-3.4276,-3.1295,-2.7332,0.0,0.0,0.0,0.0,0.0,0.0,0.0,0.0,0.0,0.0,0.0,0.0,0.0,0.0,0.0,0.0,0.0,0.0,0.0,0.0,0.0,0.0,0.0,0.0,0.0,0.0,0.0,0.0,0.0,0.0,0.0,0.0,0.0,0.0,0.0,0.0,0.0,0.0,0.0,0.0,0.0,0.0,0.0,0.0,0.0,0.0,0.0,0.0,0.0,0.0,0.0,0.0,0.0,0.0,0.0,0.0,0.0,0.0,0.0,0.0,0.0,0.0,0.0,0.0,0.0,0.0,0.0,0.0,0.0,0.0,0.0,0.0,0.0,0.0,0.0,0.0,0.0,0.0,0.0,0.0,0.0,0.0,0.0,0.0,0.0,0.0,0.0,0.0,0.0,0.0,0.0,0.0,0.0,0.0,0.0,0.0,0.0,0.0,0.0,0.0,0.0,0.0,-3.1256,-3.4615,-3.7353,-3.9092,-3.9284,-3.8257,-3.5692,-3.2365,-2.8942,0.0,0.0,0.0,0.0,0.0,0.0,0.0,0.0,0.0,0.0,0.0,0.0,0.0,0.0,0.0,0.0,0.0,0.0,0.0,0.0,0.0,0.0,0.0,0.0,0.0,0.0,0.0,0.0,0.0,0.0,0.0,0.0,0.0,0.0,0.0,0.0,0.0,0.0,0.0,0.0,0.0,0.0,0.0,0.0,0.0,0.0,0.0,0.0,0.0,0.0,0.0,0.0,0.0,0.0,0.0,0.0,0.0,0.0,0.0,0.0,0.0,0.0,0.0,0.0,0.0,0.0,0.0,0.0,0.0,0.0,0.0,0.0,0.0,0.0,0.0,0.0,0.0,0.0,0.0,0.0,0.0,0.0,0.0,0.0,0.0,0.0,0.0,0.0,0.0,0.0,0.0,0.0,0.0,0.0,0.0,0.0,0.0,0.0,0.0,0.0,0.0,0.0,0.0,-3.0423,-3.425,-3.6904,-3.7411,-3.8565,-3.8015,-3.4853,-3.2583,-2.9596,-2.5558,0.0,0.0,0.0,0.0,0.0,0.0,0.0,0.0,0.0,0.0,0.0,0.0,0.0,0.0,0.0,0.0,0.0,0.0,0.0,0.0,0.0,0.0,0.0,0.0,0.0,0.0,0.0,0.0,0.0,0.0,0.0,0.0,0.0,0.0,0.0,0.0,0.0,0.0,0.0,0.0,0.0,0.0,0.0,0.0,0.0,0.0,0.0,0.0,0.0,0.0,0.0,0.0,0.0,0.0,0.0,0.0,0.0,0.0,0.0,0.0,0.0,0.0,0.0,0.0,0.0,0.0,0.0,0.0,0.0,0.0,0.0,0.0,0.0,0.0,0.0,0.0,0.0,0.0,0.0,0.0,0.0,0.0,0.0,0.0,0.0,0.0,0.0,0.0,0.0,0.0,0.0,0.0,0.0,0.0,0.0,0.0,0.0,0.0,0.0,0.0,0.0,0.0,-2.9544,-3.3295,-3.5968,-3.6635,-3.7353,-3.6815,-3.4398,-3.2025,-2.914,-2.5538,0.0,0.0,0.0,0.0,0.0,0.0,0.0,0.0,0.0,0.0,0.0,0.0,0.0,0.0,0.0,0.0,0.0,0.0,0.0,0.0,0.0,0.0,0.0,0.0,0.0,0.0,0.0,0.0,0.0,0.0,0.0,0.0,0.0,0.0,0.0,0.0,0.0,0.0,0.0,0.0,0.0,0.0,0.0,0.0,0.0,0.0,0.0,0.0,0.0,0.0,0.0,0.0,0.0,0.0,0.0,0.0,0.0,0.0,0.0,0.0,0.0,0.0,0.0,0.0,0.0,0.0,0.0,0.0,0.0,0.0,0.0,0.0,0.0,0.0,0.0,0.0,0.0,0.0,0.0,0.0,0.0,0.0,0.0,0.0,0.0,0.0,0.0,0.0,0.0,0.0,0.0,0.0,0.0,0.0,0.0,0.0,0.0,0.0,0.0,0.0,0.0,0.0,-2.878,-3.2089,-3.4757,-3.6192,-3.5846,-3.5077,-3.4071,-3.0973,-2.8044,-2.5577,0.0,0.0,0.0,0.0,0.0,0.0,0.0,0.0,0.0,0.0,0.0,0.0,0.0,0.0,0.0,0.0,0.0,0.0,0.0,0.0,0.0,0.0,0.0,0.0,0.0,0.0,0.0,0.0,0.0,0.0,0.0,0.0,0.0,0.0,0.0,0.0,0.0,0.0,0.0,0.0,0.0,0.0,0.0,0.0,0.0,0.0,0.0,0.0,0.0,0.0,0.0,0.0,0.0,0.0,0.0,0.0,0.0,0.0,0.0,0.0,-3.1515,0.0,0.0,0.0,0.0,0.0,0.0,0.0,0.0,0.0,0.0,0.0,0.0,0.0,0.0,0.0,0.0,0.0,0.0,0.0,0.0,0.0,0.0,0.0,0.0,0.0,0.0,0.0,0.0,0.0,0.0,0.0,0.0,0.0,0.0,0.0,0.0,0.0,0.0,0.0,0.0,0.0,-2.878,-3.2089,-3.4071,-3.3757,-3.4769,-3.4615,-3.2429,-3.0319,-2.8319,-2.6447,-2.3293,0.0,0.0,0.0,0.0,0.0,0.0,0.0,0.0,0.0,0.0,0.0,0.0,0.0,0.0,0.0,0.0,0.0,0.0,0.0,0.0,0.0,0.0,0.0,0.0,0.0,0.0,0.0,0.0,0.0,0.0,0.0,0.0,0.0,0.0,0.0,0.0,0.0,0.0,0.0,0.0,0.0,0.0,0.0,0.0,0.0,0.0,0.0,0.0,0.0,0.0,0.0,0.0,0.0,0.0,0.0,0.0,0.0,0.0,0.0,0.0,-3.3483,0.0,0.0,0.0,0.0,0.0,0.0,0.0,0.0,0.0,0.0,0.0,0.0,0.0,0.0,0.0,0.0,0.0,0.0,0.0,0.0,0.0,0.0,0.0,0.0,0.0,0.0,0.0,0.0,0.0,0.0,0.0,0.0,0.0,0.0,0.0,0.0,0.0,0.0,0.0,0.0,-2.8261,-3.1141,-3.2968,-3.291,-3.3372,-3.3135,-3.1814,-2.9756,-2.7967,-2.6678,-2.3774,0.0,0.0,0.0,0.0,0.0,0.0,0.0,0.0,0.0,0.0,0.0,0.0,0.0,0.0,0.0,0.0,0.0,0.0,0.0,0.0,0.0,0.0,0.0,0.0,0.0,0.0,0.0,0.0,0.0,0.0,0.0,0.0,0.0,0.0,0.0,0.0,0.0,0.0,0.0,0.0,0.0,0.0,0.0,0.0,0.0,0.0,0.0,0.0,0.0,0.0,0.0,0.0,0.0,-4.2553,-4.3227,-4.31,-4.3985,-4.43,-4.3968,-4.0564,-3.8259,-3.6817,0.0,0.0,0.0,0.0,0.0,0.0,0.0,0.0,0.0,0.0,0.0,0.0,0.0,0.0,0.0,0.0,0.0,0.0,0.0,0.0,0.0,0.0,0.0,0.0,0.0,-3.1174,-3.039,0.0,0.0,0.0,0.0,0.0,0.0,0.0,0.0,0.0,0.0,0.0,0.0,-2.7684,-3.0121,-3.191,-3.241,-3.2006,-3.1641,-3.1487,-2.9275,-2.7582,-2.6871,-2.4432,-2.2643,0.0,0.0,0.0,0.0,0.0,0.0,0.0,0.0,0.0,0.0,0.0,0.0,0.0,0.0,0.0,0.0,0.0,0.0,0.0,0.0,0.0,0.0,0.0,0.0,0.0,0.0,0.0,0.0,0.0,0.0,0.0,0.0,-3.2757,-3.2936,0.0,0.0,0.0,0.0,0.0,0.0,0.0,0.0,0.0,0.0,0.0,0.0,0.0,-4.1974,-4.2749,-4.373,-4.4632,-4.5467,-4.6443,-4.6513,-4.5823,-4.6694,-4.6672,-4.597,-4.6163,0.0,-4.0306,-3.8725,0.0,0.0,0.0,0.0,0.0,0.0,0.0,0.0,0.0,0.0,0.0,0.0,0.0,0.0,0.0,0.0,0.0,0.0,0.0,0.0,0.0,0.0,-3.3976,-3.3215,-3.3038,-3.2921,0.0,-3.1133,-2.953,-2.7837,-2.6154,0.0,0.0,0.0,0.0,0.0,0.0,0.0,-2.7684,-3.0121,-3.1448,-3.0808,-3.1308,-3.1385,-3.0635,-2.8929,-2.7857,-2.7741,-2.5337,-2.3548,-2.2663,-2.1793,0.0,0.0,0.0,0.0,0.0,0.0,0.0,0.0,0.0,0.0,0.0,0.0,0.0,0.0,0.0,0.0,0.0,0.0,0.0,0.0,0.0,0.0,0.0,0.0,0.0,0.0,0.0,0.0,0.0,-3.3921,-3.5918,-3.548,-3.6587,-3.6859,0.0,0.0,0.0,0.0,0.0,0.0,0.0,0.0,0.0,-4.2027,-4.4517,-4.6281,-4.7182,-4.8503,-4.9421,-4.9907,-5.0781,-5.0992,-5.0614,-5.0528,-5.025,-4.9881,-4.9788,-4.8367,-4.595,-4.3288,-4.094,-3.881,0.0,0.0,0.0,0.0,-3.3987,-3.4437,-3.5416,-3.536,0.0,-3.5144,0.0,0.0,0.0,0.0,0.0,0.0,0.0,0.0,0.0,0.0,-3.6189,-3.6306,-3.5955,-3.5584,-3.5584,-3.4575,-3.3035,0.0,-2.8968,-2.7345,-2.6073,0.0,0.0,0.0,0.0,0.0,-2.8357,-2.9987,-3.0827,-3.0442,-3.0731,-3.0808,-3.0423,-2.8852,-2.7895,-2.7895,-2.551,-2.3937,-2.3548,-2.2216,-2.0754,0.0,0.0,0.0,0.0,0.0,0.0,0.0,0.0,0.0,0.0,0.0,0.0,0.0,0.0,0.0,0.0,0.0,0.0,0.0,0.0,0.0,0.0,0.0,0.0,0.0,0.0,0.0,0.0,-3.6641,-3.8611,-3.8432,-3.9709,-4.0019,0.0,0.0,0.0,0.0,0.0,0.0,-4.0993,-4.3491,-4.5187,-4.5773,-4.8293,-4.996,-5.0659,-5.2123,-5.2916,-5.3043,-5.3923,-5.4217,-5.3993,-5.3556,-5.3123,-5.2654,-5.2016,-5.1238,-5.0202,-4.7227,-4.4977,-4.316,-4.0819,-3.9373,-3.8492,-3.7635,-3.7459,-3.7812,-3.9122,-3.8868,-3.8107,-3.8966,0.0,-3.4023,-3.3807,0.0,0.0,0.0,0.0,-3.4743,-3.6265,-3.7145,-3.7809,-3.8454,-3.7927,-3.7301,-3.7301,-3.6617,-3.5365,0.0,-3.1539,-3.0135,-2.8994,0.0,0.0,0.0,0.0,-2.7449,-2.8937,-2.9894,-3.0427,-3.0427,-3.0427,-3.0427,-3.0427,-2.8874,-2.7897,-2.7897,-2.5722,-2.4244,-2.382,-2.2536,-2.1243,-1.9988,0.0,0.0,0.0,0.0,0.0,0.0,0.0,0.0,0.0,0.0,0.0,0.0,0.0,0.0,0.0,0.0,0.0,0.0,0.0,0.0,0.0,0.0,0.0,0.0,0.0,0.0,0.0,0.0,0.0,-4.1767,-4.2753,0.0,0.0,0.0,0.0,-4.1988,-4.284,-4.3711,-4.4592,-4.7061,-4.8455,-4.8491,-5.1049,-5.2414,-5.2473,-5.3368,-5.3862,-5.3957,-5.4823,-5.4802,-5.4024,-5.4816,-5.4266,-5.2704,-5.2646,-5.2138,-5.1201,-4.9439,-4.7684,-4.5922,-4.4144,-4.291,-4.2045,-4.1154,-4.1371,-4.2095,-4.2178,-4.2687,-4.3058,-4.1476,-3.8662,-3.571,-3.4884,-3.4569,0.0,0.0,-3.6423,-3.7301,-3.824,-3.8494,-3.8552,-3.8591,-3.7927,-3.7301,-3.7301,-3.6617,-3.5718,0.0,-3.3826,-3.266,-3.0952,0.0,-2.7911,-2.7935,-2.7887,-2.8164,-2.9071,-2.9959,-3.0499,-3.0499,-3.0499,-3.0499,-3.0499,-2.8898,-2.7894,-2.7894,-2.6293,-2.4615,-2.3033,-2.282,-2.1575,-1.9106,-1.898,0.0,0.0,0.0,0.0,0.0,0.0,0.0,0.0,0.0,0.0,0.0,0.0,0.0,0.0,0.0,0.0,0.0,0.0,0.0,0.0,0.0,0.0,0.0,0.0,0.0,0.0,0.0,0.0,-4.5341,-4.7212,0.0,-4.7237,-4.6435,-4.632,-4.7189,-4.8051,-4.8939,-4.9808,-5.1775,-5.287,-5.2879,-5.4336,-5.51,-5.5115,-5.5415,-5.5589,-5.5602,-5.5918,-5.5934,-5.5652,-5.4838,-5.4127,-5.3463,-5.2351,-5.1687,-5.1355,-5.0757,-4.9801,-4.8587,-4.6869,-4.6028,-4.5636,-4.4761,-4.4294,-4.4157,-4.4727,-4.4375,-4.3518,-4.2325,-4.0723,-3.9121,-3.8259,-3.7614,-3.7264,-3.7594,-3.7908,-3.8337,-3.9156,-3.937,-3.9507,-4.0075,-3.9546,-3.8765,-3.8259,-3.7458,-3.6578,-3.5716,-3.4835,-3.4048,-3.3425,-3.1388,-3.0008,-3.05,-2.9601,-2.916,-2.999,-3.0377,-3.0567,-3.0567,-3.0567,-3.0567,-3.0567,-2.9016,-2.8024,-2.8024,-2.5892,-2.437,-2.3769,-2.2631,-2.1597,-2.0692,-1.9576,-1.8715,0.0,0.0,0.0,0.0,0.0,0.0,0.0,0.0,0.0,0.0,0.0,0.0,0.0,0.0,0.0,0.0,0.0,0.0,0.0,0.0,0.0,0.0,0.0,0.0,0.0,0.0,-4.7008,-4.8446,-5.0362,-5.135,-5.0821,-5.0053,-4.9934,-5.08,-5.1405,-5.2115,-5.2964,-5.4093,-5.4725,-5.4738,-5.5597,-5.6054,-5.6053,-5.639,-5.6538,-5.6523,-5.6522,-5.6555,-5.6566,-5.5402,-5.4713,-5.4361,-5.3229,-5.237,-5.1843,-5.1843,-5.1316,-5.0397,-4.8992,-4.8445,-4.8347,-4.7451,-4.6788,-4.6339,-4.6632,-4.5597,-4.4036,-4.3469,-4.2689,-4.187,-4.1283,-4.0542,-3.9879,-3.9879,-3.9665,-3.9567,-4.0093,-4.0249,-4.0385,-4.0953,-4.0424,-3.9585,-3.8767,-3.7927,-3.7048,-3.6168,-3.5524,-3.5054,-3.4749,-3.323,-3.2157,-3.2405,-3.1209,-3.0464,-3.1006,-3.0827,-3.0633,-3.0633,-3.0633,-3.0633,-3.0633,-2.9075,-2.81,-2.81,-2.5668,-2.4105,-2.3811,-2.2394,-2.1507,-2.119,-1.9778,-1.9018,-1.8999,0.0,0.0,0.0,0.0,0.0,0.0,0.0,0.0,0.0,0.0,0.0,0.0,0.0,0.0,0.0,0.0,0.0,0.0,0.0,0.0,0.0,0.0,0.0,-4.2078,-4.5327,-4.8453,-5.098,-5.2095,-5.2641,-5.2621,-5.194,-5.1836,-5.2654,-5.271,-5.3061,-5.3833,-5.3857,-5.3837,-5.3833,-5.4722,-5.5191,-5.5201,-5.6133,-5.6599,-5.6599,-5.6595,-5.6605,-5.6606,-5.6567,-5.6098,-5.53,-5.5261,-5.4285,-5.2704,-5.2704,-5.2197,-5.1316,-5.0475,-5.0143,-5.0046,-4.9189,-4.8857,-4.8681,-4.784,-4.6454,-4.5049,-4.5049,-4.4445,-4.3744,-4.3744,-4.3118,-4.2396,-4.2396,-4.1771,-4.1109,-4.1109,-4.1109,-4.1109,-4.1109,-4.0464,-3.9605,-3.8786,-3.7947,-3.7067,-3.6168,-3.5992,-3.5737,-3.489,-3.4661,-3.4315,-3.3466,-3.2583,0.0,-3.1999,-3.1234,-3.0706,-3.0706,-3.0706,-3.0706,-3.0706,-2.911,-2.8115,-2.8115,-2.5681,-2.3886,-2.3043,-2.2147,-2.126,-2.041,-1.9574,-1.9095,-1.8994,0.0,0.0,0.0,0.0,0.0,0.0,0.0,0.0,0.0,0.0,0.0,0.0,0.0,0.0,0.0,0.0,0.0,0.0,0.0,0.0,0.0,0.0,-4.4485,-4.4953,-4.7986,-5.0889,-5.2845,-5.4971,-5.6041,-5.5457,-5.5734,-5.5797,-5.5446,-5.5431,-5.55,-5.5687,-5.5088,-5.4748,-5.4748,-5.4956,-5.5077,-5.5129,-5.6012,-5.6482,-5.6521,-5.6571,-5.6598,-5.6586,-5.595,-5.5524,-5.5253,-5.4634,-5.3734,-5.2695,-5.2695,-5.2183,-5.1375,-5.1141,-5.1043,-5.1004,-5.077,-4.9891,-4.8584,-4.7159,-4.6339,-4.5948,-4.5948,-4.5343,-4.4641,-4.4641,-4.3587,-4.2396,-4.2396,-4.1771,-4.1109,-4.1109,-4.1109,-4.1109,-4.1109,-4.0914,-4.0348,-3.8903,-3.8415,-3.7809,-3.6285,-3.5992,-3.5914,-3.5677,-3.511,-3.4599,-3.4344,-3.3032,0.0,-3.2072,-3.131,-3.0762,-3.0762,-3.0762,-3.0762,-3.0762,-2.9221,-2.8246,-2.8246,-2.5222,-2.3325,-2.3079,-2.1636,-2.0692,-2.0403,-2.0156,-1.9721,0.0,0.0,0.0,0.0,0.0,0.0,0.0,0.0,0.0,0.0,0.0,0.0,0.0,0.0,0.0,0.0,0.0,0.0,0.0,0.0,0.0,0.0,-4.4651,-4.7602,-4.8665,-5.0845,-5.2835,-5.4188,-5.6022,-5.7013,-5.6546,-5.6916,-5.699,-5.6494,-5.645,-5.6437,-5.6358,-5.5183,-5.4505,-5.4511,-5.4483,-5.4499,-5.4554,-5.5784,-5.6438,-5.6504,-5.6572,-5.66,-5.6579,-5.6074,-5.5843,0.0,-5.5303,-5.4385,-5.3249,-5.3246,-5.2519,0.0,0.0,0.0,0.0,0.0,-4.9989,-4.8603,-4.7295,-4.6612,-4.63,-4.63,-4.5968,-4.548,-4.5107,-4.4036,-4.2864,-4.2494,-4.1518,-4.0639,-4.1012,-4.0836,-4.0659,-4.1012,-4.0816,-4.019,-3.8884,-3.8318,-3.7653,-3.6265,-3.5992,0.0,-3.5992,-3.5582,-3.5232,-3.5232,-3.3768,-3.2636,-3.2636,-3.1563,-3.08,-3.08,-3.08,-3.08,-3.08,-2.9258,0.0,0.0,0.0,-2.3476,-2.3111,-2.2125,0.0,0.0,0.0,0.0,0.0,0.0,0.0,0.0,-1.9973,-2.0239,0.0,0.0,0.0,0.0,0.0,0.0,0.0,0.0,0.0,0.0,0.0,0.0,0.0,0.0,0.0,0.0,-4.6898,-5.0053,-5.2411,-5.3583,-5.447,-5.5171,-5.6065,-5.6604,-5.6507,-5.6585,-5.6576,-5.6412,-5.6388,-5.6363,-5.6302,0.0,0.0,0.0,0.0,-5.3866,-5.3938,-5.5574,-5.6421,-5.65,-5.6577,-5.6607,-5.6593,-5.6606,-5.6607,-5.6594,-5.6594,-5.5618,-5.3997,-5.3991,-5.2973,-5.1409,-5.1398,-5.1394,-5.1277,-5.0319,-4.9462,-4.8662,-4.7764,0.0,0.0,-4.63,-4.63,-4.6163,-4.5382,-4.4465,-4.3548,-4.2767,-4.1283,-4.0112,-4.0894,-4.0522,-4.0112,-4.0797,-4.0366,-3.9546,-3.865,-3.7849,-3.7048,-3.6168,-3.5992,-3.5992,-3.5992,-3.5992,-3.5992,-3.5992,-3.4528,-3.3396,-3.3396,-3.1874,-3.08,-3.08,0.0,0.0,-3.08,-2.9258,-2.8303,-2.8303,-2.5843,-2.4003,-2.3131,-2.3104,-2.3074,-2.3019,-2.3007,-2.3001,-2.3001,-2.303,-2.3016,-2.2936,-2.2156,-2.2201,0.0,0.0,0.0,0.0,0.0,0.0,0.0,0.0,0.0,0.0,0.0,0.0,0.0,0.0,0.0,-4.5382,-4.9134,-5.2275,-5.3483,-5.4998,-5.605,-5.6206,-5.6951,-5.7208,-5.6565,-5.7091,-5.7176,-5.6451,-5.6354,-5.6311,-5.6304,-5.5255,0.0,-5.4587,-5.4595,-5.4655,-5.476,-5.5803,-5.6377,-5.6508,0.0,0.0,-5.6593,-5.6596,-5.6597,-5.6599,-5.6601,-5.5605,-5.4001,-5.4001,-5.2963,-5.1396,-5.1402,-5.1394,-5.1219,-4.9638,-4.8935,-4.8584,-4.7061,-4.6436,-4.63,-4.63,-4.63,-4.6261,-4.6105,-4.4953,0.0,-4.3509,-4.2181,-4.0894,-4.1051,-4.0973,-4.0717,-4.0171,-3.9917,-3.939,-3.7887,-3.7419,-3.7048,-3.6168,-3.5992,-3.5992,-3.5992,-3.5992,-3.5992,-3.5992,-3.4528,-3.3396,-3.3396,-3.1874,-3.08,-3.08,-3.08,-3.08,-3.08,-2.9258,-2.8303,-2.8303,-2.5843,-2.4007,-2.3146,-2.3106,-2.3086,-2.3083,-2.3071,-2.3077,-2.3079,-2.373,-2.3999,-2.3926,-2.37,-2.3681,0.0,0.0,0.0,0.0,0.0,0.0,0.0,0.0,0.0,0.0,0.0,-4.1694,-4.2121,0.0,-4.7533,-4.7983,-5.0973,-5.3405,-5.3829,-5.5392,-5.6483,-5.645,-5.6801,-5.6894,-5.649,-5.6821,-5.6845,-5.6391,-5.6319,-5.6284,-5.6252,-5.5361,-5.4851,-5.4851,-5.4855,-5.4902,-5.5044,-5.5909,-5.6397,-5.6504,-5.6562,-5.6599,-5.6599,-5.6599,-5.66,-5.6601,-5.6601,-5.5605,-5.3925,-5.3065,-5.2184,-5.1397,-5.1391,-5.1405,-5.1187,-4.9444,-4.8798,-4.8564,-4.6885,-4.63,-4.63,-4.63,-4.63,-4.6222,-4.5773,-4.5031,-4.4172,-4.3294,-4.2103,-4.1109,-4.1109,-4.0777,-4.0346,-3.9897,-3.9488,-3.8843,-3.7575,-3.697,-3.6519,-3.607,-3.5992,-3.5992,-3.5992,-3.5641,-3.5349,-3.5349,-3.4236,-3.324,-3.2812,-3.1602,-3.08,-3.08,-3.08,-3.08,-3.08,-2.9258,-2.7932,-2.7054,-2.5764,-2.4867,-2.4419,-2.4399,-2.4399,-2.4399,-2.4392,-2.4381,-2.4346,-2.4754,-2.4926,-2.4845,-2.4779,-2.4728,0.0,0.0,0.0,0.0,0.0,0.0,0.0,0.0,-3.8988,-4.12,-4.3747,-4.5711,-4.625,-4.8491,-5.0241,-5.0255,-5.2301,-5.3966,-5.4121,-5.5509,-5.6416,-5.6174,-5.6286,-5.6373,-5.6381,-5.622,-5.6105,-5.6037,-5.5864,-5.5812,-5.5925,-5.5219,-5.4894,-5.5133,-5.5155,-5.521,-5.5361,-5.6071,-5.6455,-5.6525,-5.6406,-5.6347,-5.6348,-5.6171,-5.6191,-5.6348,-5.6172,-5.5293,-5.3867,-5.2128,-5.1404,-5.1401,-5.14,-5.1397,-5.1197,-4.943,-4.88,-4.8564,-4.6885,-4.63,-4.63,-4.63,-4.63,-4.6163,-4.548,-4.5012,-4.4445,-4.306,-4.1908,-4.1109,-4.1109,-4.0581,-3.9976,-3.9644,-3.9079,-3.8318,-3.7262,-3.65,-3.5992,-3.5992,-3.5992,-3.5992,-3.5992,-3.5271,-3.4705,-3.4705,-3.3807,-3.289,-3.2187,-3.1348,-3.08,-3.08,-3.0664,-3.0431,-3.0099,-2.881,-2.7386,-2.5805,-2.5707,-2.5707,-2.5707,-2.5707,-2.5707,-2.5707,-2.5703,-2.5675,-2.5623,-2.5613,-2.5579,-2.5494,-2.5449,-2.5387,-3.7253,-3.913,-4.1431,-4.0871,-4.1797,-4.2692,0.0,0.0,-4.3159,-4.4152,-4.6448,-4.8059,-4.7378,-4.9385,-5.115,-5.1155,-5.271,-5.416,-5.494,-5.5899,-5.6197,-5.5351,-5.5885,-5.6303,-5.6314,-5.561,-5.5132,-5.5055,-5.4342,-5.4202,-5.4913,-5.4865,-5.5172,-5.5947,-5.6012,-5.6113,-5.6245,-5.6416,-5.6516,-5.6572,-5.5819,-5.5449,-5.543,-5.4648,-5.4707,-5.539,-5.4629,-5.418,-5.3867,-5.2129,-5.1406,-5.1406,-5.1405,-5.1404,-5.1188,-4.944,-4.8805,-4.8564,-4.6885,-4.63,-4.63,-4.63,-4.63,-4.628,-4.6183,-4.507,-4.3801,-4.3606,-4.2378,-4.1109,-4.1109,-4.1031,-4.0582,-3.9099,-3.8669,-3.8142,-3.65,-3.607,-3.5992,-3.5992,-3.5992,-3.5992,-3.5992,-3.5271,-3.4705,-3.4705,-3.33,-3.2207,-3.211,-3.1348,-3.08,-3.08,-3.0157,-2.9104,-2.7562,-2.725,-2.6723,-2.5765,-2.5707,-2.5707,-2.5707,-2.5707,-2.5707,-2.5707,-2.5706,-2.5705,-2.5684,-2.5636,-2.5574,-2.5492,-2.5483,-2.5419,-4.0237,-4.1942,-4.3964,-4.4619,-4.571,-4.6645,-4.6762,-4.7054,-4.7716,-4.906,-5.1023,-5.223,-5.1334,-5.2488,-5.3392,0.0,-5.3844,-5.4784,-5.5154,-5.5957,-5.6158,-5.521,-5.5366,-5.5332,-5.4835,-5.4414,-5.4174,-5.416,-5.4234,-5.4456,-5.4781,-5.5244,-5.5694,-5.6132,-5.6226,-5.6329,-5.6461,-5.6523,-5.657,-5.6597,-5.5722,-5.5293,-5.5273,-5.4394,-5.4199,-5.4492,-5.3613,-5.3242,-5.3144,-5.1914,-5.1406,-5.1348,-5.0879,-5.0702,-5.0545,-4.9308,-4.8854,-4.8616,-4.6895,-4.6308,-4.6306,-4.6302,-4.63,-4.6202,-4.5695,-4.5031,-4.425,-4.3235,-4.2415,-4.1732,-4.1226,-4.1109,-4.068,-3.9001,-3.8591,-3.8123,-3.6383,-3.5992,-3.5992,-3.5992,-3.5992,-3.5992,-3.5992,-3.486,-3.3944,-3.3944,-3.289,-3.1914,-3.1407,-3.1036,-3.08,-3.08,-3.0509,-2.9611,-2.7893,-2.7756,-2.7171,-2.5785,-2.5707,-2.5707,-2.5707,-2.5707,-2.5707,-2.5707,-2.5707,-2.5707,-2.5707,-2.5663,-2.5626,-2.5571,-2.6038,-2.6187,-4.2721,-4.4293,-4.5969,-4.7485,-4.867,-4.9586,-4.9917,-5.019,-5.0716,-5.1982,-5.3249,-5.3927,-5.3307,-5.3693,-5.4082,-5.3927,-5.4433,-5.4998,-5.5481,-5.6065,-5.6052,-5.4883,-5.4671,-5.4194,-5.3087,-5.333,-5.3579,-5.3579,-5.4111,-5.4552,-5.4785,-5.5352,-5.5827,-5.6193,-5.6267,-5.6362,-5.6497,-5.6564,-5.6481,-5.6229,-5.5351,-5.4824,-5.4551,-5.3926,-5.3633,-5.3613,-5.2969,-5.2695,-5.2637,-5.1758,-5.1406,-5.1328,-5.0508,-5.0195,-5.0077,-4.8942,-4.8549,-4.833,-4.6822,-4.6293,-4.6291,-4.6303,-4.63,-4.6144,-4.5265,-4.4836,-4.4328,-4.2825,-4.224,-4.1908,-4.1265,-4.1109,-4.0738,-3.9274,-3.8767,-3.8181,-3.6677,-3.6168,-3.5992,-3.5992,-3.5992,-3.5992,-3.5992,-3.4743,-3.3671,-3.3438,-3.2658,-3.1799,-3.094,-3.0823,-3.0745,-3.049,-3.047,-2.9786,-2.809,-2.7934,-2.7291,-2.579,-2.5692,-2.5692,-2.5692,-2.571,-2.5709,-2.5709,-2.5708,-2.5707,-2.5707,-2.5708,-2.566,-2.5617,-2.6424,-2.6734,-4.437,-4.6083,-4.7642,-4.8537,-4.9995,-5.1008,-5.019,-5.0657,-5.1281,-5.1339,-5.1378,-5.1417,-5.1378,-5.1398,-5.1963,-5.3638,-5.3927,-5.4507,-5.612,-5.6393,-5.577,-5.4033,-5.3786,-5.3074,0.0,-5.2585,-5.3506,-5.3506,-5.3525,-5.3904,-5.4755,-5.4813,-5.5262,-5.6168,-5.6276,-5.6367,-5.6506,-5.6578,-5.6172,-5.5332,-5.4453,-5.3594,-5.2773,-5.2754,-5.2734,-5.2734,-5.2715,-5.2695,-5.2637,-5.1758,-5.1406,-5.1328,-5.0508,-5.0195,-4.998,-4.8262,-4.7635,-4.751,-4.6608,-4.6293,-4.6291,-4.6303,-4.63,-4.6144,-4.5265,-4.4406,-4.3548,-4.265,-4.1791,-4.1129,-4.1109,-4.1109,-4.0875,-3.9976,-3.9175,-3.8357,-3.7458,-3.6597,-3.5992,-3.5992,-3.5992,-3.5992,-3.5992,-3.5252,-3.4376,-3.3522,-3.2664,-3.1805,-3.1005,-3.0907,-3.0575,-2.9735,-2.9634,-2.8931,-2.7198,-2.7041,-2.6653,-2.5758,-2.57,-2.57,-2.57,-2.5696,-2.5694,-2.5694,-2.5709,-2.5707,-2.5707,-2.5696,-2.568,-2.5617,-2.6423,-2.6766,-4.6165,-4.8298,-5.0232,-5.1093,-5.2177,-5.2957,-5.2645,-5.282,-5.2859,-5.2275,-5.171,-5.13,-5.13,-5.13,-5.169,-5.2859,-5.4004,-5.4935,-5.5458,-5.6003,-5.568,-5.3946,-5.367,0.0,0.0,0.0,0.0,-5.1776,-5.284,-5.3633,-5.3923,-5.4987,-5.5785,-5.6188,-5.6276,-5.637,-5.6506,-5.6578,-5.6152,-5.5273,-5.3828,-5.2676,-5.1836,-5.1836,-5.1836,-5.1836,-5.1836,-5.1836,-5.1816,-5.1523,-5.1406,-5.1269,-4.9883,-4.9336,-4.9121,-4.7383,-4.6738,-4.6698,-4.6399,-4.6299,-4.6297,-4.6305,-4.63,-4.6027,-4.4582,-4.3938,-4.3393,-4.1947,-4.1324,-4.1109,-4.1109,-4.1109,-4.0875,-4.0015,-3.9195,-3.8357,-3.7497,-3.6617,-3.5992,-3.5992,-3.5998,-3.6001,-3.6001,-3.5281,-3.4211,-3.2769,-3.183,-3.1205,-3.0931,-3.0892,-3.0794,-3.0497,-3.046,-2.9758,-2.8017,-2.7864,-2.7241,-2.5798,-2.57,-2.57,-2.57,-2.5699,-2.5697,-2.5694,-2.5692,-2.569,-2.5707,-2.6285,-2.6526,-2.6509,-2.789,-2.8485,-4.7963,-5.008,-5.1937,-5.2464,-5.3251,-5.3666,-5.2723,-5.2742,-5.2547,-5.1086,-5.0073,-4.9488,-4.9488,-4.9488,-4.9956,-5.1437,-5.3132,-5.4463,-5.502,-5.5788,-5.5653,-5.3915,-5.3636,-5.2921,0.0,0.0,0.0,-5.1351,-5.2975,-5.3962,-5.3962,-5.5258,-5.6056,-5.6188,-5.6276,-5.637,-5.6506,-5.6578,-5.6152,-5.5273,-5.3848,-5.2871,-5.2324,-5.2012,-5.1855,-5.1855,-5.1543,-5.1406,-5.1406,-5.1406,-5.1406,-5.123,-4.9551,-4.8906,-4.8691,-4.6933,-4.6308,-4.6308,-4.6306,-4.6303,-4.6301,-4.6309,-4.6088,-4.5578,-4.4133,-4.3489,-4.2942,-4.15,-4.1109,-4.1109,-4.1109,-4.1109,-4.0953,-4.0405,-3.9411,-3.8454,-3.7888,-3.6833,-3.5994,-3.5996,-3.6001,-3.6005,-3.6006,-3.5288,-3.4216,-3.2772,-3.1873,-3.1248,-3.0936,-3.0896,-3.0895,-3.0892,-3.062,-2.9859,-2.8411,-2.8003,-2.7224,-2.5799,-2.5702,-2.5702,-2.5702,-2.5701,-2.57,-2.5698,-2.5695,-2.5693,-2.5709,-2.6563,-2.6986,-2.6978,-2.8654,-2.9395,-4.9785,-5.1538,-5.2874,-5.2757,-5.3351,-5.3276,-5.0665,-5.0677,-5.0502,-4.7891,-4.6644,-4.6004,-4.6004,0.0,-4.6897,-4.9469,-5.1417,-5.3174,-5.4801,-5.5755,-5.5656,0.0,0.0,0.0,0.0,0.0,0.0,-5.221,0.0,-5.4735,-5.4735,-5.5548,-5.6056,-5.6188,-5.6276,-5.637,-5.6506,-5.6519,-5.6113,-5.5293,-5.4375,-5.3926,-5.3906,-5.3027,-5.2637,-5.2598,-5.1758,-5.1406,-5.1406,-5.1367,-5.1348,-5.1172,-4.9492,-4.8828,-4.8633,-4.6933,-4.6308,-4.6308,-4.6307,-4.6305,-4.6282,-4.6256,-4.5662,-4.4836,-4.3918,-4.306,-4.222,-4.1343,-4.109,-4.1091,-4.1091,-4.1091,-4.1091,-4.1091,-3.9822,-3.8593,-3.8593,-3.7225,-3.5996,-3.6003,-3.6005,-3.6006,-3.5991,-3.531,-3.4452,-3.3534,-3.2754,-3.1934,-3.1016,-3.0898,-3.0897,-3.0897,-3.0154,-2.9294,-2.8377,-2.7537,-2.6679,-2.5762,-2.5703,-2.5703,-2.5703,-2.5703,-2.5702,-2.5702,-2.5698,-2.5694,-2.5694,-2.6627,-2.7075,-2.7113,-2.8796,-2.9505,-5.1749,-5.3748,-5.5371,-5.478,-5.4736,-5.4192,-5.1639,-5.068,-4.941,-4.6219,-4.4345,-4.3289,-4.3289,-4.3835,0.0,-4.7715,-5.0657,0.0,-5.3993,-5.5343,0.0,-5.4716,0.0,-5.4056,-5.2972,-5.2848,0.0,0.0,-5.3575,-5.3826,-5.3826,-5.5219,-5.6056,-5.6188,-5.6276,-5.637,-5.6506,-5.5914,-5.5527,-5.5273,-5.3769,-5.3027,-5.3008,-5.2129,-5.1738,-5.1719,-5.1504,-5.1406,-5.1348,-5.0742,-5.0508,-5.0332,-4.8613,-4.793,-4.7793,-4.6699,-4.6308,-4.6308,-4.6308,-4.6308,-4.6188,-4.5535,-4.5178,-4.4727,-4.3198,-4.2576,-4.2229,-4.135,-4.11,-4.1103,-4.1103,-4.1103,-4.1103,-4.1103,-3.9815,-3.8604,-3.8604,-3.7237,-3.6008,-3.6009,-3.5992,-3.5994,-3.5995,-3.582,-3.5156,-3.3633,-3.3223,-3.2559,-3.1094,-3.0898,-3.0898,-3.0897,-3.0702,-2.9941,-2.8436,-2.8105,-2.7324,-2.5801,-2.5703,-2.5703,-2.5703,-2.5703,-2.5703,-2.5702,-2.5702,-2.5699,-2.5694,-2.7235,-2.7974,-2.801,-2.9681,-3.0416,-5.3491,-5.5164,-5.6247,-5.5039,-5.4405,-5.3323,-5.0357,-4.8691,-4.6908,-4.3861,-4.1851,-4.062,-4.062,-4.1341,0.0,0.0,0.0,0.0,-5.2495,-5.4074,-5.4777,0.0,-5.4037,0.0,-5.3014,-5.3285,-5.3498,0.0,-5.3846,-5.4078,-5.4078,-5.5296,-5.6056,-5.6188,-5.6276,-5.6189,-5.5984,-5.5897,-5.5683,-5.5293,-5.4316,-5.3848,-5.3808,-5.2539,-5.1973,-5.1953,0.0,-5.1406,-5.1348,-5.0527,-5.0195,-5.0039,-4.8281,-4.7598,-4.748,-4.6621,-4.6308,-4.6308,-4.6308,-4.6308,-4.6151,-4.5288,-4.4735,-4.4184,-4.2816,-4.2133,-4.1724,-4.1239,-4.1105,-4.1107,-4.1107,-4.1107,-4.1107,-4.1107,-3.9818,-3.8607,-3.8607,-3.7221,-3.5991,-3.5993,-3.5995,-3.5996,-3.5996,-3.5996,-3.541,-3.3652,-3.3398,-3.2793,-3.1113,-3.0898,-3.0898,-3.0898,-3.0566,-2.9785,-2.8417,-2.7949,-2.7148,-2.5781,-2.5703,-2.5703,-2.5703,-2.5703,-2.5703,-2.5703,-2.5703,-2.5702,-2.5699,-2.7454,-2.8292,-2.8348,-3.0027,-3.0759,-5.4929,-5.6014,-5.6318,-5.4468,-5.3339,-5.1764,-4.8154,-4.5904,-4.3808,-4.1139,0.0,-3.8013,-3.8129,-3.887,-4.0331,-4.2997,0.0,-4.9181,-5.0807,-5.2583,-5.3398,-5.2568,-5.3186,-5.3382,-5.2616,-5.3323,-5.3826,-5.3826,-5.4523,-5.4909,-5.4802,-5.5576,-5.6079,-5.6232,-5.6285,-5.604,-5.5488,-5.6113,-5.6055,-5.5293,-5.5078,-5.4941,-5.4902,-5.3262,-5.2539,-5.248,0.0,0.0,-5.1172,-5.0234,-4.9844,-4.9687,-4.8066,-4.7422,-4.7344,-4.6582,-4.6308,-4.6308,-4.6308,-4.6211,-4.5976,-4.5116,-4.4311,-4.3524,-4.2531,-4.1709,-4.1102,-4.1107,-4.1108,-4.1108,-4.1108,-4.1108,-4.1108,-4.1108,-3.9839,-3.8609,-3.8609,-3.7222,-3.5993,-3.5995,-3.5996,-3.5996,-3.5996,-3.5996,-3.541,-3.3652,-3.3398,-3.2793,-3.1113,-3.0898,-3.0898,-3.0898,-3.0215,-2.9414,-2.8555,-2.7676,-2.6797,-2.5937,-2.5762,-2.5703,-2.5703,-2.5801,-2.5879,-2.5879,-2.5996,-2.5995,-2.5878,-2.7614,-2.8414,-2.8335,-3.0022,-3.0767,-5.5415,-5.6415,-5.7005,-5.4592,-5.3335,-5.1601,-4.7457,-4.459,0.0,0.0,-3.6489,-3.5499,-3.622,-3.7058,-3.8714,-4.1984,0.0,0.0,0.0,0.0,-5.3631,0.0,0.0,0.0,0.0,0.0,0.0,0.0,0.0,-5.5507,-5.4851,-5.5618,-5.6168,-5.6352,-5.643,-5.643,-5.6387,-5.5801,-5.5449,-5.5273,-5.3848,-5.3144,-5.3125,-5.209,-5.1621,-5.1582,-5.0762,0.0,-5.0293,-4.8691,-4.8047,-4.7949,-4.6914,-4.6523,-4.6504,-4.6367,-4.6308,-4.6308,-4.6308,-4.582,-4.5078,-4.4218,-4.3825,-4.3395,-4.1811,-4.1226,-4.1091,-4.1091,-4.1132,-4.1172,-4.1172,-4.1172,-4.1172,-4.1172,-3.9863,-3.8593,-3.8593,-3.7226,-3.5996,-3.5996,-3.5996,-3.5996,-3.5996,-3.5996,-3.541,-3.3652,-3.3398,-3.2793,-3.1113,-3.0898,-3.0898,-3.0898,-3.0762,-3.0312,-2.9453,-2.8574,-2.7695,-2.6836,-2.6094,-2.5703,-2.5703,-2.6387,-2.6777,-2.6777,-2.748,-2.748,-2.6777,-2.8514,-2.9001,-2.8335,-3.003,-3.0798,-5.5845,-5.6567,-5.6569,-5.3979,-5.2331,-5.0212,-4.5937,0.0,0.0,0.0,-3.4798,-3.3573,-3.445,-3.5285,0.0,-3.9825,0.0,0.0,0.0,0.0,0.0,0.0,0.0,0.0,0.0,0.0,0.0,0.0,0.0,-5.5844,-5.551,-5.5974,-5.633,-5.6447,-5.6518,-5.6341,-5.5937,-5.5508,-5.5078,-5.4609,-5.332,-5.2695,-5.2676,-5.1797,-5.1406,-5.1367,-5.0547,0.0,-5.0058,-4.832,-4.7598,-4.7519,-4.6641,-4.6308,-4.6308,-4.6308,-4.6308,-4.623,-4.5781,-4.5351,-4.4785,-4.3457,-4.3026,-4.2791,-4.1522,-4.1131,-4.1112,-4.1132,-4.1172,-4.1191,-4.1191,-4.1191,-4.1191,-4.1191,-3.9863,-3.8359,-3.7441,-3.6582,-3.5996,-3.5996,-3.5996,-3.5996,-3.5996,-3.5996,-3.541,-3.3652,-3.3398,-3.2793,-3.1113,-3.0898,-3.0898,-3.0898,-3.0898,-3.0547,-2.9668,-2.9219,-2.8418,-2.707,-2.6602,-2.6387,-2.6387,-2.6777,-2.7207,-2.7676,-2.8086,-2.8086,-2.7676,-2.8964,-2.9394,-2.9003,-3.027,-3.0852,-5.6001,-5.6586,-5.6196,-5.3407,-5.1385,-4.8936,-4.4432,-4.0721,0.0,0.0,-3.3477,-3.2092,-3.2969,-3.3631,-3.4915,0.0,-4.0659,-4.3373,0.0,0.0,0.0,0.0,0.0,0.0,0.0,0.0,0.0,0.0,0.0,0.0,-5.6132,-5.6314,-5.6429,-5.6491,-5.6372,-5.5992,-5.5312,-5.4922,-5.4394,-5.3711,-5.2832,-5.2422,-5.2383,-5.1523,-5.1133,-5.1094,-5.0078,0.0,0.0,-4.7969,-4.7324,-4.7246,-4.6562,-4.6308,-4.6308,-4.6308,-4.6308,-4.6172,-4.5293,-4.4883,-4.4453,-4.291,-4.2402,-4.2245,-4.1445,-4.1152,-4.1132,-4.1191,-4.1191,-4.1191,-4.1191,-4.1191,-4.1113,-4.0723,-3.9609,-3.8125,-3.6387,-3.5996,-3.5996,-3.5996,-3.5996,-3.5996,-3.5996,-3.5996,-3.5469,-3.3906,-3.3516,-3.2851,-3.1367,-3.1016,-3.0898,-3.0898,-3.0898,-3.0625,-2.9941,-2.9707,-2.9023,-2.7637,-2.7383,-2.7285,-2.7285,-2.7461,-2.7871,-2.8574,-2.8769,-2.8769,-2.8574,-2.9453,-2.9785,-2.9629,-3.0488,-3.0897,-5.5591,-5.6528,-5.6899,-5.3543,-5.1396,-4.8765,-4.3681,0.0,-3.6617,-3.4143,-3.218,-3.1191,-3.2053,-3.2287,-3.3164,-3.5713,0.0,-4.0724,0.0,0.0,0.0,0.0,0.0,0.0,0.0,0.0,0.0,0.0,0.0,0.0,-5.6264,-5.6364,-5.6432,-5.6501,-5.5807,-5.5387,-5.5293,-5.373,-5.2891,-5.2812,-5.1933,-5.1523,-5.1484,-5.0683,-5.0312,-5.0215,-4.8555,0.0,0.0,-4.6816,-4.6426,-4.6406,-4.6328,-4.6308,-4.6308,-4.6308,-4.6308,-4.6172,-4.5293,-4.4473,-4.3652,-4.2715,-4.2402,-4.2246,-4.1445,-4.1191,-4.1191,-4.1191,-4.1191,-4.1191,-4.1191,-4.1191,-4.0801,-3.9219,-3.8711,-3.8125,-3.6387,-3.5996,-3.5996,-3.5996,-3.5996,-3.5996,-3.5996,-3.5996,-3.5684,-3.4726,-3.3906,-3.3086,-3.2187,-3.1387,-3.0898,-3.0898,-3.0898,-3.0879,-3.0781,-3.0059,-2.9531,-2.9375,-2.8613,-2.8184,-2.8184,-2.8945,-2.9394,-2.9473,-3.0254,-3.0273,-2.9473,-3.0351,-3.0371,-2.9629,-3.0488,-3.0898,-5.3541,-5.4615,-5.4674,-5.1219,-4.9072,-4.6459,-4.1298,0.0,-3.5116,-3.3036,-3.1648,-3.0919,-3.1244,-3.175,-3.2762,-3.4781,-3.6863,-3.8994,-4.121,0.0,0.0,0.0,0.0,0.0,0.0,0.0,0.0,0.0,0.0,0.0,-5.6239,-5.6329,-5.6429,-5.6493,-5.5727,-5.5308,-5.5293,-5.3574,-5.2695,-5.2695,-5.1816,-5.1406,-5.1367,-5.0566,-5.0195,-5.0098,-4.8359,0.0,0.0,-4.666,-4.6308,-4.6308,-4.6308,-4.6308,-4.6308,-4.6308,-4.6308,-4.6094,-4.4707,-4.3984,-4.3476,-4.2129,-4.168,-4.1621,-4.1308,-4.1191,-4.1191,-4.1191,-4.1191,-4.1191,-4.1191,-4.1191,-4.0762,-3.9004,-3.8594,-3.8125,-3.6387,-3.5996,-3.5996,-3.5996,-3.5996,-3.5996,-3.5996,-3.5996,-3.5703,-3.4824,-3.3965,-3.3105,-3.2305,-3.1445,-3.0898,-3.0898,-3.0898,-3.0898,-3.0898,-3.0586,-3.0156,-2.9629,-2.9277,-2.9082,-2.9082,-2.9414,-2.9844,-3.0371,-3.0723,-3.0723,-3.0371,-3.0723,-3.0723,-3.0391,-3.0742,-3.0898,-5.1143,-5.237,-5.2468,-4.9247,-4.718,-4.4628,0.0,-3.6581,-3.412,-3.2123,-3.1015,-3.0412,-3.0422,-3.0923,-3.1891,-3.3578,-3.5307,-3.7147,-3.9197,-4.0843,0.0,0.0,0.0,0.0,0.0,0.0,0.0,0.0,0.0,0.0,0.0,-5.6036,-5.6028,-5.6109,-5.5331,-5.4799,-5.4531,-5.3066,-5.2324,-5.2305,-5.1699,-5.1406,-5.1367,-5.0293,-4.9824,-4.9726,0.0,0.0,0.0,-4.6543,-4.6308,-4.6308,-4.6308,-4.6308,-4.6308,-4.6308,-4.6133,-4.5703,-4.4219,-4.3535,-4.3086,-4.166,-4.1191,-4.1191,-4.1191,-4.1191,-4.1191,-4.1191,-4.1191,-4.1191,-4.1191,-4.1191,-4.0762,-3.9004,-3.8594,-3.8125,-3.6387,-3.5996,-3.5996,-3.5996,-3.5996,-3.5996,-3.5996,-3.5996,-3.5703,-3.4824,-3.3965,-3.3105,-3.2305,-3.1445,-3.0898,-3.0898,-3.0898,-3.0898,-3.0898,-3.0898,-3.0644,-3.0019,-2.998,-2.998,-2.998,-2.998,-3.0273,-3.0898,-3.0898,-3.0898,-3.0898,-3.0898,-3.0898,-3.0898,-3.0898,-3.0898,-4.8624,-5.0106,-5.0809,-4.825,-4.6303,-4.389,-3.958,-3.6581,-3.3964,-3.1344,-3.0125,-2.9508,-2.9503,-2.9514,-3.011,-3.1835,-3.3539,-3.4948,-3.5824,-3.8879,0.0,0.0,0.0,0.0,0.0,0.0,0.0,0.0,0.0,0.0,0.0,-5.5375,-5.5088,-5.5213,-5.4422,-5.3604,-5.2734,-5.1855,-5.1406,-5.1406,-5.1406,-5.1406,-5.1348,-4.9668,-4.8906,0.0,0.0,0.0,0.0,-4.6308,-4.6308,-4.6308,-4.6308,-4.6308,-4.6308,-4.6308,-4.5742,-4.4883,-4.4004,-4.3144,-4.2285,-4.1465,-4.1191,-4.1191,-4.1191,-4.1191,-4.1191,-4.1191,-4.1191,-4.1191,-4.1191,-4.1191,-4.0762,-3.9004,-3.8594,-3.8125,-3.6387,-3.5996,-3.5996,-3.5996,-3.5996,-3.5996,-3.5996,-3.5996,-3.5703,-3.4824,-3.3965,-3.3105,-3.2305,-3.1445,-3.0898,-3.0898,-3.0898,-3.0898,-3.0898,-3.0898,-3.0898,-3.0898,-3.0898,-3.0898,-3.0898,-3.0898,-3.0898,-3.0898,-3.0898,-3.0898,-3.0898,-3.0898,-3.0898,-3.0898,-3.0898,-3.0898,-4.4922,-4.6147,-4.6554,-4.4548,-4.2325,-3.9791,-3.6654,-3.3945,-3.1699,-3.0272,-2.9292,-2.8681,-2.8673,-2.9128,-2.9872,-3.1025,-3.263,0.0,0.0,0.0,0.0,0.0,0.0,0.0,0.0,0.0,0.0,0.0,0.0,0.0,0.0,-5.4132,-5.4358,-5.5046,-5.3796,-5.2974,-5.2695,-5.1836,-5.1406,-5.1406,-5.1406,-5.1406,-5.1348,-4.9668,0.0,0.0,0.0,0.0,0.0,-4.6308,-4.6308,-4.6308,-4.6308,-4.6308,-4.623,-4.5625,-4.5234,-4.4785,-4.332,-4.2637,-4.2266,-4.1465,-4.1191,-4.1191,-4.1191,-4.1191,-4.1191,-4.1191,-4.1191,-4.1191,-4.1191,-4.1191,-4.0762,-3.9004,-3.8594,-3.8125,-3.6387,-3.5996,-3.5996,-3.5996,-3.5996,-3.5996,-3.5996,-3.5996,-3.5918,-3.5625,-3.4336,-3.3301,-3.3047,-3.1777,-3.0898,-3.0898,-3.0898,-3.0898,-3.0898,-3.0898,-3.0898,-3.0898,-3.0898,-3.0898,-3.0898,-3.0898,-3.0898,-3.0898,-3.0898,-3.0898,-3.0898,-3.0898,-3.0898,-3.0898,-3.0898,-3.0898,-4.0729,-4.2152,-4.2657,-4.0904,-3.9032,-3.7023,-3.4724,-3.2499,-3.0566,-2.9355,-2.8417,-2.7809,-2.7802,-2.8197,-2.8918,-3.0109,-3.1726,-3.3601,0.0,0.0,0.0,0.0,0.0,0.0,0.0,0.0,0.0,0.0,0.0,0.0,0.0,-5.3257,-5.3391,-5.3969,-5.3117,-5.2514,-5.2206,-5.1678,-5.1405,-5.1405,-5.1073,-5.0917,-5.0898,-4.9199,0.0,0.0,0.0,0.0,0.0,-4.6308,-4.6308,-4.6308,-4.6308,-4.6094,-4.5742,-4.5195,-4.457,-4.3867,-4.2773,-4.2207,-4.1855,-4.1367,-4.1191,-4.1191,-4.1191,-4.1191,-4.1191,-4.1191,-4.1191,-4.1191,-4.1191,-4.1191,-4.0762,-3.9004,-3.8594,-3.8125,-3.6387,-3.5996,-3.5996,-3.5996,-3.5996,-3.5996,-3.5996,-3.5996,-3.5898,-3.5566,-3.459,-3.3652,-3.3027,-3.2031,-3.1269,-3.0937,-3.0898,-3.0898,-3.0898,-3.0898,-3.0898,-3.0898,-3.0898,-3.0898,-3.0898,-3.0898,-3.0898,-3.0898,-3.0898,-3.0898,-3.0898,-3.0898,-3.0898,-3.0898,-3.0898,-3.0898,0.0,-3.8157,-3.9133,-3.7511,-3.6401,-3.5271,-3.3592,-3.1914,0.0,-2.8555,-2.7519,-2.6914,-2.691,-2.6954,-2.7539,-2.9225,-3.095,0.0,0.0,0.0,0.0,0.0,0.0,0.0,0.0,0.0,0.0,0.0,0.0,0.0,0.0,-5.2608,-5.222,-5.2206,-5.2394,-5.2133,-5.1394,-5.1395,-5.1395,-5.1376,-5.0516,-5.013,-5.0134,-4.8396,0.0,0.0,0.0,0.0,0.0,-4.6308,-4.6308,-4.6289,-4.623,-4.5703,-4.498,-4.4863,-4.3789,-4.2383,-4.2324,-4.1836,-4.1191,-4.1191,-4.1191,-4.1191,-4.1191,-4.1191,-4.1191,-4.1191,-4.1191,-4.1191,-4.1191,-4.1152,-4.0684,-3.9004,-3.8555,-3.8047,-3.6367,-3.5996,-3.5996,-3.5996,-3.5996,-3.5996,-3.5996,-3.5996,-3.5723,-3.4902,-3.4746,-3.4121,-3.248,-3.2246,-3.1875,-3.0996,-3.0898,-3.0898,-3.0898,-3.0898,-3.0898,-3.0898,-3.0898,-3.0898,-3.0898,-3.0898,-3.0898,-3.0898,-3.0898,-3.0898,-3.0898,-3.0898,-3.0898,-3.0898,-3.0898,-3.0898,-3.2421,0.0,-3.5813,-3.5406,-3.4158,-3.2753,0.0,-3.0156,-2.8613,-2.7539,-2.6602,-2.6015,-2.6013,-2.7035,-2.8244,-2.9338,-3.1507,-3.4125,0.0,0.0,0.0,0.0,0.0,0.0,0.0,0.0,0.0,0.0,0.0,0.0,0.0,-5.1377,-5.1326,-5.1379,-5.1425,-5.139,-5.1242,-5.1242,-5.1242,-5.1242,-5.043,-5.002,-4.9998,-4.835,0.0,0.0,0.0,0.0,-4.6308,-4.6308,-4.6308,-4.623,-4.5566,-4.5176,-4.4844,-4.3496,-4.2754,-4.2305,-4.1699,-4.1367,-4.1191,-4.1191,-4.1191,-4.1191,-4.1191,-4.1191,-4.1191,-4.1191,-4.1191,-4.1191,-4.1191,-4.0703,-3.9922,-3.8867,-3.8086,-3.7305,-3.623,-3.5996,-3.5996,-3.5996,-3.5996,-3.5996,-3.5996,-3.5996,-3.5937,-3.5723,-3.5137,-3.4316,-3.3242,-3.2578,-3.1875,-3.0996,-3.0898,-3.0898,-3.0898,-3.0898,-3.0898,-3.0898,-3.0898,-3.0898,-3.0898,-3.0898,-3.0898,-3.0898,-3.0898,-3.0898,-3.0898,-3.0898,-3.0898,-3.0898,-3.0898,-3.0898,-3.1035,-3.246,-3.3924,-3.3143,-3.2246,-3.1328,-3.0488,-2.8945,-2.7578,-2.7109,-2.6309,-2.582,-2.6229,-2.7334,-2.8628,-2.9887,-3.2258,0.0,0.0,0.0,0.0,0.0,0.0,0.0,0.0,0.0,0.0,0.0,0.0,0.0,0.0,-5.0921,-5.0978,-5.1022,-5.1016,-5.1068,-5.1209,-5.1189,-5.0999,-5.059,-4.9784,-4.9217,-4.8803,-4.7531,-4.6963,0.0,0.0,0.0,-4.6308,-4.6308,-4.6055,-4.5664,-4.5176,-4.4512,-4.3691,-4.2754,-4.2168,-4.1797,-4.1348,-4.1191,-4.1191,-4.1191,-4.1191,-4.1191,-4.1191,-4.1191,-4.1191,-4.1191,-4.1191,-4.1113,-4.0703,-4.0254,-3.957,-3.8301,-3.7637,-3.7051,-3.6191,-3.5996,-3.5996,-3.5996,-3.5996,-3.5996,-3.5996,-3.5996,-3.5996,-3.5996,-3.5605,-3.4844,-3.3555,-3.3027,-3.2285,-3.1035,-3.0898,-3.0898,-3.0898,-3.0898,-3.0898,-3.0898,-3.0898,-3.0898,-3.0898,-3.0898,-3.0898,-3.0898,-3.0898,-3.0898,-3.0898,-3.0898,-3.0898,-3.0898,-3.0898,-3.1113,-3.0859,-3.2031,-3.2832,-3.1289,-3.0996,-3.084,-2.9824,-2.8457,-2.7363,-2.7226,-2.6602,-2.6367,-2.7245,-2.8041,0.0,0.0,0.0,0.0,0.0,0.0,0.0,0.0,0.0,0.0,0.0,0.0,0.0,0.0,0.0,0.0,0.0,-5.0589,-5.0511,-5.0511,-5.0511,-5.0595,-5.0761,-5.0903,-5.0592,-4.9858,-4.8929,-4.8117,-4.7434,-4.6579,-4.6222,0.0,0.0,0.0,-4.6289,-4.6152,-4.5664,-4.4961,-4.4707,-4.3691,-4.2383,-4.2266,-4.1797,-4.1191,-4.1191,-4.1191,-4.1191,-4.1191,-4.1191,-4.1191,-4.1191,-4.1191,-4.1191,-4.1191,-4.1191,-4.0996,-4.0137,-3.9805,-3.9297,-3.7676,-3.7207,-3.6894,-3.6152,-3.5996,-3.5996,-3.5996,-3.5996,-3.5996,-3.5996,-3.5996,-3.5996,-3.5996,-3.5996,-3.543,-3.3809,-3.3476,-3.2812,-3.1269,-3.0976,-3.0898,-3.0898,-3.0898,-3.0898,-3.0898,-3.0898,-3.0898,-3.0898,-3.1035,-3.1035,-3.0898,-3.1035,-3.1035,-3.0898,-3.0898,-3.0898,-3.0898,-3.1035,-3.1484,-3.0703,-3.1621,-3.2148,-3.1152,-3.1445,-3.1582,-2.9961,-2.9394,-2.8984,-2.8242,-2.7988,-2.8164,-2.9042,-2.9861,-3.1204,0.0,0.0,0.0,0.0,0.0,0.0,0.0,0.0,0.0,0.0,0.0,0.0,0.0,0.0,0.0,0.0,-4.9184,-4.8778,-4.8778,-4.8778,-4.8793,-4.8836,-4.9565,-4.9855,-4.9701,-4.816,-4.7373,-4.7218,-4.647,-4.6147,0.0,0.0,-4.6306,-4.623,-4.5508,-4.5117,-4.4844,-4.3379,-4.2637,-4.2324,-4.1641,-4.1308,-4.1191,-4.1191,-4.1191,-4.1191,-4.1191,-4.1191,-4.1191,-4.1191,-4.1191,-4.1191,-4.1191,-4.1191,-4.0996,-4.0137,-3.9355,-3.8555,-3.7539,-3.6738,-3.6152,-3.6035,-3.5996,-3.5996,-3.5996,-3.5996,-3.5996,-3.5996,-3.5996,-3.5996,-3.5996,-3.5996,-3.5644,-3.4629,-3.3867,-3.3047,-3.2109,-3.1348,-3.0898,-3.0898,-3.0898,-3.0898,-3.0898,-3.0898,-3.0898,-3.0898,-3.1601,-3.1641,-3.0918,-3.1621,-3.1641,-3.0898,-3.0898,-3.0898,-3.0918,-3.166,-3.207,-3.0664,-3.1191,-3.1504,-3.1582,-3.2226,-3.2519,-3.1289,-3.0644,-3.0195,-2.9785,-2.9707,0.0,0.0,0.0,-3.4061,-3.7634,0.0,0.0,0.0,0.0,0.0,0.0,0.0,0.0,0.0,0.0,0.0,0.0,0.0,0.0,0.0,0.0,-4.8392,-4.8392,-4.8392,-4.8392,-4.8392,-4.8333,-4.8295,-4.8295,-4.7558,-4.6958,-4.6538,-4.6231,-4.6141,-4.6206,0.0,-4.6003,-4.5564,-4.5173,-4.4432,-4.3515,-4.2713,-4.2108,-4.1659,-4.1288,-4.1152,-4.1152,-4.1191,-4.1191,-4.1191,-4.1191,-4.1191,-4.1191,-4.1191,-4.1191,-4.1191,-4.1191,-4.0859,-4.0293,-3.9414,-3.8555,-3.7676,-3.6797,-3.6289,-3.5996,-3.5996,-3.5996,-3.5996,-3.5996,-3.5996,-3.5996,-3.5996,-3.5996,-3.5996,-3.5996,-3.5996,-3.5684,-3.4805,-3.4355,-3.3613,-3.2344,-3.1836,-3.1406,-3.0937,-3.0898,-3.0898,-3.0898,-3.0898,-3.0898,-3.0898,-3.1738,-3.1797,-3.0918,-3.1758,-3.1777,-3.0898,-3.0898,-3.0898,-3.0918,-3.1309,-3.1973,-3.0351,-3.0605,-3.0801,-3.168,-3.2656,-3.3242,-3.2617,-3.2129,-3.1797,-3.1797,-3.1953,0.0,0.0,-3.4785,0.0,0.0,0.0,0.0,0.0,0.0,0.0,0.0,0.0,0.0,0.0,0.0,0.0,0.0,0.0,0.0,0.0,0.0,-4.7792,-4.7792,-4.7792,-4.7792,-4.7792,-4.7134,-4.6902,-4.7096,-4.6957,-4.6552,-4.5968,-4.6025,-4.6093,-4.6138,-4.5942,-4.5521,-4.4922,-4.4535,-4.3584,-4.2358,-4.2161,-4.1694,-4.1109,-4.1108,-4.1109,-4.1111,-4.1172,-4.1191,-4.1191,-4.1191,-4.1191,-4.1191,-4.1191,-4.1191,-4.1191,-4.1191,-4.043,-3.9434,-3.8769,-3.7949,-3.707,-3.6211,-3.5996,-3.5996,-3.5996,-3.5996,-3.5996,-3.5996,-3.5996,-3.5996,-3.5996,-3.5996,-3.5996,-3.5996,-3.5996,-3.5762,-3.5098,-3.4824,-3.4121,-3.2637,-3.2305,-3.1855,-3.0976,-3.0898,-3.0898,-3.0898,-3.0898,-3.0898,-3.0898,-3.1914,-3.207,-3.1211,-3.2246,-3.2266,-3.1191,-3.1191,-3.1094,-3.0898,-3.1113,-3.1992,-2.9453,-2.9687,-2.9902,-3.0781,-3.2207,-3.3379,-3.332,-3.3887,-3.4434,-3.4434,-3.5078,0.0,0.0,-3.8359,0.0,0.0,0.0,0.0,0.0,0.0,0.0,0.0,0.0,0.0,0.0,0.0,0.0,0.0,0.0,0.0,0.0,0.0,0.0,-4.6,-4.6,-4.6,-4.6,-4.5923,-4.631,-4.7096,-4.6271,-4.5872,-4.5821,-4.5873,-4.5958,-4.5964,-4.5213,-4.4869,-4.4699,-4.3146,-4.2424,-4.2226,-4.1488,-4.1158,-4.1099,-4.1094,-4.11,-4.1108,-4.1171,-4.1191,-4.1191,-4.1191,-4.1191,-4.1191,-4.1191,-4.1191,-4.1191,-4.1191,-3.998,-3.8672,-3.8613,-3.7949,-3.707,-3.6211,-3.5996,-3.5996,-3.5996,-3.5996,-3.5996,-3.5996,-3.5996,-3.5996,-3.5996,-3.5996,-3.5996,-3.5996,-3.5996,-3.5976,-3.5918,-3.5195,-3.4336,-3.3418,-3.2656,-3.1855,-3.0976,-3.0898,-3.0898,-3.0898,-3.0898,-3.0898,-3.0898,-3.2441,-3.293,-3.2129,-3.3691,-3.3711,-3.2109,-3.2109,-3.1699,-3.0918,-3.1738,-3.2578,-3.0176,-3.0019,-3.0059,-3.1973,-3.293,-3.3672,-3.4766,-3.6113,-3.7285,-3.7812,-3.8633,0.0,0.0,0.0,0.0,0.0,0.0,0.0,0.0,0.0,0.0,0.0,0.0,0.0,0.0,0.0,0.0,0.0,0.0,0.0,0.0,0.0,0.0,-4.5807,-4.5807,-4.5807,-4.5807,-4.5807,-4.5981,-4.629,-4.5962,-4.5807,-4.5807,-4.5874,-4.564,-4.5179,-4.4866,-4.4154,-4.3132,-4.2533,-4.198,-4.1464,-4.1152,-4.1046,-4.1035,-4.1046,-4.106,-4.1094,-4.113,-4.1132,-4.1132,-4.1191,-4.1191,-4.1191,-4.1191,-4.1191,-4.1094,-4.0547,-3.9531,-3.8594,-3.8594,-3.7559,-3.6406,-3.6074,-3.5996,-3.5996,-3.5996,-3.5996,-3.5996,-3.5996,-3.5996,-3.5996,-3.5996,-3.5996,-3.5996,-3.5996,-3.5996,-3.5996,-3.5996,-3.5703,-3.4961,-3.3555,-3.2207,-3.1269,-3.0937,-3.0898,-3.0898,-3.0898,-3.0898,-3.0898,-3.0898,-3.2519,-3.3027,-3.2226,-3.3848,-3.4121,-3.2949,-3.2441,-3.2031,-3.1699,-3.1484,-3.2109,-3.0332,-3.0059,-3.0078,-3.2109,-3.3223,-3.4277,-3.6016,-3.7754,-3.9258,-4.0137,-4.1211,-4.1719,-4.0859,0.0,0.0,0.0,0.0,0.0,0.0,0.0,0.0,0.0,0.0,0.0,0.0,0.0,0.0,0.0,0.0,0.0,0.0,0.0,0.0,0.0,-4.5807,-4.5807,-4.5807,-4.5807,-4.5671,-4.5413,-4.5691,-4.5807,-4.5807,-4.5854,-4.5422,-4.4645,-4.4378,-4.3441,-4.2126,-4.19,-4.1485,-4.0967,-4.0977,-4.0964,-4.097,-4.0968,-4.1014,-4.1064,-4.1081,-4.1108,-4.1111,-4.1172,-4.1191,-4.1191,-4.1191,-4.1016,-4.0664,-4.0078,-3.9062,-3.8184,-3.8184,-3.7109,-3.5996,-3.5996,-3.5996,-3.5996,-3.5996,-3.5996,-3.5996,-3.5996,-3.5996,-3.5996,-3.5996,-3.5996,-3.5996,-3.5996,-3.5996,-3.5996,-3.5996,-3.5996,-3.5332,-3.3594,-3.2148,-3.1191,-3.0918,-3.0898,-3.0898,-3.0898,-3.0898,-3.0898,-3.0898,-3.2519,-3.3144,-3.2598,-3.4258,-3.4687,-3.3809,-3.3262,-3.2851,-3.2559,-3.1973,-3.2441,-2.9609,-2.9609,-2.9824,-3.0703,-3.2832,-3.5156,-3.6914,-3.8672,-4.0176,-4.1074,-4.2558,-4.3457,-4.2578,0.0,0.0,0.0,0.0,0.0,0.0,0.0,0.0,0.0,0.0,0.0,0.0,0.0,0.0,0.0,0.0,0.0,0.0,0.0,0.0,0.0,-4.5807,-4.5807,-4.5807,-4.5807,-4.5394,-4.4613,-4.5413,-4.5787,-4.5787,-4.5787,-4.5355,-4.4536,-4.3672,-4.2783,-4.1938,-4.1133,-4.084,-4.0904,-4.0897,-4.0902,-4.0904,-4.0897,-4.0945,-4.1,-4.1076,-4.1099,-4.1108,-4.1172,-4.1191,-4.1191,-4.1191,-4.0586,-3.9902,-3.9883,-3.8633,-3.7305,-3.7285,-3.6641,-3.5996,-3.5996,-3.5996,-3.5996,-3.5996,-3.5996,-3.5996,-3.5996,-3.5996,-3.5996,-3.5996,-3.5996,-3.5996,-3.5996,-3.5996,-3.5996,-3.5996,-3.5996,-3.5332,-3.3594,-3.2695,-3.1855,-3.0996,-3.0898,-3.0898,-3.0898,-3.0898,-3.0898,-3.0898,-3.2519,-3.3398,-3.3398,-3.5117,-3.5586,-3.4707,-3.4707,-3.4258,-3.3418,-3.3398,-3.3867,-2.9609,-3.0059,0.0,-3.2305,0.0,0.0,0.0,-4.0,-4.2246,0.0,-4.4707,-4.4355,-4.3476,0.0,0.0,0.0,0.0,0.0,0.0,0.0,0.0,0.0,0.0,0.0,0.0,0.0,0.0,0.0,0.0,0.0,0.0,0.0,0.0,0.0,-4.5807,-4.5807,-4.5807,-4.5807,-4.5394,-4.4594,-4.4833,-4.4968,-4.4968,-4.4968,-4.4485,-4.3634,-4.2763,-4.1912,-4.1151,-4.0898,-4.0819,-4.0829,-4.0835,-4.0835,-4.0829,-4.0835,-4.0891,-4.1006,-4.1022,-4.1051,-4.1104,-4.1171,-4.1191,-4.1191,-4.1191,-4.0586,-3.9766,-3.916,-3.8164,-3.7168,-3.6543,-3.6191,-3.5996,-3.5996,-3.5996,-3.5996,-3.5996,-3.5996,-3.5996,-3.5996,-3.5996,-3.5996,-3.5996,-3.5996,-3.5996,-3.5996,-3.5996,-3.5996,-3.5996,-3.5469,-3.4883,-3.4375,-3.3047,-3.2109,-3.1836,-3.125,-3.0898,-3.0898,-3.0898,-3.0898,-3.0898,-3.2519,-3.3398,-3.3398,-3.5117,-3.5879,-3.5605,-3.5,-3.457,-3.4297,-3.3691,-3.3867,-2.9512,-3.0488,0.0,-3.3066,-3.457,-3.6582,-3.9883,0.0,0.0,0.0,0.0,-4.5254,0.0,0.0,0.0,0.0,0.0,0.0,0.0,0.0,0.0,0.0,0.0,0.0,0.0,0.0,0.0,0.0,0.0,0.0,0.0,0.0,0.0,0.0,-4.5807,-4.5807,-4.5807,-4.5471,-4.491,-4.4072,-4.4072,-4.3904,-4.3576,-4.3924,-4.3614,-4.2744,-4.1893,-4.1255,-4.0797,-4.0792,-4.0804,-4.0792,-4.0809,-4.0804,-4.0792,-4.079,-4.0878,-4.0964,-4.0992,-4.1035,-4.1119,-4.1171,-4.1191,-4.1191,-4.1191,-4.0351,-3.9277,-3.875,-3.7715,-3.666,-3.6133,-3.5996,-3.5996,-3.5996,-3.5996,-3.5996,-3.5996,-3.5996,-3.5996,-3.5996,-3.5996,-3.5996,-3.5996,-3.5996,-3.5996,-3.5996,-3.5996,-3.5996,-3.5996,-3.5547,-3.5078,-3.4746,-3.3809,-3.3047,-3.2715,-3.2207,-3.1758,-3.1445,-3.1426,-3.1269,-3.0918,-3.2207,-3.3066,-3.3398,-3.4766,-3.5644,-3.5996,-3.5469,-3.5215,-3.5195,-3.4687,-3.4707,-2.9219,-3.0742,0.0,-3.3184,-3.543,0.0,-4.2734,-4.3691,-4.4199,-4.5937,0.0,0.0,0.0,0.0,0.0,0.0,0.0,0.0,0.0,0.0,0.0,0.0,0.0,0.0,0.0,0.0,0.0,0.0,0.0,0.0,0.0,0.0,0.0,-4.5575,-4.5575,-4.5575,-4.5575,-4.4852,-4.4033,0.0,-4.3189,-4.2725,-4.1912,-4.2783,-4.2705,-4.1854,-4.1126,-4.0797,-4.0797,-4.0797,-4.0797,-4.0797,-4.0797,-4.0797,-4.0797,-4.0797,-4.0834,-4.0917,-4.0963,-4.105,-4.1112,-4.117,-4.1191,-4.1172,-4.1094,-3.9922,-3.8574,-3.8496,-3.7285,-3.5996,-3.5996,-3.5996,-3.5996,-3.5996,-3.5996,-3.5996,-3.5996,-3.5996,-3.5996,-3.5996,-3.5996,-3.5996,-3.5996,-3.5996,-3.5996,-3.5996,-3.6074,-3.6094,-3.6016,-3.6074,-3.5781,-3.4902,-3.4746,-3.4375,-3.3594,-3.3457,-3.3086,-3.2363,-3.2246,-3.1836,-3.1055,-3.1777,-3.2539,-3.3281,-3.4141,-3.4961,-3.5762,-3.584,-3.5879,-3.5879,-3.5957,-3.5996,-2.8164,-2.9844,0.0,0.0,-3.5879,-3.9277,-4.2871,-4.3691,-4.4199,-4.5937,0.0,0.0,0.0,0.0,0.0,0.0,0.0,0.0,0.0,0.0,0.0,0.0,0.0,0.0,0.0,0.0,0.0,0.0,0.0,0.0,0.0,0.0,0.0,-4.3846,-4.3846,-4.3846,-4.3846,-4.3672,-4.315,0.0,-4.228,-4.1854,-4.1087,-4.1912,-4.1835,-4.1048,-4.0874,-4.0797,-4.0797,-4.0797,-4.0797,-4.0797,-4.0797,-4.0797,-4.0797,-4.0797,-4.0837,-4.0908,-4.0926,-4.1009,-4.1092,-4.1127,-4.1112,-4.0995,-4.0371,-3.9434,-3.8457,-3.7773,-3.6816,-3.5996,-3.5996,-3.5996,-3.5996,-3.5996,-3.5996,-3.5996,-3.5996,-3.5996,-3.5996,-3.5996,-3.5996,-3.5996,-3.5996,-3.5996,-3.5996,-3.5996,-3.6582,-3.6777,-3.6094,-3.6601,-3.6699,-3.5801,-3.5117,-3.4629,-3.4434,-3.3789,-3.332,-3.3144,-3.2559,-3.2129,-3.1934,-3.2109,-3.2285,-3.2441,-3.3262,-3.3769,-3.3965,-3.4648,-3.498,-3.5,-3.5684,-3.5996,-2.7715,0.0,0.0,-3.5156,0.0,-3.9394,-4.2383,-4.3086,-4.3457,0.0,0.0,0.0,0.0,0.0,0.0,0.0,0.0,0.0,0.0,0.0,0.0,0.0,0.0,0.0,0.0,0.0,0.0,0.0,0.0,0.0,0.0,-4.3073,-4.3305,-4.3305,-4.3305,-4.3305,-4.3305,-4.2899,-4.2454,-4.2009,-4.1603,-4.1222,-4.0816,-4.1235,-4.1203,-4.0797,-4.0797,-4.0797,-4.0797,-4.0797,-4.0797,-4.0797,-4.0797,-4.0797,-4.0797,-4.0797,-4.0825,-4.0858,-4.0881,-4.0967,-4.1067,-4.1094,-4.0814,-4.0407,-4.0019,-3.9004,-3.7871,-3.7422,-3.668,-3.5996,-3.5996,-3.5996,-3.5996,-3.5996,-3.5996,-3.5996,-3.5996,-3.5996,-3.5996,-3.5996,-3.5996,-3.5996,-3.5996,-3.5996,-3.5996,-3.5996,-3.6387,-3.6504,-3.6055,-3.6406,-3.6504,-3.6055,-3.5586,-3.5312,-3.5312,-3.4902,-3.4473,-3.4043,-3.3633,-3.3047,-3.2226,-3.2578,-3.2598,-3.2207,-3.2617,-3.3223,-3.4023,-3.4473,-3.4902,-3.5332,-3.5781,-3.5996,-2.7363,0.0,-3.332,-3.7187,-3.8379,0.0,-4.1641,-4.2305,0.0,0.0,0.0,0.0,0.0,0.0,0.0,0.0,0.0,0.0,0.0,0.0,0.0,0.0,0.0,0.0,0.0,0.0,0.0,0.0,0.0,0.0,-4.1835,-4.2473,-4.2879,-4.2879,-4.2879,-4.2879,-4.2879,-4.2144,-4.1796,-4.1777,-4.1126,-4.0797,-4.0797,-4.0797,-4.0797,-4.0797,-4.0797,-4.0797,-4.0797,-4.0797,-4.0797,-4.0797,-4.0797,-4.0797,-4.0797,-4.0797,-4.0794,-4.0807,-4.0864,-4.0937,-4.099,-4.1053,-4.0606,-3.9973,-3.9745,-3.8672,-3.7461,-3.7168,-3.6562,-3.5996,-3.5996,-3.5996,-3.5996,-3.5996,-3.5996,-3.5996,-3.5996,-3.5996,-3.5996,-3.5996,-3.6113,-3.6211,-3.6211,-3.6348,-3.6406,-3.625,-3.6348,-3.6348,-3.6035,-3.6133,-3.6172,-3.6016,-3.5996,-3.5996,-3.5996,-3.5996,-3.5684,-3.4961,-3.4785,-3.4082,-3.2695,-3.3125,-3.3027,-3.2226,-3.2207,-3.2871,-3.4277,-3.4414,-3.4922,-3.5781,-3.5937,-3.5996,0.0,0.0,-3.373,0.0,-3.748,-3.9082,0.0,0.0,0.0,0.0,0.0,0.0,0.0,0.0,0.0,0.0,0.0,0.0,0.0,0.0,0.0,0.0,0.0,0.0,0.0,0.0,0.0,0.0,0.0,0.0,-4.0971,-4.1067,-4.1126,-4.1126,-4.1126,-4.1126,-4.1126,-4.1029,-4.0971,-4.0971,-4.0855,-4.0797,-4.0797,-4.0797,-4.0797,-4.0797,-4.0797,-4.0797,-4.0797,-4.0797,-4.0797,-4.0797,-4.0797,-4.0797,-4.0797,-4.0797,-4.0796,-4.0792,-4.0809,-4.0854,-4.0918,-4.0986,-4.0975,-4.0656,-3.921,-3.8609,-3.8102,-3.66,-3.6093,-3.5995,-3.5996,-3.5996,-3.5996,-3.5996,-3.5996,-3.5996,-3.5996,-3.5996,-3.5996,-3.5996,-3.6601,-3.7129,-3.7129,-3.7754,-3.8008,-3.7246,-3.7773,-3.7715,-3.6191,-3.666,-3.6836,-3.6074,-3.5996,-3.5996,-3.5996,-3.5996,-3.5957,-3.582,-3.5117,-3.4609,-3.4375,-3.373,-3.3027,-3.2226,-3.2207,-3.2305,-3.2539,-3.3223,-3.4023,-3.4883,-3.5644,-3.5996,-2.6758,-2.9824,-3.2637,0.0,-3.6582,-3.7734,0.0,0.0,0.0,0.0,0.0,0.0,0.0,0.0,0.0,0.0,0.0,0.0,0.0,0.0,0.0,0.0,0.0,0.0,0.0,0.0,0.0,0.0,0.0,-4.0797,-4.0797,-4.0797,-4.0797,-4.0797,-4.0797,-4.0797,-4.0797,-4.0797,-4.0797,-4.0797,-4.0797,-4.0797,-4.0797,-4.0797,-4.0797,-4.0797,-4.0797,-4.0797,-4.0797,-4.0797,-4.0797,-4.0797,-4.0797,-4.0797,-4.0797,-4.0797,-4.0803,-4.0796,-4.0806,-4.0818,-4.0859,-4.0918,-4.0623,-4.0123,-3.9436,-3.8906,-3.8372,-3.7623,-3.7083,-3.6736,-3.6738,-3.6367,-3.5996,-3.5996,-3.5996,-3.5996,-3.5996,-3.5996,-3.5996,-3.5996,-3.6699,-3.7305,-3.7305,-3.8027,-3.8301,-3.7422,-3.7637,-3.7422,-3.6152,-3.6328,-3.6426,-3.6035,-3.5996,-3.5996,-3.5996,-3.5996,-3.5996,-3.5996,-3.5643,-3.5213,-3.4725,-3.4803,-3.4237,-3.291,-3.2422,-3.2422,-3.2871,-3.3223,-3.4101,-3.5449,-3.582,-3.5996,0.0,0.0,-3.1504,-3.4062,-3.5195,-3.623,0.0,0.0,0.0,0.0,0.0,0.0,0.0,0.0,0.0,0.0,0.0,0.0,0.0,0.0,0.0,0.0,0.0,0.0,0.0,0.0,0.0,0.0,0.0,-4.0797,-4.0797,-4.0797,-4.0797,-4.0797,-4.0797,-4.0797,-4.0797,-4.0784,-4.0759,-4.0759,-4.0752,-4.0752,-4.0752,-4.0752,-4.0752,-4.0752,-4.079,-4.0797,-4.0797,-4.0797,-4.0797,-4.0797,-4.0797,-4.0797,-4.0797,-4.0797,-4.0797,-4.0797,-4.0797,-4.0794,-4.0807,-4.0859,-4.0455,-3.991,-3.9753,-3.9279,-3.8761,-3.8555,-3.7908,-3.7275,-3.7303,-3.664,-3.5996,-3.5996,-3.5996,-3.5996,-3.5996,-3.5996,-3.5996,-3.5996,-3.6875,-3.7637,-3.7637,-3.8535,-3.8965,-3.8086,-3.7969,-3.7578,-3.6465,-3.6328,-3.625,-3.6016,-3.5996,-3.5996,-3.5996,-3.5996,-3.5995,-3.5993,-3.5988,-3.5671,-3.5027,-3.5847,-3.5498,-3.3765,-3.3358,-3.3359,-3.373,-3.373,-3.4512,-3.5996,-3.5996,-3.5996,0.0,-2.8301,0.0,-3.1113,0.0,0.0,0.0,0.0,0.0,0.0,0.0,0.0,0.0,0.0,0.0,0.0,0.0,0.0,0.0,0.0,0.0,0.0,0.0,0.0,0.0,0.0,0.0,0.0,0.0,-4.0797,-4.0797,-4.0797,-4.0797,-4.0797,-4.0797,-4.0797,-4.0797,-4.0739,-4.07,-4.07,-4.0635,-4.0614,-4.0614,-4.0614,-4.0614,-4.0621,-4.0746,-4.0797,-4.0797,-4.0797,-4.0797,-4.0797,-4.0797,-4.0797,-4.0797,-4.0797,-4.0797,-4.0797,-4.0797,-4.0796,-4.0812,-4.0809,-4.083,-4.0688,-3.9933,-3.9668,-3.9478,-3.8702,-3.7864,-3.7216,-3.7275,-3.6655,-3.5992,-3.5992,-3.5992,-3.5993,-3.5996,-3.5996,-3.5996,-3.5996,-3.7363,-3.8535,-3.8535,-3.9941,-4.0762,-3.9902,-3.9766,-3.9141,-3.7441,-3.7226,-3.6914,-3.6094,-3.5996,-3.5996,-3.5996,-3.5996,-3.5993,-3.6006,-3.5946,-3.5871,-3.5832,-3.6672,-3.6348,-3.4665,-3.5403,-3.5429,-3.4629,-3.4629,-3.5098,-3.5996,-3.5996,-3.5996,0.0,0.0,0.0,-2.8945,-3.0762,0.0,0.0,0.0,0.0,0.0,0.0,0.0,0.0,0.0,0.0,0.0,0.0,0.0,0.0,0.0,0.0,0.0,0.0,0.0,0.0,0.0,0.0,0.0,0.0,0.0,-4.0797,-4.0797,-4.0797,-4.0797,-4.0797,-4.0784,-4.0739,-4.0707,-4.0687,-4.0647,-4.0614,-4.0595,-4.0595,-4.0595,-4.0595,-4.0595,-4.0661,-4.0668,-4.0668,-4.0668,-4.0668,-4.061,-4.0095,-4.0237,-4.0662,-4.0101,-4.0269,-4.0797,-4.0797,-4.0803,-4.0796,-4.0794,-4.0812,-4.079,-4.0497,-4.0417,-4.0344,-4.0104,-3.9033,-3.7974,-3.8007,-3.6943,-3.5873,-3.5873,-3.5873,-3.5875,-3.5861,-3.5944,-3.5994,-3.5994,-3.7401,-3.8593,-3.8593,-4.0058,-4.0703,-3.9277,-3.9062,-3.8437,-3.6699,-3.6465,-3.6348,-3.6035,-3.5996,-3.5996,-3.5995,-3.5995,-3.5991,-3.5992,-3.5906,-3.586,-3.5892,-3.6156,-3.6033,-3.5477,-3.5773,-3.5537,-3.4706,-3.4707,-3.5156,-3.5996,-3.5996,-3.5995,-2.2441,0.0,0.0,0.0,0.0,0.0,0.0,0.0,0.0,0.0,0.0,0.0,0.0,0.0,0.0,0.0,0.0,0.0,0.0,0.0,0.0,0.0,0.0,0.0,0.0,0.0,0.0,0.0,0.0,0.0,-4.0352,-4.0333,-4.0191,-3.9895,-3.9895,-4.0018,-4.0255,-4.0242,-4.0344,-4.0593,-4.0289,-4.0167,-4.0147,-3.9858,-3.9723,-3.9723,-3.9723,-4.0065,-4.0595,-4.0595,-4.0595,-4.0518,-3.9707,-3.9914,-4.0564,-3.9709,-3.9979,-4.0778,-4.079,-4.0797,-4.0797,-4.0797,-4.0797,-4.0797,-4.0797,-4.0794,-4.0801,-4.0859,-3.9868,-3.8739,-3.8471,-3.7118,-3.5797,-3.5797,-3.5797,-3.5797,-3.5797,-3.5867,-3.5936,-3.5961,-3.7374,-3.857,-3.8591,-4.0058,-4.0703,-3.9258,-3.9043,-3.8418,-3.666,-3.6699,-3.6659,-3.6054,-3.6269,-3.6327,-3.6013,-3.5993,-3.5986,-3.5974,-3.612,-3.6096,-3.5841,-3.6301,-3.6332,-3.5837,-3.6125,-3.5869,-3.5079,-3.5114,-3.5429,-3.5995,-3.5995,-3.5994,0.0,0.0,0.0,0.0,0.0,0.0,0.0,0.0,0.0,0.0,0.0,0.0,0.0,0.0,0.0,0.0,0.0,0.0,0.0,0.0,0.0,0.0,0.0,0.0,0.0,0.0,0.0,0.0,0.0,-4.0352,-3.9445,-3.9387,-3.8962,-3.8125,-3.8106,-3.8511,-3.936,-3.9319,-3.9721,-4.0511,-3.9684,-3.9284,-3.9227,-3.8392,-3.8007,-3.8007,-3.8007,-3.8955,-4.053,-4.0549,-4.0588,-4.0511,-3.9681,-3.9874,-4.0498,-3.9663,-3.9921,-4.07,-4.0778,-4.079,-4.079,-4.079,-4.079,-4.079,-4.079,-4.079,-4.0787,-4.0784,-4.0209,-3.9403,-3.8599,-3.7136,-3.5856,-3.5836,-3.5836,-3.5817,-3.5797,-3.5785,-3.5814,-3.5882,-3.731,-3.8517,-3.8587,-4.0038,-4.0898,-4.0,-3.9863,-3.9237,-3.7498,-3.8023,-3.7904,-3.6186,-3.6772,-3.6947,-3.6069,-3.6007,-3.5973,-3.5892,-3.6584,-3.6604,-3.5723,-3.7226,-3.7318,-3.5723,-3.6537,-3.6588,-3.5807,-3.5931,-3.5991,-3.5991,-3.5994,-3.5992,-2.0799,0.0,0.0,0.0,0.0,0.0,0.0,0.0,0.0,0.0,0.0,0.0,0.0,0.0,0.0,0.0,0.0,0.0,0.0,0.0,0.0,0.0,0.0,0.0,0.0,0.0,0.0,0.0,-4.0127,-3.9663,-3.9406,-3.8807,-3.8344,-3.8106,-3.8106,-3.8228,-3.8458,-3.9015,-3.9109,-3.8715,-3.9111,-3.8977,-3.8354,-3.8104,-3.8007,-3.8007,-3.8007,-3.8272,-3.8775,-3.9391,-4.0007,-4.0392,-3.8948,-3.929,-4.0436,-3.8985,-3.9372,-4.0628,-4.0661,-4.0661,-4.0661,-4.0661,-4.0661,-4.0661,-4.0661,-4.0668,-4.0662,-4.0655,-4.0082,-3.9257,-3.8406,-3.7831,-3.7309,-3.6671,-3.6516,-3.6367,-3.5773,-3.5653,-3.5698,-3.5866,-3.7313,-3.8508,-3.853,-3.9971,-4.0622,-3.9176,-3.8963,-3.8338,-3.6579,-3.7124,-3.722,-3.6128,-3.6772,-3.6944,-3.6077,-3.5992,-3.5951,-3.583,-3.6518,-3.6532,-3.5653,-3.6611,-3.6688,-3.5648,-3.5907,-3.5978,-3.5803,-3.589,-3.595,-3.5999,-3.6005,-3.6004,-2.15,-2.2008,0.0,0.0,0.0,0.0,0.0,0.0,0.0,0.0,0.0,0.0,0.0,0.0,0.0,0.0,0.0,0.0,0.0,0.0,0.0,0.0,0.0,0.0,0.0,0.0,0.0,-3.9617,-3.9128,-3.8704,-3.8325,-3.7501,-3.7018,-3.7018,-3.7018,-3.7178,-3.7511,-3.7986,-3.8145,-3.8007,-3.8142,-3.795,-3.745,-3.7103,-3.6969,-3.6969,-3.6969,-3.7161,-3.7507,-3.8007,-3.87,-3.9361,-3.8373,-3.8618,-3.9391,-3.845,-3.8933,-4.0104,-4.0472,-4.0595,-4.0595,-4.0595,-4.0595,-4.0595,-4.0595,-4.0595,-4.0595,-4.0595,-4.0028,-3.9288,-3.8768,-3.8105,-3.743,-3.691,-3.655,-3.617,-3.5694,-3.5598,-3.5631,-3.5758,-3.7183,-3.8393,-3.8458,-3.9903,-4.0607,-3.9303,-3.9113,-3.8647,-3.7258,-3.7821,-3.7879,-3.6669,-3.7312,-3.7327,-3.6061,-3.6261,-3.6401,-3.6304,-3.6983,-3.7016,-3.6147,-3.6524,-3.637,-3.5565,-3.5602,-3.5646,-3.5718,-3.5811,-3.5916,-3.6007,-3.5994,-3.5995,-2.3101,-2.3101,-2.3101,0.0,0.0,0.0,-2.5057,-2.5487,0.0,0.0,0.0,0.0,0.0,0.0,0.0,0.0,0.0,0.0,0.0,0.0,0.0,0.0,0.0,0.0,0.0,-3.8099,-3.8079,-3.8097,-3.8009,-3.7585,-3.6703,-3.5925,-3.55,-3.55,-3.55,-3.5846,-3.6558,-3.6654,-3.7038,-3.7719,-3.7026,-3.6654,-3.6538,-3.5827,-3.55,-3.55,-3.55,-3.5904,-3.6577,-3.6654,-3.7219,-3.7988,-3.7892,-3.7911,-3.7995,-3.7961,-3.8527,-3.9413,-4.0181,-4.0504,-4.06,-4.06,-4.06,-4.06,-4.06,-4.06,-4.0561,-4.0484,-3.986,-3.9236,-3.9236,-3.8099,-3.6903,-3.6807,-3.6235,-3.5701,-3.5605,-3.5585,-3.5584,-3.5599,-3.6999,-3.8244,-3.837,-3.9825,-4.0728,-3.9909,-3.9842,-3.9575,-3.8695,-3.9295,-3.9156,-3.7476,-3.8061,-3.786,-3.604,-3.6554,-3.6933,-3.685,-3.7561,-3.7565,-3.6698,-3.667,-3.6327,-3.5519,-3.5507,-3.5534,-3.5596,-3.5736,-3.5878,-3.5995,-3.5997,-3.5983,-2.3094,-2.3094,-2.3094,-2.3094,0.0,0.0,0.0,-2.4154,0.0,0.0,0.0,0.0,0.0,0.0,0.0,0.0,0.0,0.0,0.0,0.0,0.0,0.0,0.0,0.0,0.0,-3.805,-3.8043,-3.8091,-3.7442,-3.6677,-3.5802,-3.5584,-3.55,-3.55,-3.55,-3.5577,-3.5731,-3.6385,-3.6462,-3.5981,-3.6462,-3.6365,-3.5731,-3.5577,-3.55,-3.55,-3.55,-3.5596,-3.5788,-3.6423,-3.7219,-3.793,-3.7238,-3.7392,-3.7911,-3.7226,-3.7964,-3.9311,-3.9492,-3.998,-4.0519,-4.0519,-4.0519,-4.0519,-4.0519,-4.0519,-4.0385,-3.9749,-3.8934,-3.8279,-3.8279,-3.8029,-3.7586,-3.6887,-3.6598,-3.6316,-3.5662,-3.5527,-3.5527,-3.5521,-3.6966,-3.8236,-3.8301,-3.9774,-4.0643,-3.9836,-3.9774,-3.9501,-3.8621,-3.927,-3.9153,-3.7489,-3.8026,-3.7815,-3.6039,-3.5988,-3.6024,-3.5965,-3.6642,-3.6665,-3.5785,-3.6355,-3.6327,-3.5519,-3.5495,-3.5522,-3.5596,-3.5722,-3.5833,-3.5921,-3.5921,-3.5958,-2.5044,-2.5044,-2.4947,-2.4516,0.0,0.0,0.0,0.0,0.0,0.0,0.0,0.0,0.0,0.0,0.0,0.0,0.0,0.0,0.0,0.0,0.0,0.0,0.0,0.0,0.0,-3.6521,-3.6764,-3.6804,-3.64,-3.597,-3.5519,-3.55,-3.55,-3.55,-3.55,-3.55,-3.55,-3.5904,-3.5904,-3.55,-3.5904,-3.5885,-3.55,-3.55,-3.55,-3.55,-3.55,-3.55,-3.5538,-3.5942,-3.6365,-3.6757,-3.6712,-3.6712,-3.6757,-3.6712,-3.7257,-3.8123,-3.8996,-3.9554,-3.9977,-4.0362,-4.0496,-4.0496,-4.0496,-4.0227,-3.9727,-3.8892,-3.8334,-3.8007,-3.8007,-3.768,-3.7238,-3.6788,-3.6385,-3.5981,-3.5596,-3.55,-3.55,-3.55,-3.6915,-3.8112,-3.8197,-3.9644,-4.068,-4.0342,-4.037,-4.0252,-3.9854,-4.0182,-3.9951,-3.8688,-3.8885,-3.8386,-3.6591,-3.6759,-3.6753,-3.6281,-3.6563,-3.6548,-3.6111,-3.611,-3.5904,-3.5519,-3.5501,-3.5521,-3.5541,-3.5654,-3.5756,-3.5859,-3.5855,-3.5885,0.0,0.0,0.0,0.0,0.0,-2.4614,0.0,0.0,0.0,-2.5991,0.0,0.0,0.0,0.0,0.0,0.0,0.0,0.0,0.0,0.0,0.0,0.0,0.0,0.0,0.0,-3.4737,-3.5173,-3.5,-3.5154,-3.525,-3.525,-3.5404,-3.55,-3.55,-3.55,-3.55,-3.55,-3.55,-3.55,-3.55,-3.55,-3.55,-3.55,-3.55,-3.55,-3.55,-3.55,-3.55,-3.55,-3.55,-3.55,-3.5558,-3.6212,-3.6077,-3.5577,-3.6231,-3.6577,-3.6904,-3.8315,-3.8911,-3.9169,-3.9804,-4.0131,-4.0246,-4.0073,-3.9554,-3.8873,-3.7988,-3.7642,-3.7526,-3.7526,-3.7007,-3.6462,-3.6462,-3.6096,-3.5731,-3.5731,-3.5865,-3.5981,-3.5981,-3.7219,-3.8222,-3.8125,-3.9535,-4.0738,-4.0868,-4.0941,-4.1003,-4.1075,-4.1083,-4.068,-3.9641,-3.9474,-3.8707,-3.6893,-3.729,-3.7314,-3.6582,-3.6496,-3.6462,-3.6462,-3.5846,-3.55,-3.55,-3.55,-3.55,-3.55,-3.5554,-3.5635,-3.575,-3.5761,-3.5801,0.0,0.0,0.0,0.0,-2.6196,0.0,0.0,0.0,-2.4243,-2.3659,0.0,0.0,0.0,0.0,0.0,0.0,0.0,0.0,0.0,0.0,0.0,0.0,0.0,0.0,0.0,0.0,-3.4026,-3.3256,-3.391,-3.4359,-3.4359,-3.5084,-3.55,-3.55,-3.55,-3.55,-3.55,-3.55,-3.55,-3.55,-3.55,-3.55,-3.55,-3.55,-3.55,-3.55,-3.55,-3.55,-3.55,-3.55,-3.55,-3.5519,-3.5596,-3.5577,-3.5519,-3.5596,-3.6096,-3.6731,-3.6923,-3.7507,-3.8161,-3.8257,-3.8815,-3.9284,-3.8527,-3.8219,-3.7969,-3.7084,-3.6327,-3.5788,-3.5788,-3.5712,-3.5635,-3.5635,-3.6115,-3.6558,-3.6558,-3.718,-3.7719,-3.7719,-3.8488,-3.8934,-3.8225,-3.9501,-4.0662,-4.08,-4.0873,-4.0939,-4.1003,-4.1003,-4.039,-3.8721,-3.849,-3.7756,-3.5999,-3.5875,-3.5823,-3.5669,-3.5643,-3.5635,-3.5635,-3.5558,-3.55,-3.55,-3.55,-3.55,-3.55,-3.5509,-3.5552,-3.5629,-3.5679,-3.573,0.0,0.0,0.0,0.0,0.0,0.0,-2.5237,0.0,-2.5042,0.0,0.0,0.0,0.0,0.0,0.0,0.0,0.0,0.0,0.0,0.0,0.0,0.0,0.0,0.0,0.0,0.0,0.0,0.0,0.0,-3.2429,-3.3391,-3.4276,-3.4988,-3.5481,-3.55,-3.55,-3.55,-3.55,-3.55,-3.55,-3.55,-3.55,-3.55,-3.55,-3.55,-3.55,-3.55,-3.55,-3.55,-3.55,-3.55,-3.55,-3.55,-3.55,-3.55,-3.55,-3.5712,-3.6077,-3.6538,-3.6942,-3.7334,-3.7834,-3.8584,-3.9034,-3.7661,-3.7603,-3.7719,-3.6385,-3.575,-3.55,-3.55,-3.55,-3.55,-3.55,-3.6115,-3.6577,-3.6096,-3.6654,-3.7103,-3.6635,-3.7219,-3.7688,-3.7355,-3.9109,-4.0579,-4.0662,-4.0744,-4.0818,-4.0888,-4.0881,-4.0403,-3.9179,-3.8971,-3.8236,-3.6493,-3.6273,-3.6028,-3.5527,-3.5494,-3.55,-3.55,-3.55,-3.55,-3.55,-3.55,-3.55,-3.55,-3.5501,-3.5515,-3.5534,-3.5604,-3.5639,-2.9805,0.0,0.0,0.0,0.0,0.0,0.0,0.0,0.0,0.0,0.0,0.0,0.0,0.0,0.0,0.0,0.0,0.0,0.0,0.0,0.0,0.0,0.0,0.0,0.0,0.0,0.0,0.0,0.0,0.0,-3.216,-3.3468,-3.4487,-3.5115,-3.5385,-3.55,-3.55,-3.55,-3.55,-3.55,-3.55,-3.55,-3.55,-3.55,-3.55,-3.55,-3.55,-3.55,-3.55,-3.55,-3.55,-3.55,-3.55,-3.55,-3.55,-3.55,-3.55,-3.5577,-3.6173,-3.6365,-3.6481,-3.7103,-3.8046,-3.8661,-3.7161,-3.7488,-3.8046,-3.6596,-3.6192,-3.6192,-3.6192,-3.6192,-3.6192,-3.6192,-3.6808,-3.7199,-3.6365,-3.6827,-3.718,-3.6346,-3.6654,-3.7065,-3.7065,-3.8584,-3.9846,-3.9892,-3.996,-4.0017,-4.007,-4.0081,-3.9747,-3.8886,-3.8733,-3.8079,-3.6569,-3.6407,-3.6115,-3.5538,-3.55,-3.55,-3.55,-3.55,-3.55,-3.55,-3.55,-3.55,-3.55,-3.55,-3.55,-3.55,-3.5547,-3.5571,0.0,0.0,0.0,-2.7147,0.0,0.0,0.0,0.0,-2.4671,0.0,0.0,0.0,0.0,0.0,0.0,0.0,0.0,0.0,0.0,0.0,0.0,0.0,0.0,0.0,0.0,0.0,0.0,0.0,0.0,0.0,-3.0481,-3.2833,-3.4205,-3.4244,-3.5064,-3.55,-3.55,-3.55,-3.55,-3.55,-3.55,-3.55,-3.55,-3.55,-3.55,-3.55,-3.55,-3.55,-3.55,-3.55,-3.55,-3.55,-3.55,-3.55,-3.55,-3.55,-3.55,-3.55,-3.5538,-3.5538,-3.5538,-3.5577,-3.6699,-3.7873,-3.6962,-3.7892,-3.9073,-3.8161,-3.7911,-3.7911,-3.7911,-3.7911,-3.7911,-3.7911,-3.8584,-3.8977,-3.8104,-3.8604,-3.895,-3.8084,-3.795,-3.7969,-3.7969,-3.8027,-3.8099,-3.8168,-3.8182,-3.8202,-3.8259,-3.8276,-3.7947,-3.7081,-3.6909,-3.6511,-3.5631,-3.5546,-3.5538,-3.55,-3.55,-3.55,-3.55,-3.55,-3.55,-3.55,-3.55,-3.55,-3.55,-3.55,-3.55,-3.55,-3.5507,-3.5507,0.0,0.0,-2.8708,-2.7889,0.0,0.0,0.0,0.0,0.0,0.0,0.0,0.0,0.0,0.0,0.0,0.0,0.0,0.0,0.0,0.0,0.0,0.0,0.0,0.0,0.0,0.0,0.0,0.0,-2.6692,0.0,0.0,-3.091,-3.2468,-3.4148,-3.4487,-3.493,-3.5481,-3.55,-3.55,-3.55,-3.55,-3.55,-3.55,-3.55,-3.55,-3.55,-3.55,-3.55,-3.55,-3.55,-3.55,-3.55,-3.55,-3.55,-3.55,-3.55,-3.55,-3.55,-3.55,-3.55,-3.55,-3.55,-3.6635,-3.7834,-3.6962,-3.7911,-3.913,-3.8257,-3.8007,-3.8007,-3.8007,-3.8007,-3.8007,-3.8007,-3.8661,-3.8892,-3.745,-3.7815,-3.8027,-3.6615,-3.6346,-3.6346,-3.6346,-3.6346,-3.6719,-3.7856,-3.8024,-3.8031,-3.8071,-3.8059,-3.795,-3.766,-3.7614,-3.7235,-3.6374,-3.5815,-3.55,-3.55,-3.55,-3.55,-3.55,-3.55,-3.55,-3.55,-3.55,-3.55,-3.55,-3.55,-3.55,-3.55,-3.55,-3.55,-3.0462,-2.9878,0.0,-2.8237,-2.7424,0.0,-2.5758,0.0,0.0,0.0,0.0,0.0,0.0,0.0,0.0,0.0,0.0,0.0,0.0,0.0,0.0,0.0,0.0,0.0,0.0,0.0,-2.5635,-2.5327,-2.5596,0.0,0.0,0.0,-3.1288,-3.3256,-3.3898,-3.4622,-3.5481,-3.55,-3.55,-3.55,-3.55,-3.55,-3.55,-3.55,-3.55,-3.55,-3.55,-3.55,-3.55,-3.55,-3.55,-3.55,-3.55,-3.55,-3.55,-3.55,-3.55,-3.55,-3.55,-3.55,-3.55,-3.55,-3.6635,-3.7892,-3.7334,-3.8354,-3.9611,-3.9046,-3.8892,-3.8892,-3.8892,-3.8892,-3.8892,-3.8892,-3.9323,-3.9342,-3.793,-3.8065,-3.8046,-3.6654,-3.6385,-3.6288,-3.5981,-3.5923,-3.6192,-3.6988,-3.7103,-3.7103,-3.7103,-3.7103,-3.7103,-3.7103,-3.7373,-3.7315,-3.675,-3.5962,-3.55,-3.55,-3.55,-3.55,-3.55,-3.55,-3.55,-3.55,-3.55,-3.55,-3.55,-3.55,-3.55,-3.55,-3.55,-3.55]},{"header":{"parameterUnit":"m.s-1","parameterCategory":1,"la1":30.6,"la2":29.2853,"lo1":-89.7004,"lo2":-87.6739,"dy":0.0162,"dx":0.0183,"nx":112,"ny":82,"refTime":"2026-04-13T12:00:00:Z","depth":0,"parameterNumber":3,"parameterNumberName":"V-component_of_WINDS"},"data":[0.0,0.0,0.0,0.0,0.0,0.0,0.0,0.0,0.0,0.0,0.0,0.0,0.0,0.0,0.0,0.0,0.0,0.0,0.0,0.0,0.0,0.0,0.0,0.0,0.0,0.0,0.0,0.0,0.0,0.0,0.0,0.0,0.0,0.0,0.0,0.0,0.0,0.0,0.0,0.0,0.0,0.0,0.0,0.0,0.0,0.0,0.0,0.0,0.0,0.0,0.0,0.0,0.0,0.0,0.0,0.0,0.0,0.0,0.0,0.0,0.0,0.0,0.0,0.0,0.0,0.0,0.0,0.0,0.0,0.0,0.0,0.0,0.0,0.0,0.0,0.0,0.0,0.0,0.0,0.0,0.0,0.0,0.0,0.0,0.0,0.0,0.0,0.0,0.0,0.0,0.0,-0.6566,-0.7244,-0.7533,-0.7159,-0.6926,-0.6441,-0.5671,0.0,0.0,0.0,0.0,0.0,0.0,0.0,0.0,0.0,0.0,0.0,0.0,0.0,0.0,0.0,0.0,0.0,0.0,0.0,0.0,0.0,0.0,0.0,0.0,0.0,0.0,0.0,0.0,0.0,0.0,0.0,0.0,0.0,0.0,0.0,0.0,0.0,0.0,0.0,0.0,0.0,0.0,0.0,0.0,0.0,0.0,0.0,0.0,0.0,0.0,0.0,0.0,0.0,0.0,0.0,0.0,0.0,0.0,0.0,0.0,0.0,0.0,0.0,0.0,0.0,0.0,0.0,0.0,0.0,0.0,0.0,0.0,0.0,0.0,0.0,0.0,0.0,0.0,0.0,0.0,0.0,0.0,0.0,0.0,0.0,0.0,0.0,0.0,0.0,0.0,0.0,0.0,0.0,0.0,0.0,0.0,0.0,0.0,0.0,0.0,0.0,0.0,0.0,0.0,-0.6122,-0.7173,-0.7678,-0.7801,-0.7373,-0.7173,-0.6657,-0.5823,0.0,0.0,0.0,0.0,0.0,0.0,0.0,0.0,0.0,0.0,0.0,0.0,0.0,0.0,0.0,0.0,0.0,0.0,0.0,0.0,0.0,0.0,0.0,0.0,0.0,0.0,0.0,0.0,0.0,0.0,0.0,0.0,0.0,0.0,0.0,0.0,0.0,0.0,0.0,0.0,0.0,0.0,0.0,0.0,0.0,0.0,0.0,0.0,0.0,0.0,0.0,0.0,0.0,0.0,0.0,0.0,0.0,0.0,0.0,0.0,0.0,0.0,0.0,0.0,0.0,0.0,0.0,0.0,0.0,0.0,0.0,0.0,0.0,0.0,0.0,0.0,0.0,0.0,0.0,0.0,0.0,0.0,0.0,0.0,0.0,0.0,0.0,0.0,0.0,0.0,0.0,0.0,0.0,0.0,0.0,0.0,0.0,0.0,0.0,0.0,0.0,0.0,0.0,-0.5755,-0.6413,-0.7061,-0.7338,-0.7392,-0.7156,-0.6912,-0.6464,-0.5732,-0.506,0.0,0.0,0.0,0.0,0.0,0.0,0.0,0.0,0.0,0.0,0.0,0.0,0.0,0.0,0.0,0.0,0.0,0.0,0.0,0.0,0.0,0.0,0.0,0.0,0.0,0.0,0.0,0.0,0.0,0.0,0.0,0.0,0.0,0.0,0.0,0.0,0.0,0.0,0.0,0.0,0.0,0.0,0.0,0.0,0.0,0.0,0.0,0.0,0.0,0.0,0.0,0.0,0.0,0.0,0.0,0.0,0.0,0.0,0.0,0.0,0.0,0.0,0.0,0.0,0.0,0.0,0.0,0.0,0.0,0.0,0.0,0.0,0.0,0.0,0.0,0.0,0.0,0.0,0.0,0.0,0.0,0.0,0.0,0.0,0.0,0.0,0.0,0.0,0.0,0.0,0.0,0.0,0.0,0.0,0.0,0.0,0.0,0.0,0.0,0.0,0.0,0.0,-0.6213,-0.6698,-0.7,-0.7119,-0.7119,-0.6903,-0.6617,-0.619,-0.5521,-0.4918,0.0,0.0,0.0,0.0,0.0,0.0,0.0,0.0,0.0,0.0,0.0,0.0,0.0,0.0,0.0,0.0,0.0,0.0,0.0,0.0,0.0,0.0,0.0,0.0,0.0,0.0,0.0,0.0,0.0,0.0,0.0,0.0,0.0,0.0,0.0,0.0,0.0,0.0,0.0,0.0,0.0,0.0,0.0,0.0,0.0,0.0,0.0,0.0,0.0,0.0,0.0,0.0,0.0,0.0,0.0,0.0,0.0,0.0,0.0,0.0,0.0,0.0,0.0,0.0,0.0,0.0,0.0,0.0,0.0,0.0,0.0,0.0,0.0,0.0,0.0,0.0,0.0,0.0,0.0,0.0,0.0,0.0,0.0,0.0,0.0,0.0,0.0,0.0,0.0,0.0,0.0,0.0,0.0,0.0,0.0,0.0,0.0,0.0,0.0,0.0,0.0,0.0,-0.6485,-0.701,-0.7309,-0.7475,-0.7394,-0.6923,-0.6529,-0.5992,-0.5177,-0.4577,0.0,0.0,0.0,0.0,0.0,0.0,0.0,0.0,0.0,0.0,0.0,0.0,0.0,0.0,0.0,0.0,0.0,0.0,0.0,0.0,0.0,0.0,0.0,0.0,0.0,0.0,0.0,0.0,0.0,0.0,0.0,0.0,0.0,0.0,0.0,0.0,0.0,0.0,0.0,0.0,0.0,0.0,0.0,0.0,0.0,0.0,0.0,0.0,0.0,0.0,0.0,0.0,0.0,0.0,0.0,0.0,0.0,0.0,0.0,0.0,0.0,0.0,0.0,0.0,0.0,0.0,0.0,0.0,0.0,0.0,0.0,0.0,0.0,0.0,0.0,0.0,0.0,0.0,0.0,0.0,0.0,0.0,0.0,0.0,0.0,0.0,0.0,0.0,0.0,0.0,0.0,0.0,0.0,0.0,0.0,0.0,0.0,0.0,0.0,0.0,0.0,0.0,-0.6359,-0.6865,0.0,-0.7224,-0.7132,-0.6681,-0.6318,-0.5796,-0.5015,0.0,0.0,0.0,0.0,0.0,0.0,0.0,0.0,0.0,0.0,0.0,0.0,0.0,0.0,0.0,0.0,0.0,0.0,0.0,0.0,0.0,0.0,0.0,0.0,0.0,0.0,0.0,0.0,0.0,0.0,0.0,0.0,0.0,0.0,0.0,0.0,0.0,0.0,0.0,0.0,0.0,0.0,0.0,0.0,0.0,0.0,0.0,0.0,0.0,0.0,0.0,0.0,0.0,0.0,0.0,0.0,0.0,0.0,0.0,0.0,0.0,0.0,0.0,0.0,0.0,0.0,0.0,0.0,0.0,0.0,0.0,0.0,0.0,0.0,0.0,0.0,0.0,0.0,0.0,0.0,0.0,0.0,0.0,0.0,0.0,0.0,0.0,0.0,0.0,0.0,0.0,0.0,0.0,0.0,0.0,0.0,0.0,0.0,0.0,0.0,0.0,0.0,-0.5525,-0.62,-0.6705,0.0,-0.697,-0.6892,-0.6484,-0.6044,-0.5518,-0.4819,0.0,0.0,0.0,0.0,0.0,0.0,0.0,0.0,0.0,0.0,0.0,0.0,0.0,0.0,0.0,0.0,0.0,0.0,0.0,0.0,0.0,0.0,0.0,0.0,0.0,0.0,0.0,0.0,0.0,0.0,0.0,0.0,0.0,0.0,0.0,0.0,0.0,0.0,0.0,0.0,0.0,0.0,0.0,0.0,0.0,0.0,0.0,0.0,0.0,0.0,0.0,0.0,0.0,0.0,0.0,0.0,0.0,0.0,0.0,0.0,0.0,0.0,0.0,0.0,0.0,0.0,0.0,0.0,0.0,0.0,0.0,0.0,0.0,0.0,0.0,0.0,0.0,0.0,0.0,0.0,0.0,0.0,0.0,0.0,0.0,0.0,0.0,0.0,0.0,0.0,0.0,0.0,0.0,0.0,0.0,0.0,0.0,0.0,0.0,0.0,0.0,0.0,-0.5511,-0.6143,-0.6586,-0.6849,-0.6883,-0.6746,-0.6334,-0.5743,-0.5136,0.0,0.0,0.0,0.0,0.0,0.0,0.0,0.0,0.0,0.0,0.0,0.0,0.0,0.0,0.0,0.0,0.0,0.0,0.0,0.0,0.0,0.0,0.0,0.0,0.0,0.0,0.0,0.0,0.0,0.0,0.0,0.0,0.0,0.0,0.0,0.0,0.0,0.0,0.0,0.0,0.0,0.0,0.0,0.0,0.0,0.0,0.0,0.0,0.0,0.0,0.0,0.0,0.0,0.0,0.0,0.0,0.0,0.0,0.0,0.0,0.0,0.0,0.0,0.0,0.0,0.0,0.0,0.0,0.0,0.0,0.0,0.0,0.0,0.0,0.0,0.0,0.0,0.0,0.0,0.0,0.0,0.0,0.0,0.0,0.0,0.0,0.0,0.0,0.0,0.0,0.0,0.0,0.0,0.0,0.0,0.0,0.0,0.0,0.0,0.0,0.0,0.0,0.0,-0.5399,-0.6078,-0.6549,-0.6597,-0.68,-0.666,-0.6146,-0.5745,-0.5252,-0.4535,0.0,0.0,0.0,0.0,0.0,0.0,0.0,0.0,0.0,0.0,0.0,0.0,0.0,0.0,0.0,0.0,0.0,0.0,0.0,0.0,0.0,0.0,0.0,0.0,0.0,0.0,0.0,0.0,0.0,0.0,0.0,0.0,0.0,0.0,0.0,0.0,0.0,0.0,0.0,0.0,0.0,0.0,0.0,0.0,0.0,0.0,0.0,0.0,0.0,0.0,0.0,0.0,0.0,0.0,0.0,0.0,0.0,0.0,0.0,0.0,0.0,0.0,0.0,0.0,0.0,0.0,0.0,0.0,0.0,0.0,0.0,0.0,0.0,0.0,0.0,0.0,0.0,0.0,0.0,0.0,0.0,0.0,0.0,0.0,0.0,0.0,0.0,0.0,0.0,0.0,0.0,0.0,0.0,0.0,0.0,0.0,0.0,0.0,0.0,0.0,0.0,0.0,-0.5209,-0.5871,-0.6342,-0.6501,-0.6586,-0.6491,-0.6027,-0.5647,-0.5138,-0.4532,0.0,0.0,0.0,0.0,0.0,0.0,0.0,0.0,0.0,0.0,0.0,0.0,0.0,0.0,0.0,0.0,0.0,0.0,0.0,0.0,0.0,0.0,0.0,0.0,0.0,0.0,0.0,0.0,0.0,0.0,0.0,0.0,0.0,0.0,0.0,0.0,0.0,0.0,0.0,0.0,0.0,0.0,0.0,0.0,0.0,0.0,0.0,0.0,0.0,0.0,0.0,0.0,0.0,0.0,0.0,0.0,0.0,0.0,0.0,0.0,0.0,0.0,0.0,0.0,0.0,0.0,0.0,0.0,0.0,0.0,0.0,0.0,0.0,0.0,0.0,0.0,0.0,0.0,0.0,0.0,0.0,0.0,0.0,0.0,0.0,0.0,0.0,0.0,0.0,0.0,0.0,0.0,0.0,0.0,0.0,0.0,0.0,0.0,0.0,0.0,0.0,0.0,-0.5042,-0.5622,-0.6129,-0.6422,-0.6361,-0.6224,-0.5969,-0.5427,-0.4945,-0.4539,0.0,0.0,0.0,0.0,0.0,0.0,0.0,0.0,0.0,0.0,0.0,0.0,0.0,0.0,0.0,0.0,0.0,0.0,0.0,0.0,0.0,0.0,0.0,0.0,0.0,0.0,0.0,0.0,0.0,0.0,0.0,0.0,0.0,0.0,0.0,0.0,0.0,0.0,0.0,0.0,0.0,0.0,0.0,0.0,0.0,0.0,0.0,0.0,0.0,0.0,0.0,0.0,0.0,0.0,0.0,0.0,0.0,0.0,0.0,0.0,-0.0722,0.0,0.0,0.0,0.0,0.0,0.0,0.0,0.0,0.0,0.0,0.0,0.0,0.0,0.0,0.0,0.0,0.0,0.0,0.0,0.0,0.0,0.0,0.0,0.0,0.0,0.0,0.0,0.0,0.0,0.0,0.0,0.0,0.0,0.0,0.0,0.0,0.0,0.0,0.0,0.0,0.0,-0.5042,-0.5622,-0.5969,-0.5952,-0.617,-0.6143,-0.5718,-0.5312,-0.4961,-0.4663,-0.4107,0.0,0.0,0.0,0.0,0.0,0.0,0.0,0.0,0.0,0.0,0.0,0.0,0.0,0.0,0.0,0.0,0.0,0.0,0.0,0.0,0.0,0.0,0.0,0.0,0.0,0.0,0.0,0.0,0.0,0.0,0.0,0.0,0.0,0.0,0.0,0.0,0.0,0.0,0.0,0.0,0.0,0.0,0.0,0.0,0.0,0.0,0.0,0.0,0.0,0.0,0.0,0.0,0.0,0.0,0.0,0.0,0.0,0.0,0.0,0.0,-0.095,0.0,0.0,0.0,0.0,0.0,0.0,0.0,0.0,0.0,0.0,0.0,0.0,0.0,0.0,0.0,0.0,0.0,0.0,0.0,0.0,0.0,0.0,0.0,0.0,0.0,0.0,0.0,0.0,0.0,0.0,0.0,0.0,0.0,0.0,0.0,0.0,0.0,0.0,0.0,0.0,-0.4951,-0.5491,-0.5813,-0.5803,-0.5884,-0.588,-0.561,-0.5247,-0.4931,-0.4704,-0.4192,0.0,0.0,0.0,0.0,0.0,0.0,0.0,0.0,0.0,0.0,0.0,0.0,0.0,0.0,0.0,0.0,0.0,0.0,0.0,0.0,0.0,0.0,0.0,0.0,0.0,0.0,0.0,0.0,0.0,0.0,0.0,0.0,0.0,0.0,0.0,0.0,0.0,0.0,0.0,0.0,0.0,0.0,0.0,0.0,0.0,0.0,0.0,0.0,0.0,0.0,0.0,0.0,0.0,-0.0696,-0.1132,-0.1458,-0.1296,-0.1208,-0.1199,-0.1328,-0.1294,-0.1165,0.0,0.0,0.0,0.0,0.0,0.0,0.0,0.0,0.0,0.0,0.0,0.0,0.0,0.0,0.0,0.0,0.0,0.0,0.0,0.0,0.0,0.0,0.0,0.0,0.0,-0.218,-0.2192,0.0,0.0,0.0,0.0,0.0,0.0,0.0,0.0,0.0,0.0,0.0,0.0,-0.485,-0.5311,-0.5627,-0.5715,-0.5644,-0.5579,-0.5552,-0.5162,-0.4863,-0.4738,-0.4281,-0.3967,0.0,0.0,0.0,0.0,0.0,0.0,0.0,0.0,0.0,0.0,0.0,0.0,0.0,0.0,0.0,0.0,0.0,0.0,0.0,0.0,0.0,0.0,0.0,0.0,0.0,0.0,0.0,0.0,0.0,0.0,0.0,0.0,0.3732,0.3534,0.0,0.0,0.0,0.0,0.0,0.0,0.0,0.0,0.0,0.0,0.0,0.0,0.0,0.2843,0.2334,0.1861,0.1217,0.0397,-0.0456,-0.0964,-0.125,-0.1529,-0.1579,-0.1555,-0.1612,0.0,-0.0704,-0.0634,0.0,0.0,0.0,0.0,0.0,0.0,0.0,0.0,0.0,0.0,0.0,0.0,0.0,0.0,0.0,0.0,0.0,0.0,0.0,0.0,0.0,0.0,-0.1372,-0.1341,-0.137,-0.1365,0.0,-0.1904,-0.2421,-0.2497,-0.2662,0.0,0.0,0.0,0.0,0.0,0.0,0.0,-0.485,-0.5311,-0.5545,-0.5467,-0.5556,-0.5569,-0.5436,-0.5101,-0.4881,-0.486,-0.4439,-0.4126,-0.3971,-0.3843,0.0,0.0,0.0,0.0,0.0,0.0,0.0,0.0,0.0,0.0,0.0,0.0,0.0,0.0,0.0,0.0,0.0,0.0,0.0,0.0,0.0,0.0,0.0,0.0,0.0,0.0,0.0,0.0,0.0,0.3865,0.3934,0.3807,0.3926,0.3955,0.0,0.0,0.0,0.0,0.0,0.0,0.0,0.0,0.0,0.3446,0.3895,0.3897,0.3403,0.2967,0.2266,0.1198,0.0166,-0.0612,-0.1049,-0.1378,-0.1535,-0.147,-0.1304,-0.1055,-0.0802,-0.1039,-0.1161,-0.1186,0.0,0.0,0.0,0.0,-0.1076,-0.1052,-0.0966,-0.0887,0.0,-0.092,0.0,0.0,0.0,0.0,0.0,0.0,0.0,0.0,0.0,0.0,-0.1264,-0.1268,-0.1256,-0.1243,-0.1243,-0.1547,-0.184,0.0,-0.2089,-0.2302,-0.2683,0.0,0.0,0.0,0.0,0.0,-0.4968,-0.5287,-0.547,-0.5402,-0.5453,-0.5467,-0.5399,-0.5087,-0.4887,-0.4887,-0.4469,-0.4167,-0.4126,-0.3917,-0.3659,0.0,0.0,0.0,0.0,0.0,0.0,0.0,0.0,0.0,0.0,0.0,0.0,0.0,0.0,0.0,0.0,0.0,0.0,0.0,0.0,0.0,0.0,0.0,0.0,0.0,0.0,0.0,0.0,0.3972,0.4101,0.4124,0.4305,0.4339,0.0,0.0,0.0,0.0,0.0,0.0,0.3136,0.3518,0.3854,0.4105,0.4437,0.4426,0.4043,0.3588,0.2773,0.1563,0.0529,-0.0355,-0.106,-0.1402,-0.1507,-0.1494,-0.1249,-0.1118,-0.115,-0.134,-0.1423,-0.1413,-0.1292,-0.1289,-0.1344,-0.1273,-0.1267,-0.1238,-0.1195,-0.1188,-0.1164,-0.1191,0.0,-0.1151,-0.1181,0.0,0.0,0.0,0.0,-0.1251,-0.1306,-0.1297,-0.132,-0.1301,-0.1283,-0.1303,-0.1303,-0.1319,-0.1351,0.0,-0.1653,-0.1909,-0.2505,0.0,0.0,0.0,0.0,-0.4717,-0.494,-0.5137,-0.5263,-0.5263,-0.5263,-0.5263,-0.5263,-0.4961,-0.4762,-0.4762,-0.4391,-0.4111,-0.404,-0.3898,-0.3698,-0.3502,0.0,0.0,0.0,0.0,0.0,0.0,0.0,0.0,0.0,0.0,0.0,0.0,0.0,0.0,0.0,0.0,0.0,0.0,0.0,0.0,0.0,0.0,0.0,0.0,0.0,0.0,0.0,0.0,0.0,0.4344,0.4493,0.0,0.0,0.0,0.0,0.3673,0.3325,0.32,0.3461,0.3704,0.392,0.4189,0.4074,0.3895,0.3612,0.3089,0.2175,0.0942,0.0299,-0.0478,-0.1415,-0.1735,-0.1836,-0.1783,-0.1781,-0.1764,-0.1732,-0.1187,-0.104,-0.1203,-0.1204,-0.1311,-0.1468,-0.1212,-0.1129,-0.1102,-0.0874,-0.0838,-0.0846,-0.0814,-0.0886,-0.0935,-0.1142,-0.1207,0.0,0.0,-0.1272,-0.1303,-0.1294,-0.1302,-0.1304,-0.1305,-0.1283,-0.1303,-0.1303,-0.1319,-0.1325,0.0,-0.1662,-0.189,-0.2266,0.0,-0.3303,-0.3585,-0.4075,-0.4461,-0.4604,-0.4745,-0.4831,-0.4831,-0.4831,-0.4831,-0.4831,-0.4577,-0.4418,-0.4418,-0.4164,-0.3899,-0.3648,-0.3742,-0.361,-0.3219,-0.3261,0.0,0.0,0.0,0.0,0.0,0.0,0.0,0.0,0.0,0.0,0.0,0.0,0.0,0.0,0.0,0.0,0.0,0.0,0.0,0.0,0.0,0.0,0.0,0.0,0.0,0.0,0.0,0.0,0.4716,0.4858,0.0,0.46,0.4165,0.39,0.3817,0.3571,0.3476,0.3647,0.3791,0.3813,0.3698,0.3264,0.2888,0.2587,0.1935,0.1334,0.0607,0.0,-0.061,-0.1154,-0.1675,-0.189,-0.1867,-0.1828,-0.1805,-0.1793,-0.1551,-0.1522,-0.1591,-0.1534,-0.1557,-0.1594,-0.1465,-0.1402,-0.1397,-0.1318,-0.1307,-0.1235,-0.1247,-0.1244,-0.1238,-0.1294,-0.1313,-0.1261,-0.1313,-0.1282,-0.1297,-0.1367,-0.1375,-0.138,-0.1356,-0.1381,-0.1354,-0.1294,-0.1308,-0.1317,-0.1364,-0.1407,-0.1524,-0.1861,-0.2195,-0.2559,-0.297,-0.3307,-0.3548,-0.3682,-0.373,-0.3787,-0.3787,-0.3787,-0.3787,-0.3787,-0.3595,-0.3503,-0.3503,-0.3237,-0.3127,-0.3208,-0.3307,-0.3348,-0.3324,-0.3364,-0.33,0.0,0.0,0.0,0.0,0.0,0.0,0.0,0.0,0.0,0.0,0.0,0.0,0.0,0.0,0.0,0.0,0.0,0.0,0.0,0.0,0.0,0.0,0.0,0.0,0.0,0.0,0.4733,0.4878,0.496,0.4888,0.467,0.4269,0.404,0.3998,0.3764,0.3701,0.3878,0.3961,0.3887,0.3708,0.3096,0.257,0.2141,0.1354,0.074,0.0185,-0.0432,-0.0925,-0.1358,-0.1753,-0.1911,-0.1898,-0.1859,-0.1829,-0.181,-0.181,-0.1792,-0.1815,-0.1764,-0.1745,-0.1741,-0.1657,-0.1634,-0.1618,-0.1628,-0.1592,-0.1538,-0.1518,-0.1491,-0.1416,-0.1442,-0.1416,-0.1349,-0.1349,-0.1342,-0.1339,-0.14,-0.1406,-0.141,-0.1385,-0.1412,-0.1382,-0.1311,-0.1283,-0.1294,-0.1303,-0.1279,-0.1301,-0.1593,-0.1851,-0.2108,-0.2479,-0.273,-0.2933,-0.302,-0.3036,-0.3017,-0.3017,-0.3017,-0.3017,-0.3017,-0.2896,-0.283,-0.283,-0.2613,-0.2534,-0.2713,-0.2874,-0.3023,-0.3167,-0.3221,-0.3268,-0.3265,0.0,0.0,0.0,0.0,0.0,0.0,0.0,0.0,0.0,0.0,0.0,0.0,0.0,0.0,0.0,0.0,0.0,0.0,0.0,0.0,0.0,0.0,0.0,0.4376,0.4464,0.4612,0.4853,0.4672,0.449,0.4488,0.4202,0.4023,0.4086,0.3859,0.3885,0.4296,0.4239,0.4237,0.4296,0.3647,0.3013,0.241,0.147,0.0494,-0.0494,-0.0864,-0.1359,-0.1977,-0.1975,-0.1959,-0.1871,-0.1869,-0.1836,-0.1783,-0.1783,-0.1766,-0.1792,-0.1818,-0.1806,-0.1802,-0.1718,-0.1706,-0.17,-0.1723,-0.1673,-0.1622,-0.1622,-0.1552,-0.148,-0.148,-0.1506,-0.148,-0.148,-0.1459,-0.1391,-0.1391,-0.1391,-0.1391,-0.1391,-0.1413,-0.1383,-0.1312,-0.1284,-0.1294,-0.1303,-0.1296,-0.1326,-0.1485,-0.1779,-0.2024,-0.2157,-0.2457,0.0,-0.2659,-0.2664,-0.2653,-0.2653,-0.2653,-0.2653,-0.2653,-0.2515,-0.246,-0.246,-0.2275,-0.2169,-0.2168,-0.2474,-0.2658,-0.2687,-0.2882,-0.3046,-0.3178,0.0,0.0,0.0,0.0,0.0,0.0,0.0,0.0,0.0,0.0,0.0,0.0,0.0,0.0,0.0,0.0,0.0,0.0,0.0,0.0,0.0,0.0,0.4039,0.4279,0.4357,0.434,0.4391,0.4266,0.4103,0.406,0.402,0.3963,0.3938,0.3876,0.4003,0.4383,0.4517,0.4609,0.4609,0.4205,0.361,0.2708,0.1589,0.0493,-0.0493,-0.1111,-0.1606,-0.1976,-0.1709,-0.1575,-0.1507,-0.1252,-0.129,-0.1437,-0.1437,-0.1594,-0.1794,-0.1786,-0.1782,-0.1781,-0.1773,-0.1742,-0.1697,-0.1647,-0.1618,-0.1605,-0.1605,-0.1583,-0.1559,-0.1559,-0.1522,-0.148,-0.148,-0.1459,-0.1391,-0.1391,-0.1391,-0.1391,-0.1391,-0.1384,-0.1365,-0.1316,-0.13,-0.132,-0.1307,-0.1296,-0.1293,-0.1363,-0.1379,-0.1435,-0.1462,-0.1514,0.0,-0.1541,-0.1538,-0.1545,-0.1545,-0.1545,-0.1545,-0.1545,-0.1467,-0.1419,-0.1419,-0.1267,-0.1273,-0.1462,-0.1655,-0.1924,-0.2257,-0.2519,-0.2684,0.0,0.0,0.0,0.0,0.0,0.0,0.0,0.0,0.0,0.0,0.0,0.0,0.0,0.0,0.0,0.0,0.0,0.0,0.0,0.0,0.0,0.0,0.371,0.3799,0.399,0.4169,0.4274,0.4265,0.4102,0.3924,0.3892,0.3918,0.3985,0.4074,0.4133,0.4318,0.4807,0.501,0.5128,0.5069,0.4946,0.4289,0.3217,0.2009,0.0924,-0.0123,-0.1049,-0.1544,-0.1605,-0.1468,-0.134,0.0,-0.1026,-0.1009,-0.1162,-0.1278,-0.1433,0.0,0.0,0.0,0.0,0.0,-0.1746,-0.1697,-0.1652,-0.1628,-0.1617,-0.1617,-0.1605,-0.1588,-0.1624,-0.1538,-0.1497,-0.1484,-0.145,-0.1419,-0.1387,-0.1381,-0.142,-0.1387,-0.1381,-0.1403,-0.1315,-0.1296,-0.1315,-0.1306,-0.1296,0.0,-0.1296,-0.1281,-0.123,-0.123,-0.1179,-0.114,-0.114,-0.1102,-0.1109,-0.1109,-0.1109,-0.1109,-0.1109,-0.1054,0.0,0.0,0.0,-0.0974,-0.1236,-0.1377,0.0,0.0,0.0,0.0,0.0,0.0,0.0,0.0,-0.3477,-0.3546,0.0,0.0,0.0,0.0,0.0,0.0,0.0,0.0,0.0,0.0,0.0,0.0,0.0,0.0,0.0,0.0,0.3537,0.35,0.3665,0.3982,0.4167,0.4221,0.4043,0.3896,0.3889,0.3895,0.4018,0.4378,0.4438,0.4745,0.5421,0.0,0.0,0.0,0.0,0.5246,0.3949,0.2791,0.1662,0.0616,-0.0741,-0.1235,-0.0988,-0.1297,-0.1235,-0.0926,-0.0926,-0.0849,-0.0884,-0.1178,-0.1272,-0.129,-0.1683,-0.1795,-0.1791,-0.1812,-0.1727,-0.1699,-0.1668,0.0,0.0,-0.1617,-0.1617,-0.1612,-0.1585,-0.1553,-0.1521,-0.1493,-0.1442,-0.1401,-0.1383,-0.1415,-0.1401,-0.138,-0.141,-0.1381,-0.1307,-0.128,-0.1294,-0.1303,-0.1296,-0.1296,-0.1296,-0.1296,-0.1296,-0.1296,-0.1243,-0.1203,-0.1203,-0.1148,-0.1109,-0.1109,0.0,0.0,-0.1109,-0.1054,-0.0988,-0.0988,-0.0931,-0.0996,-0.1238,-0.1363,-0.1538,-0.1761,-0.1912,-0.2189,-0.257,-0.2828,-0.3235,-0.3761,-0.3807,-0.389,0.0,0.0,0.0,0.0,0.0,0.0,0.0,0.0,0.0,0.0,0.0,0.0,0.0,0.0,0.0,0.3871,0.3759,0.3655,0.374,0.3906,0.3981,0.3992,0.3982,0.3938,0.3893,0.393,0.4123,0.4381,0.4621,0.5112,0.5794,0.6234,0.0,0.6884,0.7127,0.665,0.5333,0.4147,0.277,0.1295,0.0,0.0,-0.0988,-0.0803,-0.0679,-0.0556,-0.0309,-0.0303,-0.053,-0.0589,-0.0751,-0.1009,-0.157,-0.1795,-0.1789,-0.1733,-0.1709,-0.1697,-0.1643,-0.1622,-0.1617,-0.1617,-0.1617,-0.1615,-0.161,-0.157,0.0,-0.1519,-0.1473,-0.1383,-0.1389,-0.1386,-0.1422,-0.1403,-0.1394,-0.1376,-0.1323,-0.1307,-0.1294,-0.1303,-0.1296,-0.1296,-0.1296,-0.1296,-0.1296,-0.1296,-0.1243,-0.1203,-0.1203,-0.1148,-0.1109,-0.1109,-0.1109,-0.1109,-0.1109,-0.1054,-0.0988,-0.0988,-0.0931,-0.0891,-0.0909,-0.0933,-0.0957,-0.1008,-0.126,-0.1487,-0.174,-0.2363,-0.2947,-0.3496,-0.3807,-0.4043,0.0,0.0,0.0,0.0,0.0,0.0,0.0,0.0,0.0,0.0,0.0,0.4474,0.4334,0.0,0.4159,0.3934,0.3788,0.3734,0.3823,0.3873,0.395,0.4133,0.4159,0.4228,0.4384,0.441,0.4599,0.4872,0.5237,0.5605,0.6099,0.6675,0.6978,0.6978,0.71,0.6559,0.524,0.4032,0.2771,0.148,0.0123,-0.0494,-0.0494,-0.0494,-0.0432,-0.0247,-0.0062,-0.0061,-0.0235,-0.0347,-0.0569,-0.0953,-0.1234,-0.1458,-0.1564,-0.1673,-0.1704,-0.1696,-0.1637,-0.1617,-0.1617,-0.1617,-0.1617,-0.1614,-0.1598,-0.1573,-0.1543,-0.1512,-0.147,-0.1391,-0.1391,-0.1379,-0.1409,-0.1393,-0.1379,-0.1356,-0.1312,-0.1291,-0.1315,-0.1299,-0.1296,-0.1296,-0.1296,-0.1284,-0.1234,-0.1234,-0.1233,-0.1197,-0.1146,-0.1104,-0.1109,-0.1109,-0.1109,-0.1109,-0.1109,-0.1054,-0.0975,-0.0945,-0.0928,-0.0896,-0.0853,-0.0852,-0.0852,-0.0852,-0.1038,-0.1278,-0.1542,-0.2111,-0.2757,-0.3409,-0.3731,-0.4055,0.0,0.0,0.0,0.0,0.0,0.0,0.0,0.0,0.3668,0.3922,0.4164,0.4351,0.425,0.4189,0.412,0.3955,0.3829,0.3833,0.3844,0.3882,0.4069,0.4421,0.4492,0.4622,0.4995,0.5042,0.5217,0.5519,0.5872,0.6174,0.6557,0.7025,0.7105,0.6769,0.6589,0.5925,0.4539,0.3368,0.2341,0.1418,0.0185,-0.0246,0.0,-0.0306,-0.0245,0.0,0.0,0.0,0.0,-0.0227,-0.0505,-0.0729,-0.0785,-0.0953,-0.1173,-0.151,-0.1651,-0.1696,-0.1637,-0.1617,-0.1617,-0.1617,-0.1617,-0.1612,-0.1588,-0.1572,-0.1552,-0.1504,-0.1463,-0.1391,-0.1391,-0.1417,-0.1396,-0.1384,-0.1322,-0.1296,-0.1301,-0.1314,-0.1296,-0.1296,-0.1296,-0.1296,-0.1296,-0.1232,-0.1212,-0.1212,-0.1181,-0.1149,-0.1124,-0.1095,-0.1109,-0.1109,-0.1104,-0.1063,-0.1051,-0.1006,-0.0956,-0.0901,-0.0898,-0.0898,-0.0898,-0.0898,-0.0898,-0.0898,-0.101,-0.1205,-0.1455,-0.1903,-0.2519,-0.3272,-0.3605,-0.4021,0.2605,0.2908,0.3306,0.3441,0.3611,0.3688,0.0,0.0,0.3729,0.3814,0.4013,0.4205,0.4145,0.4049,0.4026,0.397,0.3859,0.3847,0.3902,0.3909,0.4115,0.466,0.4828,0.4988,0.5298,0.5477,0.5734,0.609,0.6312,0.6655,0.7108,0.7467,0.7386,0.6869,0.632,0.5341,0.3995,0.2772,0.1727,0.1049,0.0304,-0.006,0.0,-0.006,-0.006,0.0,0.0,0.0,0.0,-0.0057,-0.0056,-0.0112,-0.0336,-0.0449,-0.0558,-0.1133,-0.1491,-0.1696,-0.1637,-0.1617,-0.1617,-0.1617,-0.1617,-0.1616,-0.1613,-0.1574,-0.153,-0.1523,-0.1434,-0.1391,-0.1391,-0.1388,-0.1373,-0.1323,-0.1308,-0.129,-0.1314,-0.1299,-0.1296,-0.1296,-0.1296,-0.1296,-0.1296,-0.1232,-0.1212,-0.1212,-0.1163,-0.1125,-0.1086,-0.1095,-0.1109,-0.1109,-0.1053,-0.0985,-0.0932,-0.0922,-0.0904,-0.09,-0.0898,-0.0898,-0.0898,-0.0898,-0.0898,-0.0898,-0.0926,-0.0954,-0.0981,-0.1568,-0.2153,-0.2792,-0.3355,-0.3941,0.277,0.3025,0.3219,0.3365,0.3447,0.3517,0.3526,0.3548,0.3598,0.37,0.3904,0.3996,0.3927,0.3958,0.3909,0.0,0.3883,0.3891,0.3917,0.3913,0.4112,0.4709,0.5148,0.5511,0.5763,0.6019,0.6232,0.635,0.6719,0.6988,0.7212,0.758,0.7456,0.6644,0.5786,0.4681,0.3391,0.2097,0.1173,0.0679,0.0243,0.0,0.0,0.0,0.0,0.0,0.0,0.0,0.0,0.0,0.0,0.0,-0.0111,-0.0277,-0.0441,-0.0914,-0.1119,-0.1273,-0.133,-0.1364,-0.1415,-0.1566,-0.1617,-0.1613,-0.1596,-0.1573,-0.1545,-0.151,-0.1481,-0.1457,-0.1395,-0.1391,-0.1376,-0.1319,-0.1305,-0.129,-0.131,-0.1296,-0.1296,-0.1296,-0.1296,-0.1296,-0.1296,-0.1255,-0.1185,-0.1185,-0.1149,-0.1114,-0.1097,-0.1084,-0.1109,-0.1109,-0.1065,-0.1034,-0.0974,-0.0969,-0.0949,-0.09,-0.0898,-0.0898,-0.0898,-0.0898,-0.0898,-0.0898,-0.0898,-0.0898,-0.0898,-0.1429,-0.1989,-0.2603,-0.3168,-0.3826,0.28,0.3,0.3114,0.3268,0.3403,0.3467,0.3491,0.351,0.3546,0.3635,0.3724,0.383,0.3728,0.3813,0.3841,0.383,0.3866,0.3906,0.4001,0.4043,0.4227,0.4862,0.5445,0.5875,0.6107,0.6548,0.6757,0.6757,0.7064,0.7303,0.7334,0.7656,0.735,0.6278,0.517,0.4003,0.2714,0.1419,0.0616,0.0368,0.0121,0.0,0.0,0.0,0.0,0.0,0.0,0.0,0.0,0.0,0.0,0.0,0.0,-0.011,-0.0328,-0.0587,-0.0741,-0.0949,-0.1124,-0.1212,-0.1263,-0.1516,-0.1617,-0.1611,-0.1581,-0.1566,-0.1548,-0.1495,-0.1475,-0.1463,-0.1396,-0.1391,-0.1378,-0.1329,-0.1311,-0.1292,-0.1281,-0.1303,-0.1296,-0.1296,-0.1296,-0.1296,-0.1296,-0.1251,-0.1176,-0.1131,-0.1069,-0.1041,-0.1013,-0.1009,-0.1006,-0.1031,-0.1064,-0.104,-0.092,-0.0914,-0.0864,-0.076,-0.0757,-0.0757,-0.0757,-0.0814,-0.0842,-0.0842,-0.087,-0.0898,-0.0898,-0.1319,-0.1794,-0.2326,-0.2894,-0.3579,0.2714,0.2869,0.2966,0.3341,0.3496,0.3567,0.351,0.3542,0.3586,0.359,0.3593,0.3595,0.3593,0.3594,0.3634,0.3751,0.383,0.3931,0.4355,0.4376,0.4573,0.5143,0.5653,0.6047,0.0,0.6981,0.746,0.746,0.7463,0.7576,0.7695,0.7703,0.7153,0.5965,0.4614,0.3324,0.2035,0.0679,0.0,0.0,0.0,0.0,0.0,0.0,0.0,0.0,0.0,0.0,0.0,0.0,0.0,0.0,0.0,0.0,0.0,0.0,-0.0416,-0.0933,-0.1119,-0.1212,-0.1263,-0.1516,-0.1617,-0.1611,-0.1581,-0.1551,-0.1521,-0.1489,-0.1459,-0.1391,-0.1391,-0.1391,-0.1383,-0.1396,-0.1368,-0.1298,-0.1308,-0.1318,-0.1296,-0.1296,-0.1296,-0.1296,-0.1296,-0.1231,-0.1125,-0.0951,-0.0891,-0.0868,-0.0812,-0.0809,-0.0801,-0.0811,-0.0938,-0.0916,-0.0712,-0.0708,-0.0611,-0.0422,-0.0421,-0.0421,-0.0421,-0.0589,-0.0701,-0.0701,-0.0842,-0.0898,-0.0898,-0.1178,-0.1486,-0.1847,-0.2515,-0.3168,0.1562,0.2003,0.2468,0.2845,0.3363,0.3703,0.3681,0.3694,0.3696,0.3655,0.3616,0.3587,0.3587,0.3587,0.3615,0.3696,0.3836,0.3962,0.4304,0.4592,0.4933,0.5432,0.5996,0.0,0.0,0.0,0.0,0.7277,0.7426,0.7538,0.7578,0.7728,0.722,0.5968,0.4614,0.3263,0.2035,0.0679,0.0,0.0,0.0,0.0,0.0,0.0,0.0,0.0,0.0,0.0,0.0,0.0,0.0,0.0,0.0,0.0,0.0,0.0,-0.0153,-0.0357,-0.081,-0.096,-0.101,-0.1465,-0.1617,-0.1607,-0.1557,-0.1534,-0.1468,-0.1465,-0.1398,-0.1391,-0.1391,-0.1391,-0.1383,-0.1397,-0.1369,-0.1298,-0.1309,-0.1319,-0.1296,-0.1296,-0.1139,-0.1021,-0.1021,-0.0924,-0.0746,-0.0536,-0.059,-0.0613,-0.0607,-0.0607,-0.0638,-0.0799,-0.0731,-0.0682,-0.0764,-0.0638,-0.0505,-0.0394,-0.0393,-0.0393,-0.0393,-0.0477,-0.0561,-0.0701,-0.0757,-0.0813,-0.0898,-0.1119,-0.139,-0.1679,-0.2348,-0.3088,0.0733,0.1311,0.1927,0.2405,0.3082,0.3635,0.3687,0.3688,0.3674,0.3572,0.3501,0.3461,0.3461,0.3461,0.3493,0.3597,0.3715,0.3988,0.4391,0.482,0.5236,0.5726,0.6289,0.6674,0.0,0.0,0.0,0.7217,0.7445,0.7584,0.7584,0.7766,0.7255,0.5968,0.4614,0.3263,0.2035,0.0679,0.0,0.0,0.0,0.0,0.0,0.0,0.0,0.0,0.0,0.0,0.0,0.0,0.0,0.0,0.0,0.0,0.0,0.0,0.0,-0.0051,-0.0505,-0.0707,-0.0859,-0.1314,-0.1509,-0.1592,-0.1541,-0.1519,-0.15,-0.1404,-0.1391,-0.1391,-0.1391,-0.1391,-0.1385,-0.1411,-0.1333,-0.1301,-0.1282,-0.1286,-0.1257,-0.1178,-0.1021,-0.0864,-0.0825,-0.0616,-0.0448,-0.0322,-0.0313,-0.0307,-0.0337,-0.0371,-0.0472,-0.0607,-0.0534,-0.0521,-0.062,-0.0489,-0.0386,-0.0253,-0.0252,-0.0252,-0.0252,-0.0308,-0.0393,-0.0533,-0.0645,-0.0729,-0.0842,-0.1015,-0.1178,-0.1355,-0.2098,-0.283,0.0163,0.0675,0.1327,0.1958,0.2679,0.3317,0.3432,0.3544,0.3531,0.3349,0.3262,0.3167,0.3167,0.0,0.3279,0.3459,0.3595,0.3951,0.4674,0.5185,0.5604,0.0,0.0,0.0,0.0,0.0,0.0,0.728,0.0,0.7693,0.7693,0.7807,0.7255,0.5968,0.4614,0.3263,0.2035,0.0678,0.0,0.0,0.0,0.0,0.0,0.0,0.0,0.0,0.0,0.0,0.0,0.0,0.0,0.0,0.0,0.0,0.0,0.0,0.0,-0.0051,-0.0303,-0.0556,-0.0808,-0.111,-0.1395,-0.1566,-0.1534,-0.1504,-0.1474,-0.1399,-0.139,-0.1345,-0.1345,-0.1345,-0.1345,-0.1345,-0.1304,-0.1263,-0.1263,-0.1259,-0.1178,-0.0943,-0.0864,-0.0825,-0.0589,-0.0424,-0.0301,-0.0293,-0.0107,0.0,0.0,-0.0169,-0.0303,-0.0303,-0.0395,-0.0415,-0.031,-0.03,-0.0204,0.0,0.0,0.0,0.0,-0.0112,-0.0196,-0.0196,-0.0505,-0.0673,-0.0701,-0.0843,-0.0886,-0.0917,-0.173,-0.2484,-0.096,-0.0469,0.0121,0.0777,0.1792,0.2662,0.2876,0.3211,0.3455,0.3181,0.3101,0.3075,0.3075,0.3113,0.0,0.3337,0.3542,0.0,0.4724,0.539,0.0,0.6476,0.0,0.7477,0.7327,0.7369,0.0,0.0,0.7529,0.7565,0.7565,0.7761,0.7255,0.5968,0.4614,0.3263,0.2035,0.0671,0.0,0.0,0.0,0.0,0.0,0.0,0.0,0.0,0.0,0.0,0.0,0.0,0.0,0.0,0.0,0.0,0.0,0.0,0.0,0.0,-0.0101,-0.0253,-0.0554,-0.1043,-0.1232,-0.1318,-0.1461,-0.1347,-0.1198,-0.1173,-0.1031,-0.0897,-0.0897,-0.0897,-0.0897,-0.0897,-0.0869,-0.0842,-0.0842,-0.0813,-0.0746,-0.0707,-0.055,-0.0393,-0.0196,-0.0117,-0.0077,-0.0073,-0.0036,0.0,0.0,-0.0034,-0.0135,-0.027,-0.0201,-0.0163,-0.0279,-0.0153,-0.006,0.0,0.0,0.0,0.0,-0.0028,-0.0084,-0.0196,-0.028,-0.0449,-0.0701,-0.0773,-0.0885,-0.0978,-0.1653,-0.236,-0.1634,-0.1143,-0.0614,-0.006,0.1009,0.1979,0.2309,0.2765,0.3126,0.3019,0.2926,0.2885,0.2885,0.2936,0.0,0.0,0.0,0.0,0.4593,0.5326,0.5939,0.0,0.7174,0.0,0.7451,0.7489,0.7519,0.0,0.7568,0.76,0.76,0.7771,0.7255,0.5968,0.4614,0.3006,0.116,0.0366,0.0,0.0,0.0,0.0,0.0,0.0,0.0,0.0,0.0,0.0,0.0,0.0,0.0,0.0,0.0,0.0,0.0,0.0,0.0,0.0,0.0,-0.0101,-0.0302,-0.0692,-0.0976,-0.1157,-0.1168,-0.1149,-0.1093,-0.0945,-0.0807,-0.0718,-0.0718,-0.0718,-0.0718,-0.0718,-0.0695,-0.0716,-0.0716,-0.065,-0.0589,-0.0471,-0.0314,-0.0118,0.0,0.0,0.0,0.0,0.0,0.0,0.0,0.0,-0.0034,-0.0169,-0.0067,-0.0032,-0.0155,-0.0061,0.0,0.0,0.0,0.0,0.0,0.0,-0.0028,-0.0112,-0.0168,-0.028,-0.0477,-0.0599,-0.071,-0.0804,-0.1377,-0.1949,-0.1858,-0.1528,-0.1044,-0.0713,0.0233,0.1186,0.1682,0.2205,0.2631,0.2741,0.0,0.2658,0.2666,0.2718,0.282,0.3054,0.0,0.3655,0.4389,0.5121,0.5789,0.6338,0.7061,0.7502,0.7336,0.7494,0.7565,0.7565,0.7663,0.7717,0.7641,0.7749,0.7072,0.5538,0.4244,0.2447,0.0,0.0,0.0,0.0,0.0,0.0,0.0,0.0,0.0,0.0,0.0,0.0,0.0,0.0,0.0,0.0,0.0,0.0,0.0,0.0,0.0,0.0,0.0,0.0,-0.005,-0.0295,-0.0677,-0.0997,-0.0835,-0.091,-0.0942,-0.0718,-0.0628,-0.0628,-0.0628,-0.0628,-0.0628,-0.0628,-0.0608,-0.059,-0.059,-0.0568,-0.0471,-0.0275,-0.0118,0.0,0.0,0.0,0.0,0.0,0.0,0.0,0.0,0.0,0.0,0.0,0.0,0.0,0.0,0.0,0.0,0.0,0.0,0.0,0.0,0.0,0.0,0.0,-0.0113,-0.017,-0.0198,-0.0392,-0.0496,-0.0526,-0.1016,-0.1444,-0.1935,-0.1847,-0.1742,-0.137,-0.0698,-0.0056,0.0569,0.1314,0.0,0.0,0.2312,0.2482,0.2533,0.2591,0.2707,0.2982,0.0,0.0,0.0,0.0,0.5814,0.0,0.0,0.0,0.0,0.0,0.0,0.0,0.0,0.7677,0.7282,0.7137,0.5965,0.357,0.2464,0.1293,0.0,0.0,0.0,0.0,0.0,0.0,0.0,0.0,0.0,0.0,0.0,0.0,0.0,0.0,0.0,0.0,0.0,0.0,0.0,0.0,0.0,0.0,0.0,0.0,-0.0049,-0.0289,-0.0478,-0.0568,-0.0684,-0.063,-0.0493,-0.0448,-0.0314,-0.0135,-0.0135,-0.0135,-0.0135,-0.0135,-0.013,-0.0126,-0.0126,-0.0122,-0.0079,-0.0039,-0.0039,0.0,0.0,0.0,0.0,0.0,0.0,0.0,0.0,0.0,0.0,0.0,0.0,0.0,0.0,0.0,0.0,0.0,0.0,0.0,0.0,0.0,0.0,0.0,-0.003,-0.009,-0.0204,-0.028,-0.038,-0.0495,-0.0754,-0.1176,-0.195,-0.1975,-0.1914,-0.1649,-0.1142,-0.0548,0.0,0.0,0.0,0.0,0.2128,0.2311,0.2371,0.2467,0.0,0.2785,0.0,0.0,0.0,0.0,0.0,0.0,0.0,0.0,0.0,0.0,0.0,0.0,0.0,0.7662,0.7062,0.5945,0.4433,0.2526,0.1665,0.086,0.0,0.0,0.0,0.0,0.0,0.0,0.0,0.0,0.0,0.0,0.0,0.0,0.0,0.0,0.0,0.0,0.0,0.0,0.0,0.0,0.0,0.0,0.0,0.0,0.0,-0.0142,-0.0282,-0.0373,-0.0362,-0.0359,-0.0359,-0.0224,-0.009,0.0,0.0,0.0,0.0,0.0,0.0,0.0,0.0,0.0,0.0,0.0,0.0,0.0,0.0,0.0,0.0,0.0,0.0,0.0,0.0,0.0,0.0,0.0,0.0,0.0,0.0,0.0,0.0,0.0,0.0,0.0,0.0,0.0,0.0,0.0,0.0,-0.0031,-0.0091,-0.0126,-0.0192,-0.0253,-0.0462,-0.0673,-0.1956,-0.1976,-0.1962,-0.1807,-0.1458,-0.0961,-0.0388,0.04,0.0,0.0,0.1974,0.2209,0.2269,0.2315,0.2441,0.0,0.2888,0.3271,0.0,0.0,0.0,0.0,0.0,0.0,0.0,0.0,0.0,0.0,0.0,0.0,0.6644,0.4865,0.3266,0.1911,0.1292,0.0672,0.0,0.0,0.0,0.0,0.0,0.0,0.0,0.0,0.0,0.0,0.0,0.0,0.0,0.0,0.0,0.0,0.0,0.0,0.0,0.0,0.0,0.0,0.0,0.0,0.0,0.0,-0.0139,-0.0276,-0.0045,-0.0135,-0.0269,-0.0045,0.0,0.0,0.0,0.0,0.0,0.0,0.0,0.0,0.0,0.0,0.0,0.0,0.0,0.0,0.0,0.0,0.0,0.0,0.0,0.0,0.0,0.0,0.0,0.0,0.0,0.0,0.0,0.0,0.0,0.0,0.0,0.0,0.0,0.0,0.0,0.0,0.0,0.0,0.0,0.0,0.0,0.0,-0.0166,-0.027,-0.1941,-0.1974,-0.1987,-0.1811,-0.1739,-0.1543,-0.0953,0.0,0.0519,0.108,0.1722,0.2215,0.2206,0.2222,0.2283,0.2497,0.0,0.3071,0.0,0.0,0.0,0.0,0.0,0.0,0.0,0.0,0.0,0.0,0.0,0.0,0.5604,0.4498,0.3204,0.1603,0.1218,0.0665,0.0,0.0,0.0,0.0,0.0,0.0,0.0,0.0,0.0,0.0,0.0,0.0,0.0,0.0,0.0,0.0,0.0,0.0,0.0,0.0,0.0,0.0,0.0,0.0,0.0,0.0,0.0,-0.0046,0.0,0.0,-0.0045,0.0,0.0,0.0,0.0,0.0,0.0,0.0,0.0,0.0,0.0,0.0,0.0,0.0,0.0,0.0,0.0,0.0,0.0,0.0,0.0,0.0,0.0,0.0,0.0,0.0,0.0,0.0,0.0,0.0,0.0,0.0,0.0,0.0,0.0,0.0,0.0,0.0,0.0,0.0,0.0,0.0,0.0,0.0,-0.0033,-0.0135,-0.187,-0.1907,-0.1909,-0.1789,-0.1714,-0.1521,-0.0946,0.0,0.0306,0.0829,0.1416,0.1891,0.2014,0.2046,0.2147,0.2394,0.2578,0.2898,0.3605,0.0,0.0,0.0,0.0,0.0,0.0,0.0,0.0,0.0,0.0,0.0,0.6035,0.4681,0.3266,0.1849,0.1277,0.0664,0.0,0.0,0.0,0.0,0.0,0.0,0.0,0.0,0.0,0.0,0.0,0.0,0.0,0.0,0.0,0.0,0.0,0.0,0.0,0.0,0.0,0.0,0.0,0.0,0.0,0.0,0.0,0.0,0.0,0.0,0.0,0.0,0.0,0.0,0.0,0.0,0.0,0.0,0.0,0.0,0.0,0.0,0.0,0.0,0.0,0.0,0.0,0.0,0.0,0.0,0.0,0.0,0.0,0.0,0.0,0.0,0.0,0.0,0.0,0.0,0.0,0.0,0.0,0.0,0.0,0.0,0.0,0.0,0.0,0.0,0.0,0.0,0.0,0.0,0.0,-0.0034,-0.173,-0.1829,-0.1832,-0.172,-0.1596,-0.1363,0.0,-0.0319,0.0223,0.0631,0.1117,0.1494,0.1694,0.1824,0.1985,0.2238,0.243,0.272,0.33,0.3753,0.0,0.0,0.0,0.0,0.0,0.0,0.0,0.0,0.0,0.0,0.0,0.5334,0.3734,0.2205,0.1509,0.0777,0.0,0.0,0.0,0.0,0.0,0.0,0.0,0.0,0.0,0.0,0.0,0.0,0.0,0.0,0.0,0.0,0.0,0.0,0.0,0.0,0.0,0.0,0.0,0.0,0.0,0.0,0.0,0.0,0.0,0.0,0.0,0.0,0.0,0.0,0.0,0.0,0.0,0.0,0.0,0.0,0.0,0.0,0.0,0.0,0.0,0.0,0.0,0.0,0.0,0.0,0.0,0.0,0.0,0.0,0.0,0.0,0.0,0.0,0.0,0.0,0.0,0.0,0.0,0.0,0.0,0.0,0.0,0.0,0.0,0.0,0.0,0.0,0.0,0.0,0.0,-0.0034,-0.1645,-0.175,-0.1774,-0.1738,-0.1516,-0.1197,-0.0864,-0.0279,0.0259,0.0445,0.0822,0.1159,0.1288,0.1482,0.1677,0.1947,0.2235,0.252,0.2859,0.3359,0.0,0.0,0.0,0.0,0.0,0.0,0.0,0.0,0.0,0.0,0.0,0.6554,0.4759,0.2592,0.1841,0.0994,0.0,0.0,0.0,0.0,0.0,0.0,0.0,0.0,0.0,0.0,0.0,0.0,0.0,0.0,0.0,0.0,0.0,0.0,0.0,0.0,0.0,0.0,0.0,0.0,0.0,0.0,0.0,0.0,0.0,0.0,0.0,0.0,0.0,0.0,0.0,0.0,0.0,0.0,0.0,0.0,0.0,0.0,0.0,0.0,0.0,0.0,0.0,0.0,0.0,0.0,0.0,0.0,0.0,0.0,0.0,0.0,0.0,0.0,0.0,0.0,0.0,0.0,0.0,0.0,0.0,0.0,0.0,0.0,0.0,0.0,0.0,0.0,0.0,0.0,0.0,-0.0101,-0.1323,-0.1511,-0.1626,-0.141,-0.1247,-0.1042,-0.064,-0.0222,0.0104,0.033,0.0543,0.0782,0.1033,0.1367,0.1729,0.2067,0.2353,0.0,0.0,0.0,0.0,0.0,0.0,0.0,0.0,0.0,0.0,0.0,0.0,0.0,0.0,0.6587,0.5234,0.3487,0.2349,0.1214,0.0,0.0,0.0,0.0,0.0,0.0,0.0,0.0,0.0,0.0,0.0,0.0,0.0,0.0,0.0,0.0,0.0,0.0,0.0,0.0,0.0,0.0,0.0,0.0,0.0,0.0,0.0,0.0,0.0,0.0,0.0,0.0,0.0,0.0,0.0,0.0,0.0,0.0,0.0,0.0,0.0,0.0,0.0,0.0,0.0,0.0,0.0,0.0,0.0,0.0,0.0,0.0,0.0,0.0,0.0,0.0,0.0,0.0,0.0,0.0,0.0,0.0,0.0,0.0,0.0,0.0,0.0,0.0,0.0,0.0,0.0,0.0,0.0,0.0,0.0,-0.0034,-0.1022,-0.115,-0.1257,-0.1071,-0.0937,-0.0767,-0.0455,-0.0177,0.0033,0.016,0.0248,0.0425,0.0758,0.12,0.1642,0.2006,0.2392,0.2718,0.0,0.0,0.0,0.0,0.0,0.0,0.0,0.0,0.0,0.0,0.0,0.0,0.0,0.6657,0.5671,0.4544,0.3016,0.1604,0.0342,0.0338,0.0336,0.0336,0.0334,0.0278,0.0167,0.0161,0.0,0.0,0.0,0.0,0.0,0.0,0.0,0.0,0.0,0.0,0.0,0.0,0.0,0.0,0.0,0.0,0.0,0.0,0.0,0.0,0.0,0.0,0.0,0.0,0.0,0.0,0.0,0.0,0.0,0.0,0.0,0.0,0.0,0.0,0.0,0.0,0.0,0.0,0.0,0.0,0.0,0.0,0.0,0.0,0.0,0.0,0.0,0.0,0.0,0.0,0.0,0.0,0.0,0.0,0.0,0.0,0.0,0.0,0.0,0.0,0.0,0.0,0.0,0.0,0.0,0.0,0.0,0.0,0.0,-0.0749,-0.0768,-0.0778,-0.0596,-0.0385,-0.0366,-0.0174,0.0,0.0,0.0,0.0088,0.044,0.1,0.1473,0.1755,0.23,0.0,0.0,0.0,0.0,0.0,0.0,0.0,0.0,0.0,0.0,0.0,0.0,0.0,0.0,0.6809,0.6123,0.5545,0.3894,0.239,0.1121,0.1065,0.1065,0.1065,0.1047,0.082,0.0492,0.0475,0.0,0.0,0.0,0.0,0.0,0.0,0.0,0.0,0.0,0.0,0.0,0.0,0.0,0.0,0.0,0.0,0.0,0.0,0.0,0.0,0.0,0.0,0.0,0.0,0.0,0.0,0.0,0.0,0.0,0.0,0.0,0.0,0.0,0.0,0.0,0.0,0.0,0.0,0.0,0.0,0.0,0.0,0.0,0.0,0.0,0.0,0.0,0.0,0.0,0.0,0.0,0.0,0.0,0.0,0.0,0.0,0.0,0.0,0.0,0.0,0.0,0.0,0.0,0.0,0.0,0.0,0.0,0.0,-0.0177,0.0,-0.0703,-0.0541,-0.041,-0.0286,0.0,-0.0033,0.0,0.0,0.0,0.0085,0.0369,0.0915,0.1449,0.1826,0.2169,0.2536,0.0,0.0,0.0,0.0,0.0,0.0,0.0,0.0,0.0,0.0,0.0,0.0,0.0,0.6878,0.6359,0.574,0.5122,0.4214,0.2966,0.2966,0.2966,0.2966,0.2422,0.1965,0.1473,0.0949,0.0,0.0,0.0,0.0,0.0,0.0,0.0,0.0,0.0,0.0,0.0,0.0,0.0,0.0,0.0,0.0,0.0,0.0,0.0,0.0,0.0,0.0,0.0,0.0,0.0,0.0,0.0,0.0,0.0,0.0,0.0,0.0,0.0,0.0,0.0,0.0,0.0,0.0,0.0,0.0,0.0,0.0,0.0,0.0,0.0,0.0,0.0,0.0,0.0,0.0,0.0,0.0,0.0,0.0,0.0,0.0,0.0,0.0,0.0,0.0,0.0,0.0,0.0,0.0,0.0,0.0,0.0,0.0,0.0,-0.0177,-0.037,-0.0253,-0.0176,-0.0137,-0.0033,0.0,0.0,0.0,0.0,0.0056,0.0258,0.0746,0.1187,0.1436,0.1726,0.0,0.0,0.0,0.0,0.0,0.0,0.0,0.0,0.0,0.0,0.0,0.0,0.0,0.0,0.7043,0.6768,0.6434,0.632,0.5536,0.403,0.4029,0.3958,0.3926,0.3427,0.2795,0.2077,0.1608,0.0922,0.0,0.0,0.0,0.0,0.0,0.0,0.0,0.0,0.0,0.0,0.0,0.0,0.0,0.0,0.0,0.0,0.0,0.0,0.0,0.0,0.0,0.0,0.0,0.0,0.0,0.0,0.0,0.0,0.0,0.0,0.0,0.0,0.0,0.0,0.0,0.0,0.0,0.0,0.0,0.0,0.0,0.0,0.0,0.0,0.0,0.0,0.0,0.0,0.0,0.0,0.0,0.0,0.0,0.0,0.0,0.0,0.0,0.0,0.0,0.0,0.0,0.0,0.0,0.0,0.0,0.0,0.0,0.0,0.0,0.0,0.0,0.0,0.0,0.0,0.0,0.0,0.0,0.0,0.0029,0.0178,0.0551,0.0,0.0,0.0,0.0,0.0,0.0,0.0,0.0,0.0,0.0,0.0,0.0,0.0,0.0,0.0,0.0,0.0,0.7166,0.7155,0.7155,0.7155,0.638,0.4888,0.4845,0.4816,0.4691,0.4335,0.3734,0.2849,0.239,0.1614,0.0,0.0,0.0,0.0,0.0,0.0,0.0,0.0,0.0,0.0,0.0,0.0,0.0,0.0,0.0,0.0,0.0,0.0,0.0,0.0,0.0,0.0,0.0,0.0,0.0,0.0,0.0,0.0,0.0,0.0,0.0,0.0,0.0,0.0,0.0,0.0,0.0,0.0,0.0,0.0,0.0,0.0,0.0,0.0,0.0,0.0,0.0,0.0,0.0,0.0,0.0,0.0,0.0,0.0,0.0,0.0,0.0,0.0,0.0,0.0,0.0,0.0,0.0,0.0,0.0,0.0,0.0,0.0,0.0,0.0,0.0,0.0,0.0,0.0,0.0,0.0,0.0,0.0,0.0031,0.019,0.0391,0.0647,0.0,0.0,0.0,0.0,0.0,0.0,0.0,0.0,0.0,0.0,0.0,0.0,0.0,0.0,0.0,0.0,0.6912,0.6855,0.6855,0.6855,0.6749,0.6429,0.658,0.6619,0.6598,0.586,0.5188,0.4599,0.3504,0.2418,0.0,0.0,0.0455,0.0,0.0,0.0,0.0,0.0,0.0,0.0,0.0,0.0,0.0,0.0,0.0,0.0,0.0,0.0,0.0,0.0,0.0,0.0,0.0,0.0,0.0,0.0,0.0,0.0,0.0,0.0,0.0,0.0,0.0,0.0,0.0,0.0,0.0,0.0,0.0,0.0,0.0,0.0,0.0,0.0,0.0,0.0,0.0,0.0,0.0,0.0,0.0,0.0,0.0,0.0,0.0,0.0,0.0,0.0,0.0,0.0,0.0,0.0,0.0,0.0,0.0,0.0,0.0,0.0,0.0,0.0,0.0,0.0,0.0,0.0,0.0,0.0,0.0,0.0,0.0,0.0,0.0,0.026,0.0411,0.0,0.0,0.0,0.0,0.0,0.0,0.0,0.0,0.0,0.0,0.0,0.0,0.0,0.0,0.0,0.0,0.6801,0.6801,0.6801,0.6801,0.6801,0.6793,0.6787,0.6787,0.6261,0.5714,0.5097,0.4248,0.3176,0.2017,0.0,0.1054,0.0447,0.0444,0.0339,0.0237,0.0326,0.0322,0.0227,0.0225,0.0224,0.018,0.0045,0.0,0.0,0.0,0.0,0.0,0.0,0.0,0.0,0.0,0.0,0.0,0.0,0.0,0.0,0.0,0.0,0.0,0.0,0.0,0.0,0.0,0.0,0.0,0.0,0.0,0.0,0.0,0.0,0.0,0.0,0.0,0.0,0.0,0.0,0.0,0.0,0.0,0.0,0.0,0.0,0.0,0.0,0.0,0.0,0.0,0.0,0.0,0.0,0.0,0.0,0.0,0.0,0.0,0.0,0.0,0.0,0.0,0.0,0.0,0.0,0.0,0.0,0.0,0.0,0.0,0.0,0.0,0.0,0.0,0.0,0.0,0.0,0.0,0.0,0.0,0.0,0.0,0.0,0.0,0.0,0.0,0.0,0.0,0.0,0.0,0.6717,0.6717,0.6717,0.6717,0.6717,0.6624,0.6592,0.6619,0.6338,0.5974,0.5441,0.4939,0.4033,0.2923,0.2609,0.2037,0.1323,0.1166,0.0903,0.0647,0.0736,0.0682,0.0583,0.0628,0.0583,0.0404,0.009,0.0,0.0,0.0,0.0,0.0,0.0,0.0,0.0,0.0,0.0,0.0,0.0,0.0,0.0,0.0,0.0,0.0,0.0,0.0,0.0,0.0,0.0,0.0,0.0,0.0,0.0,0.0,0.0,0.0,0.0,0.0,0.0,0.0,0.0,0.0,0.0,0.0,0.0,0.0,0.0,0.0,0.0,0.0,0.0,0.0,0.0,0.0,0.0,0.0,0.0,0.0,0.0,0.0,0.0,0.0,0.0,0.0,0.0,0.0,0.0,0.0,0.0,0.0,0.0,0.0,0.0,0.0,0.0,0.0,0.0,0.0,0.0,0.0,0.0,0.0,0.0,0.0,0.0,0.0,0.0,0.0,0.0,0.0,0.0,0.0,0.0,0.6414,0.6414,0.6414,0.6414,0.6403,0.6457,0.6619,0.6452,0.6345,0.6287,0.5734,0.5186,0.4578,0.4005,0.3433,0.2783,0.2214,0.176,0.129,0.1132,0.1078,0.1076,0.1256,0.1031,0.0628,0.018,0.0,0.0,0.0,0.0,0.0,0.0,0.0,0.0,0.0,0.0,0.0,0.0,0.0,0.0,0.0,0.0,0.0,0.0,0.0,0.0,0.0,0.0,0.0,0.0,0.0,0.0,0.0,0.0,0.0,0.0,0.0,0.0,0.0,0.0,0.0,0.0,0.0,0.0,0.0,0.0,0.0,0.0,0.0,0.0,0.0,0.0,0.0,0.0,0.0,0.0,0.0,0.0,0.0,0.0,0.0,0.0,0.0,0.0,0.0,0.0,0.0,0.0,0.0,0.0,0.0,0.0,0.0,0.0,0.0,0.0,0.0,0.0,0.0,0.0,0.0,0.0,0.0,0.0,0.0,0.0,0.0,0.0,0.0,0.0,0.0,0.0,0.6387,0.6387,0.6387,0.6387,0.6387,0.6411,0.6454,0.6408,0.6387,0.6387,0.6039,0.5553,0.4948,0.4567,0.4009,0.3347,0.2974,0.243,0.181,0.1797,0.1972,0.2195,0.1972,0.1658,0.1256,0.0494,0.0269,0.0224,0.0045,0.0,0.0,0.0,0.0,0.0,0.0,0.0,0.0,0.0,0.0,0.0,0.0,0.0,0.0,0.0,0.0,0.0,0.0,0.0,0.0,0.0,0.0,0.0,0.0,0.0,0.0,0.0,0.0,0.0,0.0,0.0,0.0,0.0,0.0,0.0,0.0,0.0,0.0,0.0,0.0,0.0,0.0,0.0,0.0,0.0,0.0,0.0,0.0,0.0,0.0,0.0,0.0,0.0,0.0,0.0,0.0,0.0,0.0,0.0,0.0,0.0,0.0,0.0,0.0,0.0,0.0,0.0,0.0,0.0,0.0,0.0,0.0,0.0,0.0,0.0,0.0,0.0,0.0,0.0,0.0,0.0,0.0,0.0,0.0,0.6387,0.6387,0.6387,0.6387,0.6368,0.6382,0.6371,0.6387,0.6387,0.6189,0.5879,0.5482,0.5252,0.4853,0.4288,0.3988,0.3356,0.2685,0.282,0.2999,0.3179,0.2955,0.2553,0.2017,0.1031,0.0628,0.0448,0.009,0.0,0.0,0.0,0.0,0.0,0.0,0.0,0.0,0.0,0.0,0.0,0.0,0.0,0.0,0.0,0.0,0.0,0.0,0.0,0.0,0.0,0.0,0.0,0.0,0.0,0.0,0.0,0.0,0.0,0.0,0.0,0.0,0.0,0.0,0.0,0.0,0.0,0.0,0.0,0.0,0.0,0.0,0.0,0.0,0.0,0.0,0.0,0.0,0.0,0.0,0.0,0.0,0.0,0.0,0.0,0.0,0.0,0.0,0.0,0.0,0.0,0.0,0.0,0.0,0.0,0.0,0.0,0.0,0.0,0.0,0.0,0.0,0.0,0.0,0.0,0.0,0.0,0.0,0.0,0.0,0.0,0.0,0.0,0.0,0.6387,0.6387,0.6387,0.6387,0.638,0.632,0.6382,0.6384,0.6384,0.6384,0.6374,0.6309,0.6138,0.6013,0.5847,0.5233,0.4563,0.3939,0.4208,0.4164,0.3939,0.4208,0.3717,0.2777,0.1749,0.1076,0.0628,0.0135,0.0,0.0,0.0,0.0,0.0,0.0,0.0,0.0,0.0,0.0,0.0,0.0,0.0,0.0,0.0,0.0,0.0,0.0,0.0,0.0,0.0,0.0,0.0,0.0,0.0,0.0,0.0,0.0,0.0,0.0,0.0,0.0,0.0,0.0,0.0,0.0,0.0,0.0,0.0,0.0,0.0,0.0,0.0,0.0,0.0,0.0,0.0,0.0,0.0,0.0,0.0,0.0,0.0,0.0,0.0,0.0,0.0,0.0,0.0,0.0,0.0,0.0,0.0,0.0,0.0,0.0,0.0,0.0,0.0,0.0,0.0,0.0,0.0,0.0,0.0,0.0,0.0,0.0,0.0,0.0,0.0,0.0,0.0,0.0,0.6387,0.6387,0.6387,0.6387,0.638,0.6317,0.6301,0.632,0.632,0.632,0.6252,0.6132,0.601,0.589,0.5692,0.5067,0.4741,0.4652,0.4607,0.4607,0.4652,0.4607,0.4072,0.3227,0.206,0.1389,0.0852,0.0225,0.0,0.0,0.0,0.0,0.0,0.0,0.0,0.0,0.0,0.0,0.0,0.0,0.0,0.0,0.0,0.0,0.0,0.0,0.0,0.0,0.0,0.0,0.0,0.0,0.0,0.0,0.0,0.0,0.0,0.0,0.0,0.0,0.0,0.0,0.0,0.0,0.0,0.0,0.0,0.0,0.0,0.0,0.0,0.0,0.0,0.0,0.0,0.0,0.0,0.0,0.0,0.0,0.0,0.0,0.0,0.0,0.0,0.0,0.0,0.0,0.0,0.0,0.0,0.0,0.0,0.0,0.0,0.0,0.0,0.0,0.0,0.0,0.0,0.0,0.0,0.0,0.0,0.0,0.0,0.0,0.0,0.0,0.0,0.0,0.6387,0.6387,0.6387,0.6391,0.6312,0.6243,0.6243,0.617,0.6124,0.6173,0.613,0.6007,0.5888,0.5798,0.5688,0.528,0.5191,0.528,0.5146,0.5191,0.528,0.5144,0.4567,0.3719,0.2597,0.1792,0.1077,0.0269,0.0,0.0,0.0,0.0,0.0,0.0,0.0,0.0,0.0,0.0,0.0,0.0,0.0,0.0,0.0,0.0,0.0,0.0,0.0,0.0,0.0,0.0,0.0,0.0,0.0,0.0,0.0,0.0,0.0,0.0,0.0,0.0,0.0,0.0,0.0,0.0,0.0,0.0,0.0,0.0,0.0,0.0,0.0,0.0,0.0,0.0,0.0,0.0,0.0,0.0,0.0,0.0,0.0,0.0,0.0,0.0,0.0,0.0,0.0,0.0,0.0,0.0,0.0,0.0,0.0,0.0,0.0,0.0,0.0,0.0,0.0,0.0,0.0,0.0,0.0,0.0,0.0,0.0,0.0,0.0,0.0,0.0,0.0,0.6354,0.6354,0.6354,0.6354,0.6304,0.6237,0.0,0.607,0.6005,0.589,0.6013,0.6002,0.5882,0.5734,0.5688,0.5688,0.5688,0.5688,0.5688,0.5688,0.5688,0.5688,0.5688,0.5104,0.421,0.3269,0.2286,0.1301,0.0359,0.0045,0.0045,0.0,0.0,0.0,0.0,0.0,0.0,0.0,0.0,0.0,0.0,0.0,0.0,0.0,0.0,0.0,0.0,0.0,0.0,0.0,0.0,0.0,0.0,0.0,0.0,0.0,0.0,0.0,0.0,0.0,0.0,0.0,0.0,0.0,0.0,0.0,0.0,0.0,0.0,0.0,0.0,0.0,0.0,0.0,0.0,0.0,0.0,0.0,0.0,0.0,0.0,0.0,0.0,0.0,0.0,0.0,0.0,0.0,0.0,0.0,0.0,0.0,0.0,0.0,0.0,0.0,0.0,0.0,0.0,0.0,0.0,0.0,0.0,0.0,0.0,0.0,0.0,0.0,0.0,0.0,0.0,0.0,0.6162,0.6162,0.6162,0.6162,0.6138,0.6064,0.0,0.5942,0.5882,0.5729,0.589,0.588,0.5723,0.5699,0.5688,0.5688,0.5688,0.5688,0.5688,0.5688,0.5688,0.5688,0.5688,0.524,0.448,0.3491,0.2643,0.1839,0.0673,0.0314,0.0268,0.0044,0.0,0.0,0.0,0.0,0.0,0.0,0.0,0.0,0.0,0.0,0.0,0.0,0.0,0.0,0.0,0.0,0.0,0.0,0.0,0.0,0.0,0.0,0.0,0.0,0.0,0.0,0.0,0.0,0.0,0.0,0.0,0.0,0.0,0.0,0.0,0.0,0.0,0.0,0.0,0.0,0.0,0.0,0.0,0.0,0.0,0.0,0.0,0.0,0.0,0.0,0.0,0.0,0.0,0.0,0.0,0.0,0.0,0.0,0.0,0.0,0.0,0.0,0.0,0.0,0.0,0.0,0.0,0.0,0.0,0.0,0.0,0.0,0.0,0.0,0.0,0.0,0.0,0.0,0.6053,0.6086,0.6086,0.6086,0.6086,0.6086,0.6029,0.5966,0.5904,0.5847,0.5748,0.5691,0.5795,0.5745,0.5688,0.5688,0.5688,0.5688,0.5688,0.5688,0.5688,0.5688,0.5688,0.5688,0.5688,0.5329,0.4746,0.3981,0.3224,0.2332,0.1256,0.0712,0.0485,0.0131,0.0,0.0,0.0,0.0,0.0,0.0,0.0,0.0,0.0,0.0,0.0,0.0,0.0,0.0,0.0,0.0,0.0,0.0,0.0,0.0,0.0,0.0,0.0,0.0,0.0,0.0,0.0,0.0,0.0,0.0,0.0,0.0,0.0,0.0,0.0,0.0,0.0,0.0,0.0,0.0,0.0,0.0,0.0,0.0,0.0,0.0,0.0,0.0,0.0,0.0,0.0,0.0,0.0,0.0,0.0,0.0,0.0,0.0,0.0,0.0,0.0,0.0,0.0,0.0,0.0,0.0,0.0,0.0,0.0,0.0,0.0,0.0,0.0,0.0,0.0,0.0,0.0,0.588,0.5969,0.6026,0.6026,0.6026,0.6026,0.6026,0.5923,0.5874,0.5871,0.5734,0.5688,0.5688,0.5688,0.5688,0.5688,0.5688,0.5688,0.5688,0.5688,0.5688,0.5688,0.5688,0.5688,0.5688,0.5688,0.5416,0.501,0.452,0.3807,0.2911,0.1837,0.1241,0.0785,0.026,0.0127,0.0123,0.0081,0.004,0.0039,0.0,0.0,0.0,0.0,0.0,0.0,0.0,0.0,0.0,0.0,0.0,0.0,0.0,0.0,0.0,0.0,0.0,0.0,0.0,0.0,0.0,0.0,0.0,0.0,0.0,0.0,0.0,0.0,0.0,0.0,0.0,0.0,0.0,0.0,0.0,0.0,0.0,0.0,0.0,0.0,0.0,0.0,0.0,0.0,0.0,0.0,0.0,0.0,0.0,0.0,0.0,0.0,0.0,0.0,0.0,0.0,0.0,0.0,0.0,0.0,0.0,0.0,0.0,0.0,0.0,0.0,0.0,0.0,0.0,0.0,0.0,0.0,0.5712,0.5726,0.5734,0.5734,0.5734,0.5734,0.5734,0.5721,0.5712,0.5712,0.5696,0.5688,0.5688,0.5688,0.5688,0.5688,0.5688,0.5688,0.5688,0.5688,0.5688,0.5688,0.5688,0.5688,0.5688,0.5688,0.5552,0.528,0.483,0.4249,0.358,0.2372,0.1834,0.1509,0.0813,0.059,0.054,0.0319,0.0276,0.0236,0.0039,0.0,0.0,0.0,0.0,0.0,0.0,0.0,0.0,0.0,0.0,0.0,0.0,0.0,0.0,0.0,0.0,0.0,0.0,0.0,0.0,0.0,0.0,0.0,0.0,0.0,0.0,0.0,0.0,0.0,0.0,0.0,0.0,0.0,0.0,0.0,0.0,0.0,0.0,0.0,0.0,0.0,0.0,0.0,0.0,0.0,0.0,0.0,0.0,0.0,0.0,0.0,0.0,0.0,0.0,0.0,0.0,0.0,0.0,0.0,0.0,0.0,0.0,0.0,0.0,0.0,0.0,0.0,0.0,0.0,0.0,0.5688,0.5688,0.5688,0.5688,0.5688,0.5688,0.5688,0.5688,0.5688,0.5688,0.5688,0.5688,0.5688,0.5688,0.5688,0.5688,0.5688,0.5688,0.5688,0.5688,0.5688,0.5688,0.5688,0.5688,0.5688,0.5688,0.5688,0.5644,0.5552,0.5327,0.4921,0.4385,0.358,0.3108,0.2718,0.211,0.1741,0.1424,0.1026,0.0728,0.0441,0.008,0.0,0.0,0.0,0.0,0.0,0.0,0.0,0.0,0.0,0.0,0.0,0.0,0.0,0.0,0.0,0.0,0.0,0.0,0.0,0.0,0.0,0.0,0.0,0.0,0.0,0.0039,0.0157,0.0272,0.0346,0.0341,0.0342,0.0299,0.0179,0.0071,0.0,0.0,0.0,0.0,0.0,0.0,0.0,0.0,0.0,0.0,0.0,0.0,0.0,0.0,0.0,0.0,0.0,0.0,0.0,0.0,0.0,0.0,0.0,0.0,0.0,0.0,0.0,0.0,0.0,0.0,0.0,0.0,0.0,0.0,0.0,0.0,0.5688,0.5688,0.5688,0.5688,0.5688,0.5688,0.5688,0.5688,0.5777,0.5819,0.5819,0.5863,0.5863,0.5863,0.5863,0.5863,0.5863,0.5733,0.5688,0.5688,0.5688,0.5688,0.5688,0.5688,0.5688,0.5688,0.5688,0.5688,0.5688,0.5688,0.5416,0.501,0.4565,0.4118,0.3667,0.3216,0.2747,0.2286,0.1725,0.1282,0.0854,0.0326,0.016,0.0157,0.0157,0.0157,0.0118,0.0039,0.0,0.0,0.0,0.0,0.0,0.0,0.0,0.0,0.0,0.0,0.0,0.0,0.0,0.0,0.0,0.0,0.0,0.0,0.0039,0.0196,0.0432,0.0746,0.0934,0.0917,0.0939,0.0813,0.0553,0.0255,0.0073,0.0,0.0,0.0,0.0,0.0,0.0039,0.0,0.0,0.0,0.0,0.0,0.0,0.0,0.0,0.0,0.0,0.0,0.0,0.0,0.0,0.0,0.0,0.0,0.0,0.0,0.0,0.0,0.0,0.0,0.0,0.0,0.0,0.0,0.0,0.0,0.5688,0.5688,0.5688,0.5688,0.5688,0.5688,0.5688,0.5688,0.5952,0.6083,0.6083,0.6254,0.6387,0.6387,0.6387,0.6387,0.6343,0.5908,0.5688,0.5688,0.5688,0.5688,0.5688,0.5688,0.5688,0.5688,0.5688,0.5688,0.5688,0.5688,0.5552,0.5282,0.483,0.4472,0.4142,0.3625,0.3296,0.2977,0.2282,0.186,0.1503,0.0854,0.06,0.055,0.055,0.055,0.0471,0.0079,0.0,0.0,0.0,0.0,0.0,0.0,0.0,0.0,0.0,0.0,0.0,0.0,0.0,0.0,0.0,0.0,0.0,0.0,0.0157,0.0432,0.0825,0.1491,0.1841,0.1839,0.1842,0.1666,0.1248,0.0695,0.0271,0.0,0.0,0.0,0.0,0.0,0.0118,0.0,0.0,0.0,0.0,0.0,0.0,0.0,0.0,0.0,0.0,0.0,0.0,0.0,0.0,0.0,0.0,0.0,0.0,0.0,0.0,0.0,0.0,0.0,0.0,0.0,0.0,0.0,0.0,0.0,0.0,0.5688,0.5688,0.5688,0.5688,0.5688,0.5777,0.5952,0.6038,0.6171,0.6302,0.6387,0.6384,0.6384,0.6384,0.6384,0.6384,0.6213,0.6169,0.6169,0.6169,0.6169,0.616,0.6037,0.6013,0.5941,0.5859,0.5794,0.5688,0.5688,0.5644,0.5552,0.5416,0.5282,0.5144,0.4972,0.465,0.424,0.3685,0.3158,0.2655,0.2117,0.1896,0.1802,0.1802,0.1802,0.1762,0.1644,0.098,0.0393,0.0393,0.0286,0.021,0.021,0.0087,0.0,0.0,0.0,0.0,0.0,0.0,0.0,0.0,0.0,0.0039,0.0196,0.0275,0.0589,0.1296,0.1921,0.235,0.247,0.2608,0.2401,0.1898,0.1406,0.0853,0.0189,0.0076,0.0,0.0,0.0118,0.0236,0.0,0.0,0.0,0.0,0.0,0.0,0.0,0.0,0.0,0.0,0.0,0.0,0.0,0.0,0.0,0.0,0.0,0.0,0.0,0.0,0.0,0.0,0.0,0.0,0.0,0.0,0.0,0.0,0.0,0.0,0.5761,0.5758,0.5783,0.5785,0.5785,0.5891,0.6151,0.6239,0.6345,0.652,0.6562,0.6587,0.6583,0.6536,0.6514,0.6514,0.6514,0.648,0.6384,0.6384,0.6384,0.6372,0.6245,0.6188,0.6198,0.5979,0.5886,0.5822,0.5733,0.5688,0.5688,0.5688,0.5688,0.5688,0.5688,0.5416,0.5055,0.4565,0.4102,0.3602,0.307,0.284,0.2699,0.2699,0.2699,0.2699,0.2699,0.1919,0.1216,0.1059,0.0815,0.0589,0.0421,0.0175,0.0,0.0,0.0043,0.0084,0.012,0.016,0.024,0.0197,0.0237,0.0277,0.0393,0.0471,0.0864,0.1728,0.2565,0.3118,0.3333,0.3655,0.3538,0.2938,0.2487,0.188,0.1148,0.0498,0.0193,0.0196,0.0275,0.0353,0.0,0.0,0.0,0.0,0.0,0.0,0.0,0.0,0.0,0.0,0.0,0.0,0.0,0.0,0.0,0.0,0.0,0.0,0.0,0.0,0.0,0.0,0.0,0.0,0.0,0.0,0.0,0.0,0.0,0.5761,0.5895,0.5886,0.5953,0.5996,0.5993,0.6056,0.619,0.6447,0.6647,0.6779,0.6864,0.6883,0.6873,0.677,0.6702,0.6702,0.6702,0.6606,0.6419,0.6422,0.6428,0.6416,0.6285,0.6315,0.6369,0.6016,0.6011,0.6083,0.5822,0.5733,0.5733,0.5733,0.5733,0.5733,0.5733,0.5597,0.5324,0.4872,0.4581,0.4228,0.3632,0.3331,0.3176,0.3175,0.3175,0.3173,0.3171,0.2856,0.2465,0.1998,0.1588,0.1177,0.0716,0.0306,0.0,0.0,0.0174,0.03,0.0327,0.0539,0.0662,0.0592,0.0642,0.0685,0.063,0.0786,0.1295,0.2156,0.3362,0.413,0.4426,0.4984,0.5037,0.4426,0.384,0.3322,0.2818,0.1372,0.0628,0.0628,0.0393,0.055,0.0295,0.0,0.0,0.0,0.0,0.0,0.0,0.0,0.0,0.0,0.0,0.0,0.0,0.0,0.0,0.0,0.0,0.0,0.0,0.0,0.0,0.0,0.0,0.0,0.0,0.0,0.0,0.0,0.6087,0.6016,0.5889,0.593,0.5987,0.5993,0.5993,0.6097,0.6263,0.6485,0.6632,0.6739,0.6852,0.6829,0.6763,0.6719,0.6702,0.6702,0.6702,0.6662,0.6619,0.6724,0.683,0.6895,0.6649,0.6619,0.6631,0.6306,0.6236,0.6299,0.6213,0.6213,0.6213,0.6213,0.6213,0.6213,0.6213,0.6169,0.6077,0.5985,0.5856,0.5692,0.544,0.5317,0.5243,0.5154,0.5132,0.5071,0.4948,0.4813,0.4304,0.2823,0.2282,0.1892,0.1388,0.0872,0.0487,0.0513,0.0383,0.0335,0.0479,0.0607,0.069,0.0591,0.0642,0.0806,0.1102,0.1296,0.1805,0.2781,0.3838,0.4566,0.4813,0.5431,0.5442,0.4851,0.4528,0.4099,0.3526,0.2195,0.1373,0.11,0.0864,0.0904,0.0399,0.0408,0.0,0.0,0.0,0.0,0.0,0.0,0.0,0.0,0.0,0.0,0.0,0.0,0.0,0.0,0.0,0.0,0.0,0.0,0.0,0.0,0.0,0.0,0.0,0.0,0.0,0.6186,0.6154,0.6087,0.5984,0.6065,0.6112,0.6112,0.6112,0.6222,0.6361,0.6484,0.6597,0.6702,0.6725,0.6692,0.6603,0.6542,0.6519,0.6519,0.6519,0.6552,0.6614,0.6702,0.6824,0.6896,0.6766,0.6723,0.6724,0.6434,0.6384,0.6486,0.641,0.6384,0.6384,0.6384,0.6384,0.6384,0.6384,0.6384,0.6384,0.6384,0.634,0.6267,0.6184,0.6121,0.6012,0.5928,0.583,0.5729,0.5613,0.5598,0.5246,0.3956,0.3458,0.3064,0.2436,0.1742,0.1196,0.1029,0.0768,0.0632,0.0732,0.0908,0.0951,0.088,0.0936,0.11,0.1535,0.1861,0.2466,0.3416,0.4418,0.5079,0.5362,0.5867,0.5964,0.5553,0.544,0.501,0.4307,0.3015,0.2079,0.1415,0.1257,0.1218,0.0454,0.0454,0.0454,0.0,0.0,0.0,0.0273,0.025,0.0,0.0,0.0,0.0,0.0,0.0,0.0,0.0,0.0,0.0,0.0,0.0,0.0,0.0,0.0,0.0,0.0,0.6162,0.6159,0.629,0.6105,0.6037,0.6101,0.6254,0.63,0.63,0.63,0.6361,0.6487,0.6504,0.6573,0.6651,0.6529,0.6504,0.6484,0.6358,0.63,0.63,0.63,0.6371,0.6491,0.6504,0.6563,0.6698,0.6681,0.6685,0.6657,0.6395,0.6447,0.6595,0.6499,0.646,0.6476,0.6476,0.6476,0.6476,0.6476,0.6476,0.647,0.6457,0.6402,0.6346,0.6346,0.6162,0.5969,0.5953,0.582,0.5694,0.5679,0.5676,0.5556,0.5201,0.4912,0.44,0.3568,0.2785,0.209,0.1612,0.1304,0.108,0.1098,0.1286,0.1367,0.135,0.1371,0.1529,0.1968,0.2516,0.3191,0.4036,0.4987,0.5656,0.5894,0.6301,0.6446,0.6303,0.6261,0.5867,0.5082,0.3795,0.2666,0.169,0.165,0.1532,0.0731,0.0731,0.0731,0.0731,0.0,0.0,0.0,0.0527,0.0,0.0,0.0,0.0,0.0,0.0,0.0,0.0,0.0,0.0,0.0,0.0,0.0,0.0,0.0,0.0,0.0,0.6453,0.6494,0.6331,0.6182,0.6138,0.6273,0.6274,0.63,0.63,0.63,0.6313,0.634,0.6457,0.647,0.6385,0.647,0.6453,0.634,0.6313,0.63,0.63,0.63,0.6317,0.6351,0.6463,0.6563,0.6688,0.6566,0.6593,0.6685,0.6522,0.6609,0.6843,0.683,0.687,0.6962,0.6962,0.6962,0.6962,0.6962,0.6962,0.6939,0.683,0.6734,0.6621,0.6621,0.6577,0.6501,0.6421,0.6371,0.6281,0.6168,0.6145,0.6145,0.6064,0.5566,0.4949,0.4237,0.3655,0.3109,0.2611,0.1997,0.1552,0.156,0.1457,0.1453,0.1514,0.1743,0.2065,0.2599,0.3228,0.3866,0.4535,0.5354,0.5848,0.5908,0.6288,0.6446,0.6303,0.6099,0.5825,0.5479,0.4268,0.3214,0.2315,0.2,0.1649,0.0847,0.0847,0.0844,0.0856,0.0,0.0,0.0,0.0,0.0,0.0,0.0,0.0,0.0,0.0,0.0,0.0,0.0,0.0,0.0,0.0,0.0,0.0,0.0,0.0,0.0,0.6358,0.6441,0.6324,0.6255,0.6221,0.6303,0.63,0.63,0.63,0.63,0.63,0.63,0.6371,0.6371,0.63,0.6371,0.6368,0.63,0.63,0.63,0.63,0.63,0.63,0.6306,0.6378,0.6453,0.6481,0.6515,0.6515,0.6481,0.6515,0.6569,0.6722,0.6832,0.693,0.7004,0.7071,0.7095,0.7095,0.7095,0.7048,0.696,0.6858,0.6759,0.6702,0.6702,0.6644,0.6566,0.6528,0.6457,0.6385,0.6317,0.63,0.63,0.63,0.6136,0.5823,0.5241,0.4868,0.441,0.3663,0.2823,0.2198,0.1958,0.1623,0.1526,0.1816,0.2165,0.2642,0.3282,0.4148,0.4839,0.526,0.5873,0.6198,0.6205,0.6327,0.6371,0.6303,0.618,0.6064,0.5948,0.509,0.4153,0.3137,0.2704,0.2273,0.0,0.0,0.0,0.0,0.0,0.086,0.0,0.0,0.0,0.051,0.0,0.0,0.0,0.0,0.0,0.0,0.0,0.0,0.0,0.0,0.0,0.0,0.0,0.0,0.0,0.6125,0.6242,0.6211,0.6238,0.6255,0.6255,0.6282,0.63,0.63,0.63,0.63,0.63,0.63,0.63,0.63,0.63,0.63,0.63,0.63,0.63,0.63,0.63,0.63,0.63,0.63,0.63,0.631,0.6426,0.6402,0.6313,0.6429,0.6491,0.6549,0.6756,0.6861,0.6862,0.6974,0.7031,0.7051,0.7021,0.693,0.6854,0.6698,0.6637,0.6617,0.6617,0.6525,0.647,0.647,0.6405,0.634,0.634,0.6364,0.6385,0.6385,0.6563,0.6611,0.6124,0.5953,0.5544,0.4656,0.3762,0.3002,0.2512,0.2018,0.1865,0.2294,0.276,0.3301,0.4,0.4951,0.5618,0.5876,0.6271,0.647,0.647,0.6361,0.63,0.63,0.63,0.63,0.63,0.587,0.5087,0.4034,0.3561,0.3132,0.0,0.0,0.0,0.0,0.0886,0.0,0.0,0.0,0.0847,0.0775,0.0,0.0,0.0,0.0,0.0,0.0,0.0,0.0,0.0,0.0,0.0,0.0,0.0,0.0,0.0,0.0,0.6,0.5864,0.5979,0.602,0.602,0.6186,0.63,0.63,0.63,0.63,0.63,0.63,0.63,0.63,0.63,0.63,0.63,0.63,0.63,0.63,0.63,0.63,0.63,0.63,0.63,0.6303,0.6317,0.6313,0.6303,0.6317,0.6405,0.6518,0.6552,0.6614,0.6729,0.6746,0.6844,0.6883,0.6793,0.6739,0.6695,0.6539,0.6446,0.6351,0.6351,0.6337,0.6323,0.6323,0.6409,0.6487,0.6487,0.6556,0.6651,0.6651,0.6787,0.6734,0.6354,0.63,0.6077,0.5371,0.4612,0.3987,0.3497,0.3002,0.2824,0.3132,0.3537,0.401,0.458,0.5202,0.5674,0.5889,0.6165,0.6323,0.6323,0.631,0.63,0.63,0.63,0.63,0.63,0.6022,0.5512,0.4849,0.446,0.4031,0.0,0.0,0.0,0.0,0.0,0.0,0.0909,0.0,0.0902,0.0,0.0,0.0,0.0,0.0,0.0,0.0,0.0,0.0,0.0,0.0,0.0,0.0,0.0,0.0,0.0,0.0,0.0,0.0,0.0,0.5718,0.5888,0.6044,0.6169,0.6296,0.63,0.63,0.63,0.63,0.63,0.63,0.63,0.63,0.63,0.63,0.63,0.63,0.63,0.63,0.63,0.63,0.63,0.63,0.63,0.63,0.63,0.63,0.6337,0.6402,0.6484,0.6555,0.6583,0.6671,0.6803,0.6839,0.6641,0.663,0.6651,0.6457,0.6344,0.63,0.63,0.63,0.63,0.63,0.6409,0.6491,0.6405,0.6504,0.6542,0.6501,0.6563,0.6603,0.6461,0.6632,0.6609,0.6077,0.55,0.4921,0.4478,0.3981,0.3846,0.4118,0.4569,0.4949,0.5291,0.5826,0.611,0.6145,0.6219,0.63,0.63,0.63,0.63,0.63,0.63,0.63,0.63,0.618,0.5983,0.5747,0.5162,0.4771,0.2411,0.0,0.0,0.0,0.0,0.0,0.0,0.0,0.0,0.0,0.0,0.0,0.0,0.0,0.0,0.0,0.0,0.0,0.0,0.0,0.0,0.0,0.0,0.0,0.0,0.0,0.0,0.0,0.0,0.0,0.5671,0.5901,0.6081,0.6231,0.6279,0.63,0.63,0.63,0.63,0.63,0.63,0.63,0.63,0.63,0.63,0.63,0.63,0.63,0.63,0.63,0.63,0.63,0.63,0.63,0.63,0.63,0.63,0.6313,0.6419,0.6453,0.6474,0.6542,0.6709,0.6817,0.6552,0.661,0.6709,0.6494,0.6422,0.6422,0.6422,0.6422,0.6422,0.6422,0.6532,0.6559,0.6453,0.6535,0.6556,0.645,0.6504,0.6536,0.6536,0.6803,0.6847,0.6452,0.6017,0.5624,0.5231,0.4833,0.466,0.4947,0.5357,0.5649,0.5833,0.6215,0.6409,0.6306,0.63,0.63,0.63,0.63,0.63,0.63,0.63,0.63,0.63,0.63,0.63,0.63,0.5789,0.5515,0.0,0.0,0.0,0.2077,0.0,0.0,0.0,0.0,0.0888,0.0,0.0,0.0,0.0,0.0,0.0,0.0,0.0,0.0,0.0,0.0,0.0,0.0,0.0,0.0,0.0,0.0,0.0,0.0,0.0,0.0,0.5409,0.5789,0.5993,0.6,0.6183,0.63,0.63,0.63,0.63,0.63,0.63,0.63,0.63,0.63,0.63,0.63,0.63,0.63,0.63,0.63,0.63,0.63,0.63,0.63,0.63,0.63,0.63,0.63,0.6306,0.6306,0.6306,0.6313,0.6471,0.6678,0.6559,0.6681,0.6846,0.6729,0.6685,0.6685,0.6685,0.6685,0.6685,0.6685,0.6803,0.6829,0.6719,0.6807,0.6868,0.6715,0.6692,0.6695,0.6695,0.6705,0.6632,0.6344,0.6133,0.588,0.5633,0.5379,0.5333,0.5459,0.5681,0.5824,0.5883,0.6148,0.6306,0.63,0.63,0.63,0.63,0.63,0.63,0.63,0.63,0.63,0.63,0.63,0.63,0.63,0.6261,0.6261,0.0,0.0,0.3207,0.2778,0.0,0.0,0.0,0.0,0.0,0.0,0.0,0.0,0.0,0.0,0.0,0.0,0.0,0.0,0.0,0.0,0.0,0.0,0.0,0.0,0.0,0.0,0.0,0.0,0.4737,0.0,0.0,0.545,0.5725,0.5983,0.6081,0.6159,0.6296,0.63,0.63,0.63,0.63,0.63,0.63,0.63,0.63,0.63,0.63,0.63,0.63,0.63,0.63,0.63,0.63,0.63,0.63,0.63,0.63,0.63,0.63,0.63,0.63,0.63,0.6501,0.6671,0.6559,0.6685,0.6856,0.6746,0.6702,0.6702,0.6702,0.6702,0.6702,0.6702,0.6817,0.6858,0.6603,0.6668,0.6705,0.6497,0.645,0.645,0.645,0.645,0.6474,0.6547,0.6491,0.645,0.6328,0.6284,0.6223,0.6302,0.6337,0.6356,0.6291,0.6315,0.63,0.63,0.63,0.63,0.63,0.63,0.63,0.63,0.63,0.63,0.63,0.63,0.63,0.63,0.63,0.63,0.4688,0.4365,0.0,0.353,0.3094,0.0,0.2282,0.0,0.0,0.0,0.0,0.0,0.0,0.0,0.0,0.0,0.0,0.0,0.0,0.0,0.0,0.0,0.0,0.0,0.0,0.0,0.4549,0.4494,0.4542,0.0,0.0,0.0,0.5552,0.5864,0.5939,0.6105,0.6296,0.63,0.63,0.63,0.63,0.63,0.63,0.63,0.63,0.63,0.63,0.63,0.63,0.63,0.63,0.63,0.63,0.63,0.63,0.63,0.63,0.63,0.63,0.63,0.63,0.63,0.6501,0.6681,0.6583,0.6763,0.694,0.6885,0.6858,0.6858,0.6858,0.6858,0.6858,0.6858,0.6889,0.6893,0.6688,0.6712,0.6709,0.6504,0.6457,0.6439,0.6385,0.6375,0.6422,0.6522,0.6542,0.6542,0.6542,0.6542,0.6542,0.6542,0.659,0.658,0.6521,0.6381,0.63,0.63,0.63,0.63,0.63,0.63,0.63,0.63,0.63,0.63,0.63,0.63,0.63,0.63,0.63,0.63]}]]